Wetterdaten: Mittwoch, 16.08.2017
Datum Zeit Temp. A. Pool Temp. Feuchte A. Luftdruck Regen Wind Richtung Richtung Sonnenschein ET UV Solar Taupunkt Windchill Windben Empfang
16.08.2017 00:00 18,7 C 23,3 C 87 % 1015,9 hPa 0,0 l/m 0,0 km/h (0 Bft) S 175 0 min 0,000 mm 0,0 UV-I 0 W/m 16,5 C 18,7 C 0,0 km/h (0 Bft) 98,00 %
16.08.2017 00:02 18,7 C 23,3 C 87 % 1015,9 hPa 0,0 l/m 0,0 km/h (0 Bft) S 175 0 min 0,000 mm 0,0 UV-I 0 W/m 16,5 C 18,7 C 0,0 km/h (0 Bft) 89,19 %
16.08.2017 00:04 18,7 C 23,3 C 87 % 1015,9 hPa 0,0 l/m 0,0 km/h (0 Bft) S 175 0 min 0,000 mm 0,0 UV-I 0 W/m 16,5 C 18,7 C 0,0 km/h (0 Bft) 97,87 %
16.08.2017 00:06 18,7 C 23,3 C 87 % 1015,9 hPa 0,0 l/m 0,0 km/h (0 Bft) S 175 0 min 0,000 mm 0,0 UV-I 0 W/m 16,5 C 18,7 C 0,0 km/h (0 Bft) 95,74 %
16.08.2017 00:08 18,7 C 23,3 C 87 % 1015,9 hPa 0,0 l/m 0,1 km/h (0 Bft) S 175 0 min 0,000 mm 0,0 UV-I 0 W/m 16,5 C 18,7 C 1,6 km/h (1 Bft) 98,00 %
16.08.2017 00:10 18,6 C 23,3 C 87 % 1016,0 hPa 0,0 l/m 0,9 km/h (0 Bft) S 175 0 min 0,000 mm 0,0 UV-I 0 W/m 16,4 C 18,6 C 3,2 km/h (1 Bft) 97,56 %
16.08.2017 00:12 18,6 C 23,3 C 87 % 1016,0 hPa 0,0 l/m 0,3 km/h (0 Bft) S 175 0 min 0,000 mm 0,0 UV-I 0 W/m 16,4 C 18,6 C 1,6 km/h (1 Bft) 98,00 %
16.08.2017 00:14 18,6 C 23,3 C 87 % 1016,0 hPa 0,0 l/m 0,4 km/h (0 Bft) S 175 0 min 0,000 mm 0,0 UV-I 0 W/m 16,4 C 18,6 C 3,2 km/h (1 Bft) 98,00 %
16.08.2017 00:16 18,6 C 23,3 C 87 % 1016,0 hPa 0,0 l/m 0,0 km/h (0 Bft) S 175 0 min 0,000 mm 0,0 UV-I 0 W/m 16,4 C 18,6 C 0,0 km/h (0 Bft) 95,74 %
16.08.2017 00:18 18,5 C 23,3 C 88 % 1016,1 hPa 0,0 l/m 0,0 km/h (0 Bft) S 175 0 min 0,000 mm 0,0 UV-I 0 W/m 16,5 C 18,5 C 0,0 km/h (0 Bft) 98,00 %
16.08.2017 00:20 18,5 C 23,3 C 88 % 1016,1 hPa 0,0 l/m 0,0 km/h (0 Bft) S 175 0 min 0,000 mm 0,0 UV-I 0 W/m 16,5 C 18,5 C 0,0 km/h (0 Bft) 96,00 %
16.08.2017 00:22 18,5 C 23,3 C 88 % 1016,1 hPa 0,0 l/m 0,0 km/h (0 Bft) S 175 0 min 0,000 mm 0,0 UV-I 0 W/m 16,5 C 18,5 C 0,0 km/h (0 Bft) 95,74 %
16.08.2017 00:24 18,5 C 23,3 C 88 % 1016,1 hPa 0,0 l/m 0,0 km/h (0 Bft) S 175 0 min 0,000 mm 0,0 UV-I 0 W/m 16,5 C 18,5 C 0,0 km/h (0 Bft) 100,00 %
16.08.2017 00:26 18,6 C 23,3 C 88 % 1016,1 hPa 0,0 l/m 0,0 km/h (0 Bft) S 175 0 min 0,000 mm 0,0 UV-I 0 W/m 16,6 C 18,6 C 0,0 km/h (0 Bft) 96,61 %
16.08.2017 00:28 18,5 C 23,3 C 88 % 1016,1 hPa 0,0 l/m 0,0 km/h (0 Bft) S 175 0 min 0,000 mm 0,0 UV-I 0 W/m 16,5 C 18,5 C 0,0 km/h (0 Bft) 100,00 %
16.08.2017 00:30 18,5 C 23,3 C 88 % 1016,2 hPa 0,0 l/m 0,0 km/h (0 Bft) S 175 0 min 0,000 mm 0,0 UV-I 0 W/m 16,5 C 18,5 C 0,0 km/h (0 Bft) 98,00 %
16.08.2017 00:32 18,4 C 23,3 C 88 % 1016,1 hPa 0,0 l/m 0,0 km/h (0 Bft) S 175 0 min 0,000 mm 0,0 UV-I 0 W/m 16,4 C 18,4 C 0,0 km/h (0 Bft) 96,00 %
16.08.2017 00:34 18,4 C 23,3 C 88 % 1016,1 hPa 0,0 l/m 0,0 km/h (0 Bft) S 175 0 min 0,000 mm 0,0 UV-I 0 W/m 16,4 C 18,4 C 0,0 km/h (0 Bft) 100,00 %
16.08.2017 00:36 18,3 C 23,3 C 88 % 1016,2 hPa 0,0 l/m 0,0 km/h (0 Bft) S 175 0 min 0,000 mm 0,0 UV-I 0 W/m 16,3 C 18,3 C 0,0 km/h (0 Bft) 97,87 %
16.08.2017 00:38 18,3 C 23,3 C 88 % 1016,2 hPa 0,0 l/m 0,0 km/h (0 Bft) S 175 0 min 0,000 mm 0,0 UV-I 0 W/m 16,3 C 18,3 C 0,0 km/h (0 Bft) 98,00 %
16.08.2017 00:40 18,2 C 23,3 C 89 % 1016,3 hPa 0,0 l/m 0,0 km/h (0 Bft) S 175 0 min 0,000 mm 0,0 UV-I 0 W/m 16,4 C 18,2 C 0,0 km/h (0 Bft) 100,00 %
16.08.2017 00:42 18,2 C 23,3 C 89 % 1016,3 hPa 0,0 l/m 0,0 km/h (0 Bft) S 175 0 min 0,000 mm 0,0 UV-I 0 W/m 16,4 C 18,2 C 0,0 km/h (0 Bft) 100,00 %
16.08.2017 00:44 18,2 C 23,3 C 89 % 1016,3 hPa 0,0 l/m 0,0 km/h (0 Bft) S 175 0 min 0,000 mm 0,0 UV-I 0 W/m 16,4 C 18,2 C 0,0 km/h (0 Bft) 100,00 %
16.08.2017 00:46 18,1 C 23,3 C 89 % 1016,3 hPa 0,0 l/m 0,0 km/h (0 Bft) S 175 0 min 0,000 mm 0,0 UV-I 0 W/m 16,3 C 18,1 C 0,0 km/h (0 Bft) 100,00 %
16.08.2017 00:48 18,1 C 23,3 C 89 % 1016,2 hPa 0,0 l/m 0,0 km/h (0 Bft) S 175 0 min 0,000 mm 0,0 UV-I 0 W/m 16,3 C 18,1 C 0,0 km/h (0 Bft) 97,87 %
16.08.2017 00:50 18,0 C 23,3 C 89 % 1016,3 hPa 0,0 l/m 0,0 km/h (0 Bft) S 175 0 min 0,000 mm 0,0 UV-I 0 W/m 16,2 C 18,0 C 0,0 km/h (0 Bft) 100,00 %
16.08.2017 00:52 17,9 C 23,3 C 90 % 1016,3 hPa 0,0 l/m 0,0 km/h (0 Bft) S 175 0 min 0,000 mm 0,0 UV-I 0 W/m 16,2 C 17,9 C 0,0 km/h (0 Bft) 100,00 %
16.08.2017 00:54 17,9 C 23,3 C 90 % 1016,2 hPa 0,0 l/m 0,0 km/h (0 Bft) S 175 0 min 0,000 mm 0,0 UV-I 0 W/m 16,2 C 17,9 C 0,0 km/h (0 Bft) 100,00 %
16.08.2017 00:56 17,8 C 23,3 C 90 % 1016,2 hPa 0,0 l/m 0,0 km/h (0 Bft) S 175 0 min 0,000 mm 0,0 UV-I 0 W/m 16,1 C 17,8 C 0,0 km/h (0 Bft) 100,00 %
16.08.2017 00:58 17,8 C 23,3 C 90 % 1016,3 hPa 0,0 l/m 0,0 km/h (0 Bft) S 175 0 min 0,000 mm 0,0 UV-I 0 W/m 16,1 C 17,8 C 0,0 km/h (0 Bft) 97,87 %
16.08.2017 01:00 17,8 C 23,3 C 90 % 1016,3 hPa 0,0 l/m 0,0 km/h (0 Bft) S 175 0 min 0,000 mm 0,0 UV-I 0 W/m 16,1 C 17,8 C 0,0 km/h (0 Bft) 95,74 %
16.08.2017 01:02 17,8 C 23,3 C 90 % 1016,3 hPa 0,0 l/m 0,0 km/h (0 Bft) S 175 0 min 0,000 mm 0,0 UV-I 0 W/m 16,1 C 17,8 C 0,0 km/h (0 Bft) 96,00 %
16.08.2017 01:04 17,7 C 23,3 C 90 % 1016,3 hPa 0,0 l/m 0,0 km/h (0 Bft) S 175 0 min 0,000 mm 0,0 UV-I 0 W/m 16,0 C 17,7 C 0,0 km/h (0 Bft) 100,00 %
16.08.2017 01:06 17,7 C 23,3 C 91 % 1016,3 hPa 0,0 l/m 0,0 km/h (0 Bft) S 175 0 min 0,000 mm 0,0 UV-I 0 W/m 16,2 C 17,7 C 0,0 km/h (0 Bft) 96,23 %
16.08.2017 01:08 17,8 C 23,3 C 91 % 1016,3 hPa 0,0 l/m 0,0 km/h (0 Bft) S 175 0 min 0,000 mm 0,0 UV-I 0 W/m 16,3 C 17,8 C 0,0 km/h (0 Bft) 98,11 %
16.08.2017 01:10 17,8 C 23,3 C 91 % 1016,2 hPa 0,0 l/m 0,0 km/h (0 Bft) S 175 0 min 0,000 mm 0,0 UV-I 0 W/m 16,3 C 17,8 C 0,0 km/h (0 Bft) 95,74 %
16.08.2017 01:12 17,8 C 23,3 C 90 % 1016,2 hPa 0,0 l/m 0,0 km/h (0 Bft) S 175 0 min 0,000 mm 0,0 UV-I 0 W/m 16,1 C 17,8 C 0,0 km/h (0 Bft) 97,37 %
16.08.2017 01:14 17,8 C 23,3 C 90 % 1016,1 hPa 0,0 l/m 0,0 km/h (0 Bft) S 175 0 min 0,000 mm 0,0 UV-I 0 W/m 16,1 C 17,8 C 0,0 km/h (0 Bft) 98,21 %
16.08.2017 01:16 17,7 C 23,3 C 90 % 1016,1 hPa 0,0 l/m 3,6 km/h (1 Bft) S 175 0 min 0,000 mm 0,0 UV-I 0 W/m 16,0 C 17,7 C 6,4 km/h (2 Bft) 98,00 %
16.08.2017 01:18 17,8 C 23,3 C 90 % 1016,1 hPa 0,0 l/m 3,9 km/h (1 Bft) S 175 0 min 0,000 mm 0,0 UV-I 0 W/m 16,1 C 17,8 C 4,8 km/h (1 Bft) 97,87 %
16.08.2017 01:20 17,7 C 23,3 C 90 % 1016,2 hPa 0,0 l/m 3,3 km/h (1 Bft) S 175 0 min 0,000 mm 0,0 UV-I 0 W/m 16,0 C 17,7 C 4,8 km/h (1 Bft) 94,29 %
16.08.2017 01:22 17,7 C 23,3 C 90 % 1016,1 hPa 0,0 l/m 1,6 km/h (1 Bft) S 175 0 min 0,000 mm 0,0 UV-I 0 W/m 16,0 C 17,7 C 3,2 km/h (1 Bft) 96,23 %
16.08.2017 01:24 17,7 C 23,3 C 90 % 1016,2 hPa 0,0 l/m 0,0 km/h (0 Bft) S 175 0 min 0,000 mm 0,0 UV-I 0 W/m 16,0 C 17,7 C 0,0 km/h (0 Bft) 94,00 %
16.08.2017 01:26 17,7 C 23,3 C 91 % 1016,2 hPa 0,0 l/m 0,0 km/h (0 Bft) S 175 0 min 0,000 mm 0,0 UV-I 0 W/m 16,2 C 17,7 C 0,0 km/h (0 Bft) 100,00 %
16.08.2017 01:28 17,7 C 23,3 C 91 % 1016,2 hPa 0,0 l/m 1,4 km/h (1 Bft) S 175 0 min 0,000 mm 0,0 UV-I 0 W/m 16,2 C 17,7 C 4,8 km/h (1 Bft) 96,92 %
16.08.2017 01:30 17,6 C 23,3 C 90 % 1016,1 hPa 0,0 l/m 4,4 km/h (1 Bft) S 175 0 min 0,000 mm 0,0 UV-I 0 W/m 15,9 C 17,6 C 4,8 km/h (1 Bft) 97,87 %
16.08.2017 01:32 17,4 C 23,3 C 90 % 1016,1 hPa 0,0 l/m 1,3 km/h (1 Bft) S 175 0 min 0,000 mm 0,0 UV-I 0 W/m 15,7 C 17,4 C 3,2 km/h (1 Bft) 97,87 %
16.08.2017 01:34 17,3 C 23,3 C 90 % 1016,2 hPa 0,0 l/m 1,9 km/h (1 Bft) S 175 0 min 0,000 mm 0,0 UV-I 0 W/m 15,6 C 17,3 C 3,2 km/h (1 Bft) 98,00 %
16.08.2017 01:36 17,3 C 23,3 C 91 % 1016,2 hPa 0,0 l/m 1,7 km/h (1 Bft) S 175 0 min 0,000 mm 0,0 UV-I 0 W/m 15,8 C 17,3 C 3,2 km/h (1 Bft) 97,87 %
16.08.2017 01:38 17,3 C 23,3 C 91 % 1016,2 hPa 0,0 l/m 2,5 km/h (1 Bft) S 175 0 min 0,000 mm 0,0 UV-I 0 W/m 15,8 C 17,3 C 4,8 km/h (1 Bft) 97,87 %
16.08.2017 01:40 17,3 C 23,3 C 91 % 1016,2 hPa 0,0 l/m 4,4 km/h (1 Bft) S 180 0 min 0,000 mm 0,0 UV-I 0 W/m 15,8 C 17,3 C 6,4 km/h (2 Bft) 97,56 %
16.08.2017 01:42 17,3 C 23,3 C 92 % 1016,2 hPa 0,0 l/m 4,2 km/h (1 Bft) S 180 0 min 0,000 mm 0,0 UV-I 0 W/m 16,0 C 17,3 C 4,8 km/h (1 Bft) 98,00 %
16.08.2017 01:44 17,3 C 23,3 C 92 % 1016,2 hPa 0,0 l/m 2,3 km/h (1 Bft) S 180 0 min 0,000 mm 0,0 UV-I 0 W/m 16,0 C 17,3 C 4,8 km/h (1 Bft) 97,87 %
16.08.2017 01:46 17,3 C 23,3 C 92 % 1016,2 hPa 0,0 l/m 0,4 km/h (0 Bft) S 180 0 min 0,000 mm 0,0 UV-I 0 W/m 16,0 C 17,3 C 1,6 km/h (1 Bft) 95,74 %
16.08.2017 01:48 17,2 C 23,3 C 92 % 1016,2 hPa 0,0 l/m 0,2 km/h (0 Bft) S 180 0 min 0,000 mm 0,0 UV-I 0 W/m 15,9 C 17,2 C 1,6 km/h (1 Bft) 100,00 %
16.08.2017 01:50 17,2 C 23,3 C 92 % 1016,2 hPa 0,0 l/m 0,4 km/h (0 Bft) S 180 0 min 0,000 mm 0,0 UV-I 0 W/m 15,9 C 17,2 C 1,6 km/h (1 Bft) 96,23 %
16.08.2017 01:52 17,2 C 23,3 C 92 % 1016,2 hPa 0,0 l/m 1,2 km/h (1 Bft) S 180 0 min 0,000 mm 0,0 UV-I 0 W/m 15,9 C 17,2 C 3,2 km/h (1 Bft) 97,56 %
16.08.2017 01:54 17,2 C 23,3 C 92 % 1016,2 hPa 0,0 l/m 1,5 km/h (1 Bft) S 180 0 min 0,000 mm 0,0 UV-I 0 W/m 15,9 C 17,2 C 3,2 km/h (1 Bft) 96,43 %
16.08.2017 01:56 17,2 C 23,3 C 92 % 1016,2 hPa 0,0 l/m 0,7 km/h (0 Bft) S 180 0 min 0,000 mm 0,0 UV-I 0 W/m 15,9 C 17,2 C 3,2 km/h (1 Bft) 98,00 %
16.08.2017 01:58 17,3 C 23,3 C 92 % 1016,2 hPa 0,0 l/m 0,8 km/h (0 Bft) S 180 0 min 0,000 mm 0,0 UV-I 0 W/m 16,0 C 17,3 C 1,6 km/h (1 Bft) 95,45 %
16.08.2017 02:00 17,3 C 23,3 C 92 % 1016,1 hPa 0,0 l/m 1,2 km/h (1 Bft) S 180 0 min 0,000 mm 0,0 UV-I 0 W/m 16,0 C 17,3 C 3,2 km/h (1 Bft) 97,87 %
16.08.2017 02:02 17,3 C 23,3 C 92 % 1016,2 hPa 0,0 l/m 0,8 km/h (0 Bft) S 180 0 min 0,000 mm 0,0 UV-I 0 W/m 16,0 C 17,3 C 3,2 km/h (1 Bft) 96,00 %
16.08.2017 02:04 17,3 C 23,3 C 92 % 1016,2 hPa 0,0 l/m 1,5 km/h (1 Bft) S 180 0 min 0,000 mm 0,0 UV-I 0 W/m 16,0 C 17,3 C 3,2 km/h (1 Bft) 97,73 %
16.08.2017 02:06 17,4 C 23,3 C 92 % 1016,2 hPa 0,0 l/m 1,3 km/h (1 Bft) S 180 0 min 0,000 mm 0,0 UV-I 0 W/m 16,1 C 17,4 C 1,6 km/h (1 Bft) 95,74 %
16.08.2017 02:08 17,4 C 23,3 C 92 % 1016,2 hPa 0,0 l/m 1,0 km/h (0 Bft) S 180 0 min 0,000 mm 0,0 UV-I 0 W/m 16,1 C 17,4 C 3,2 km/h (1 Bft) 97,92 %
16.08.2017 02:10 17,4 C 23,3 C 92 % 1016,2 hPa 0,0 l/m 1,4 km/h (1 Bft) S 180 0 min 0,000 mm 0,0 UV-I 0 W/m 16,1 C 17,4 C 3,2 km/h (1 Bft) 97,37 %
16.08.2017 02:12 17,3 C 23,3 C 91 % 1016,2 hPa 0,0 l/m 1,2 km/h (1 Bft) S 180 0 min 0,000 mm 0,0 UV-I 0 W/m 15,8 C 17,3 C 3,2 km/h (1 Bft) 98,11 %
16.08.2017 02:14 17,2 C 23,3 C 91 % 1016,2 hPa 0,0 l/m 1,6 km/h (1 Bft) S 180 0 min 0,000 mm 0,0 UV-I 0 W/m 15,7 C 17,2 C 4,8 km/h (1 Bft) 97,37 %
16.08.2017 02:16 17,2 C 23,3 C 91 % 1016,2 hPa 0,0 l/m 2,8 km/h (1 Bft) S 180 0 min 0,000 mm 0,0 UV-I 0 W/m 15,7 C 17,2 C 4,8 km/h (1 Bft) 96,23 %
16.08.2017 02:18 17,1 C 23,3 C 92 % 1016,2 hPa 0,0 l/m 3,5 km/h (1 Bft) S 180 0 min 0,000 mm 0,0 UV-I 0 W/m 15,8 C 17,1 C 4,8 km/h (1 Bft) 95,83 %
16.08.2017 02:20 17,2 C 23,3 C 92 % 1016,3 hPa 0,0 l/m 2,7 km/h (1 Bft) S 180 0 min 0,000 mm 0,0 UV-I 0 W/m 15,9 C 17,2 C 4,8 km/h (1 Bft) 97,01 %
16.08.2017 02:22 17,1 C 23,3 C 92 % 1016,2 hPa 0,0 l/m 1,7 km/h (1 Bft) S 180 0 min 0,000 mm 0,0 UV-I 0 W/m 15,8 C 17,1 C 4,8 km/h (1 Bft) 94,34 %
16.08.2017 02:24 17,1 C 23,3 C 92 % 1016,3 hPa 0,0 l/m 2,3 km/h (1 Bft) S 180 0 min 0,000 mm 0,0 UV-I 0 W/m 15,8 C 17,1 C 4,8 km/h (1 Bft) 98,00 %
16.08.2017 02:26 17,2 C 23,3 C 92 % 1016,3 hPa 0,0 l/m 1,7 km/h (1 Bft) S 180 0 min 0,000 mm 0,0 UV-I 0 W/m 15,9 C 17,2 C 3,2 km/h (1 Bft) 97,44 %
16.08.2017 02:28 17,2 C 23,3 C 92 % 1016,3 hPa 0,0 l/m 1,1 km/h (1 Bft) S 180 0 min 0,000 mm 0,0 UV-I 0 W/m 15,9 C 17,2 C 3,2 km/h (1 Bft) 100,00 %
16.08.2017 02:30 17,2 C 23,3 C 92 % 1016,3 hPa 0,0 l/m 2,2 km/h (1 Bft) S 180 0 min 0,000 mm 0,0 UV-I 0 W/m 15,9 C 17,2 C 3,2 km/h (1 Bft) 100,00 %
16.08.2017 02:32 17,2 C 23,3 C 92 % 1016,2 hPa 0,0 l/m 2,0 km/h (1 Bft) S 180 0 min 0,000 mm 0,0 UV-I 0 W/m 15,9 C 17,2 C 3,2 km/h (1 Bft) 97,87 %
16.08.2017 02:34 17,2 C 23,3 C 92 % 1016,2 hPa 0,0 l/m 1,9 km/h (1 Bft) S 180 0 min 0,000 mm 0,0 UV-I 0 W/m 15,9 C 17,2 C 4,8 km/h (1 Bft) 97,56 %
16.08.2017 02:36 17,2 C 22,8 C 92 % 1016,2 hPa 0,0 l/m 1,4 km/h (1 Bft) S 180 0 min 0,000 mm 0,0 UV-I 0 W/m 15,9 C 17,2 C 3,2 km/h (1 Bft) 100,00 %
16.08.2017 02:38 17,1 C 22,8 C 92 % 1016,2 hPa 0,0 l/m 1,1 km/h (1 Bft) S 180 0 min 0,000 mm 0,0 UV-I 0 W/m 15,8 C 17,1 C 3,2 km/h (1 Bft) 100,00 %
16.08.2017 02:40 17,1 C 22,8 C 92 % 1016,2 hPa 0,0 l/m 0,9 km/h (0 Bft) S 180 0 min 0,000 mm 0,0 UV-I 0 W/m 15,8 C 17,1 C 1,6 km/h (1 Bft) 100,00 %
16.08.2017 02:42 17,1 C 22,8 C 92 % 1016,1 hPa 0,0 l/m 0,7 km/h (0 Bft) S 180 0 min 0,000 mm 0,0 UV-I 0 W/m 15,8 C 17,1 C 3,2 km/h (1 Bft) 100,00 %
16.08.2017 02:44 17,1 C 22,8 C 92 % 1016,1 hPa 0,0 l/m 0,9 km/h (0 Bft) S 180 0 min 0,000 mm 0,0 UV-I 0 W/m 15,8 C 17,1 C 1,6 km/h (1 Bft) 100,00 %
16.08.2017 02:46 17,1 C 22,8 C 92 % 1016,1 hPa 0,0 l/m 1,0 km/h (0 Bft) S 180 0 min 0,000 mm 0,0 UV-I 0 W/m 15,8 C 17,1 C 1,6 km/h (1 Bft) 100,00 %
16.08.2017 02:48 17,1 C 22,8 C 92 % 1016,2 hPa 0,0 l/m 0,2 km/h (0 Bft) S 180 0 min 0,000 mm 0,0 UV-I 0 W/m 15,8 C 17,1 C 1,6 km/h (1 Bft) 100,00 %
16.08.2017 02:50 17,1 C 22,8 C 92 % 1016,1 hPa 0,0 l/m 0,0 km/h (0 Bft) S 180 0 min 0,000 mm 0,0 UV-I 0 W/m 15,8 C 17,1 C 0,0 km/h (0 Bft) 100,00 %
16.08.2017 02:52 17,1 C 22,8 C 92 % 1016,1 hPa 0,0 l/m 0,0 km/h (0 Bft) S 180 0 min 0,000 mm 0,0 UV-I 0 W/m 15,8 C 17,1 C 1,6 km/h (1 Bft) 100,00 %
16.08.2017 02:54 17,1 C 22,8 C 92 % 1016,2 hPa 0,0 l/m 1,2 km/h (1 Bft) S 180 0 min 0,000 mm 0,0 UV-I 0 W/m 15,8 C 17,1 C 3,2 km/h (1 Bft) 98,21 %
16.08.2017 02:56 17,0 C 22,8 C 92 % 1016,2 hPa 0,0 l/m 1,4 km/h (1 Bft) S 180 0 min 0,000 mm 0,0 UV-I 0 W/m 15,7 C 17,0 C 3,2 km/h (1 Bft) 100,00 %
16.08.2017 02:58 16,9 C 22,8 C 92 % 1016,2 hPa 0,0 l/m 1,7 km/h (1 Bft) S 180 0 min 0,000 mm 0,0 UV-I 0 W/m 15,6 C 16,9 C 3,2 km/h (1 Bft) 100,00 %
16.08.2017 03:00 16,9 C 22,8 C 92 % 1016,2 hPa 0,0 l/m 2,3 km/h (1 Bft) S 180 0 min 0,000 mm 0,0 UV-I 0 W/m 15,6 C 16,9 C 3,2 km/h (1 Bft) 100,00 %
16.08.2017 03:02 16,9 C 22,8 C 92 % 1016,2 hPa 0,0 l/m 2,7 km/h (1 Bft) S 180 0 min 0,000 mm 0,0 UV-I 0 W/m 15,6 C 16,9 C 3,2 km/h (1 Bft) 97,87 %
16.08.2017 03:04 16,8 C 22,8 C 92 % 1016,3 hPa 0,0 l/m 2,6 km/h (1 Bft) S 180 0 min 0,000 mm 0,0 UV-I 0 W/m 15,5 C 16,8 C 3,2 km/h (1 Bft) 100,00 %
16.08.2017 03:06 16,8 C 22,8 C 92 % 1016,3 hPa 0,0 l/m 3,5 km/h (1 Bft) S 180 0 min 0,000 mm 0,0 UV-I 0 W/m 15,5 C 16,8 C 4,8 km/h (1 Bft) 100,00 %
16.08.2017 03:08 16,8 C 22,8 C 92 % 1016,3 hPa 0,0 l/m 3,8 km/h (1 Bft) S 180 0 min 0,000 mm 0,0 UV-I 0 W/m 15,5 C 16,8 C 4,8 km/h (1 Bft) 100,00 %
16.08.2017 03:10 16,8 C 22,8 C 92 % 1016,3 hPa 0,0 l/m 2,7 km/h (1 Bft) S 180 0 min 0,000 mm 0,0 UV-I 0 W/m 15,5 C 16,8 C 4,8 km/h (1 Bft) 100,00 %
16.08.2017 03:12 16,7 C 22,8 C 92 % 1016,3 hPa 0,0 l/m 3,1 km/h (1 Bft) S 180 0 min 0,000 mm 0,0 UV-I 0 W/m 15,4 C 16,7 C 4,8 km/h (1 Bft) 100,00 %
16.08.2017 03:14 16,7 C 22,8 C 92 % 1016,4 hPa 0,0 l/m 2,6 km/h (1 Bft) S 180 0 min 0,000 mm 0,0 UV-I 0 W/m 15,4 C 16,7 C 4,8 km/h (1 Bft) 98,00 %
16.08.2017 03:16 16,7 C 22,8 C 92 % 1016,3 hPa 0,0 l/m 2,0 km/h (1 Bft) S 180 0 min 0,000 mm 0,0 UV-I 0 W/m 15,4 C 16,7 C 3,2 km/h (1 Bft) 100,00 %
16.08.2017 03:18 16,7 C 22,8 C 92 % 1016,3 hPa 0,0 l/m 1,3 km/h (1 Bft) S 180 0 min 0,000 mm 0,0 UV-I 0 W/m 15,4 C 16,7 C 3,2 km/h (1 Bft) 100,00 %
16.08.2017 03:20 16,7 C 22,8 C 92 % 1016,3 hPa 0,0 l/m 1,6 km/h (1 Bft) S 180 0 min 0,000 mm 0,0 UV-I 0 W/m 15,4 C 16,7 C 3,2 km/h (1 Bft) 97,37 %
16.08.2017 03:22 16,7 C 22,8 C 92 % 1016,3 hPa 0,0 l/m 1,6 km/h (1 Bft) S 180 0 min 0,000 mm 0,0 UV-I 0 W/m 15,4 C 16,7 C 4,8 km/h (1 Bft) 98,00 %
16.08.2017 03:24 16,7 C 22,8 C 92 % 1016,3 hPa 0,0 l/m 2,1 km/h (1 Bft) S 180 0 min 0,000 mm 0,0 UV-I 0 W/m 15,4 C 16,7 C 3,2 km/h (1 Bft) 100,00 %
16.08.2017 03:26 16,7 C 22,8 C 92 % 1016,4 hPa 0,0 l/m 2,0 km/h (1 Bft) S 180 0 min 0,000 mm 0,0 UV-I 0 W/m 15,4 C 16,7 C 3,2 km/h (1 Bft) 96,15 %
16.08.2017 03:28 16,7 C 22,8 C 92 % 1016,4 hPa 0,0 l/m 1,8 km/h (1 Bft) S 180 0 min 0,000 mm 0,0 UV-I 0 W/m 15,4 C 16,7 C 3,2 km/h (1 Bft) 100,00 %
16.08.2017 03:30 16,8 C 22,8 C 92 % 1016,4 hPa 0,0 l/m 0,8 km/h (0 Bft) S 180 0 min 0,000 mm 0,0 UV-I 0 W/m 15,5 C 16,8 C 1,6 km/h (1 Bft) 100,00 %
16.08.2017 03:32 16,8 C 22,8 C 92 % 1016,5 hPa 0,0 l/m 0,9 km/h (0 Bft) S 180 0 min 0,000 mm 0,0 UV-I 0 W/m 15,5 C 16,8 C 3,2 km/h (1 Bft) 100,00 %
16.08.2017 03:34 16,7 C 22,8 C 92 % 1016,6 hPa 0,0 l/m 1,6 km/h (1 Bft) S 180 0 min 0,000 mm 0,0 UV-I 0 W/m 15,4 C 16,7 C 3,2 km/h (1 Bft) 98,00 %
16.08.2017 03:36 16,7 C 22,8 C 92 % 1016,6 hPa 0,0 l/m 1,5 km/h (1 Bft) S 180 0 min 0,000 mm 0,0 UV-I 0 W/m 15,4 C 16,7 C 3,2 km/h (1 Bft) 100,00 %
16.08.2017 03:38 16,7 C 22,8 C 92 % 1016,6 hPa 0,0 l/m 2,1 km/h (1 Bft) S 180 0 min 0,000 mm 0,0 UV-I 0 W/m 15,4 C 16,7 C 3,2 km/h (1 Bft) 100,00 %
16.08.2017 03:40 16,7 C 22,8 C 92 % 1016,6 hPa 0,0 l/m 2,4 km/h (1 Bft) S 180 0 min 0,000 mm 0,0 UV-I 0 W/m 15,4 C 16,7 C 3,2 km/h (1 Bft) 100,00 %
16.08.2017 03:42 16,7 C 22,8 C 92 % 1016,7 hPa 0,0 l/m 1,9 km/h (1 Bft) S 180 0 min 0,000 mm 0,0 UV-I 0 W/m 15,4 C 16,7 C 3,2 km/h (1 Bft) 100,00 %
16.08.2017 03:44 16,7 C 22,8 C 92 % 1016,8 hPa 0,0 l/m 3,3 km/h (1 Bft) S 188 0 min 0,000 mm 0,0 UV-I 0 W/m 15,4 C 16,7 C 4,8 km/h (1 Bft) 100,00 %
16.08.2017 03:46 16,7 C 22,8 C 92 % 1017,0 hPa 0,0 l/m 7,5 km/h (2 Bft) W-SW 239 0 min 0,000 mm 0,0 UV-I 0 W/m 15,4 C 16,1 C 11,3 km/h (2 Bft) 100,00 %
16.08.2017 03:48 16,7 C 22,8 C 92 % 1017,2 hPa 0,0 l/m 8,2 km/h (2 Bft) S-SW 202 0 min 0,000 mm 0,0 UV-I 0 W/m 15,4 C 15,8 C 12,9 km/h (3 Bft) 100,00 %
16.08.2017 03:50 16,7 C 22,8 C 92 % 1017,2 hPa 0,0 l/m 9,2 km/h (2 Bft) S-SW 202 0 min 0,000 mm 0,0 UV-I 0 W/m 15,4 C 15,3 C 12,9 km/h (3 Bft) 98,00 %
16.08.2017 03:52 16,7 C 22,8 C 92 % 1017,3 hPa 0,0 l/m 10,1 km/h (2 Bft) SW 225 0 min 0,000 mm 0,0 UV-I 0 W/m 15,4 C 15,0 C 12,9 km/h (3 Bft) 100,00 %
16.08.2017 03:54 16,7 C 22,8 C 92 % 1017,4 hPa 0,0 l/m 12,0 km/h (2 Bft) W-SW 243 0 min 0,000 mm 0,0 UV-I 0 W/m 15,4 C 14,2 C 20,9 km/h (4 Bft) 100,00 %
16.08.2017 03:56 16,7 C 22,8 C 92 % 1017,5 hPa 0,0 l/m 12,4 km/h (3 Bft) W-SW 248 0 min 0,000 mm 0,0 UV-I 0 W/m 15,4 C 14,1 C 17,7 km/h (3 Bft) 96,23 %
16.08.2017 03:58 16,8 C 22,8 C 92 % 1017,6 hPa 0,0 l/m 14,7 km/h (3 Bft) SW 220 0 min 0,000 mm 0,0 UV-I 0 W/m 15,5 C 13,5 C 22,5 km/h (4 Bft) 98,00 %
16.08.2017 04:00 16,8 C 22,8 C 92 % 1017,7 hPa 0,0 l/m 14,4 km/h (3 Bft) SW 232 0 min 0,000 mm 0,0 UV-I 0 W/m 15,5 C 13,6 C 25,7 km/h (4 Bft) 94,74 %
16.08.2017 04:02 16,8 C 22,8 C 92 % 1017,8 hPa 0,0 l/m 17,7 km/h (3 Bft) W 264 0 min 0,000 mm 0,0 UV-I 0 W/m 15,5 C 12,6 C 20,9 km/h (4 Bft) 100,00 %
16.08.2017 04:04 16,9 C 22,8 C 93 % 1017,8 hPa 0,0 l/m 13,8 km/h (3 Bft) W-SW 241 0 min 0,000 mm 0,0 UV-I 0 W/m 15,8 C 13,9 C 19,3 km/h (3 Bft) 94,64 %
16.08.2017 04:06 17,0 C 22,8 C 93 % 1017,9 hPa 0,0 l/m 12,6 km/h (3 Bft) W-SW 249 0 min 0,000 mm 0,0 UV-I 0 W/m 15,9 C 14,4 C 17,7 km/h (3 Bft) 97,56 %
16.08.2017 04:08 17,1 C 22,8 C 93 % 1018,0 hPa 0,0 l/m 15,6 km/h (3 Bft) W 265 0 min 0,000 mm 0,0 UV-I 0 W/m 16,0 C 13,6 C 22,5 km/h (4 Bft) 95,45 %
16.08.2017 04:10 17,1 C 22,8 C 93 % 1018,0 hPa 0,0 l/m 16,7 km/h (3 Bft) W-SW 246 0 min 0,000 mm 0,0 UV-I 0 W/m 16,0 C 13,3 C 24,1 km/h (4 Bft) 98,11 %
16.08.2017 04:12 17,2 C 22,8 C 93 % 1018,0 hPa 0,0 l/m 14,1 km/h (3 Bft) W-SW 248 0 min 0,000 mm 0,0 UV-I 0 W/m 16,1 C 14,1 C 19,3 km/h (3 Bft) 92,11 %
16.08.2017 04:14 17,2 C 22,8 C 92 % 1018,0 hPa 0,0 l/m 13,8 km/h (3 Bft) W-SW 239 0 min 0,000 mm 0,0 UV-I 0 W/m 15,9 C 14,2 C 20,9 km/h (4 Bft) 98,00 %
16.08.2017 04:16 17,2 C 22,8 C 93 % 1018,0 hPa 0,0 l/m 12,6 km/h (3 Bft) W-SW 252 0 min 0,000 mm 0,0 UV-I 0 W/m 16,1 C 14,6 C 17,7 km/h (3 Bft) 98,11 %
16.08.2017 04:18 17,3 C 22,8 C 92 % 1018,1 hPa 0,0 l/m 9,9 km/h (2 Bft) SW 228 0 min 0,000 mm 0,0 UV-I 0 W/m 16,0 C 15,7 C 16,1 km/h (3 Bft) 97,87 %
16.08.2017 04:20 17,3 C 22,8 C 92 % 1018,1 hPa 0,0 l/m 9,4 km/h (2 Bft) SW 229 0 min 0,000 mm 0,0 UV-I 0 W/m 16,0 C 15,9 C 17,7 km/h (3 Bft) 97,62 %
16.08.2017 04:22 17,3 C 22,8 C 92 % 1018,2 hPa 0,0 l/m 9,1 km/h (2 Bft) W-SW 248 0 min 0,000 mm 0,0 UV-I 0 W/m 16,0 C 16,0 C 14,5 km/h (3 Bft) 98,08 %
16.08.2017 04:24 17,3 C 22,8 C 92 % 1018,2 hPa 0,0 l/m 10,5 km/h (2 Bft) W-SW 242 0 min 0,000 mm 0,0 UV-I 0 W/m 16,0 C 15,5 C 16,1 km/h (3 Bft) 97,44 %
16.08.2017 04:26 17,3 C 22,8 C 92 % 1018,2 hPa 0,0 l/m 9,9 km/h (2 Bft) SW 236 0 min 0,000 mm 0,0 UV-I 0 W/m 16,0 C 15,7 C 12,9 km/h (3 Bft) 96,43 %
16.08.2017 04:28 17,4 C 22,8 C 91 % 1018,2 hPa 0,0 l/m 11,4 km/h (2 Bft) SW 214 0 min 0,000 mm 0,0 UV-I 0 W/m 15,9 C 15,2 C 16,1 km/h (3 Bft) 98,00 %
16.08.2017 04:30 17,4 C 22,8 C 91 % 1018,3 hPa 0,0 l/m 12,4 km/h (3 Bft) SW 234 0 min 0,000 mm 0,0 UV-I 0 W/m 15,9 C 14,9 C 19,3 km/h (3 Bft) 97,14 %
16.08.2017 04:32 17,4 C 22,8 C 91 % 1018,3 hPa 0,0 l/m 10,8 km/h (2 Bft) SW 236 0 min 0,000 mm 0,0 UV-I 0 W/m 15,9 C 15,5 C 17,7 km/h (3 Bft) 98,21 %
16.08.2017 04:34 17,4 C 22,8 C 91 % 1018,4 hPa 0,0 l/m 11,2 km/h (2 Bft) W-SW 238 0 min 0,000 mm 0,0 UV-I 0 W/m 15,9 C 15,3 C 17,7 km/h (3 Bft) 100,00 %
16.08.2017 04:36 17,4 C 22,8 C 91 % 1018,4 hPa 0,0 l/m 12,5 km/h (3 Bft) W-SW 240 0 min 0,000 mm 0,0 UV-I 0 W/m 15,9 C 14,9 C 17,7 km/h (3 Bft) 98,11 %
16.08.2017 04:38 17,4 C 22,8 C 91 % 1018,5 hPa 0,0 l/m 12,3 km/h (3 Bft) W-SW 237 0 min 0,000 mm 0,0 UV-I 0 W/m 15,9 C 14,9 C 19,3 km/h (3 Bft) 95,45 %
16.08.2017 04:40 17,4 C 22,8 C 91 % 1018,5 hPa 0,0 l/m 11,1 km/h (2 Bft) W-SW 248 0 min 0,000 mm 0,0 UV-I 0 W/m 15,9 C 15,4 C 19,3 km/h (3 Bft) 97,56 %
16.08.2017 04:42 17,4 C 22,8 C 91 % 1018,6 hPa 0,0 l/m 13,2 km/h (3 Bft) W-SW 250 0 min 0,000 mm 0,0 UV-I 0 W/m 15,9 C 14,6 C 20,9 km/h (4 Bft) 95,74 %
16.08.2017 04:44 17,5 C 22,8 C 90 % 1018,7 hPa 0,0 l/m 12,9 km/h (3 Bft) SW 233 0 min 0,000 mm 0,0 UV-I 0 W/m 15,8 C 14,9 C 17,7 km/h (3 Bft) 98,00 %
16.08.2017 04:46 17,6 C 22,8 C 90 % 1018,6 hPa 0,0 l/m 12,4 km/h (3 Bft) W-SW 244 0 min 0,000 mm 0,0 UV-I 0 W/m 15,9 C 15,1 C 22,5 km/h (4 Bft) 98,00 %
16.08.2017 04:48 17,6 C 22,8 C 90 % 1018,7 hPa 0,0 l/m 15,4 km/h (3 Bft) W-SW 240 0 min 0,000 mm 0,0 UV-I 0 W/m 15,9 C 14,2 C 24,1 km/h (4 Bft) 100,00 %
16.08.2017 04:50 17,7 C 22,8 C 89 % 1018,8 hPa 0,0 l/m 12,3 km/h (3 Bft) W-SW 240 0 min 0,000 mm 0,0 UV-I 0 W/m 15,9 C 15,3 C 17,7 km/h (3 Bft) 98,21 %
16.08.2017 04:52 17,7 C 22,8 C 89 % 1018,7 hPa 0,0 l/m 15,2 km/h (3 Bft) W-SW 250 0 min 0,000 mm 0,0 UV-I 0 W/m 15,9 C 14,4 C 22,5 km/h (4 Bft) 97,87 %
16.08.2017 04:54 17,8 C 22,8 C 89 % 1018,9 hPa 0,0 l/m 18,1 km/h (3 Bft) W 262 0 min 0,000 mm 0,0 UV-I 0 W/m 16,0 C 13,8 C 25,7 km/h (4 Bft) 97,73 %
16.08.2017 04:56 17,9 C 22,8 C 88 % 1018,9 hPa 0,0 l/m 12,6 km/h (3 Bft) SW 229 0 min 0,000 mm 0,0 UV-I 0 W/m 15,9 C 15,4 C 17,7 km/h (3 Bft) 96,00 %
16.08.2017 04:58 18,0 C 22,8 C 88 % 1019,0 hPa 0,0 l/m 14,4 km/h (3 Bft) W-SW 250 0 min 0,000 mm 0,0 UV-I 0 W/m 16,0 C 15,0 C 19,3 km/h (3 Bft) 100,00 %
16.08.2017 05:00 18,1 C 22,8 C 88 % 1018,9 hPa 0,0 l/m 13,6 km/h (3 Bft) W-SW 247 0 min 0,025 mm 0,0 UV-I 0 W/m 16,1 C 15,3 C 22,5 km/h (4 Bft) 96,15 %
16.08.2017 05:02 18,2 C 22,8 C 87 % 1019,0 hPa 0,0 l/m 14,1 km/h (3 Bft) W-SW 252 0 min 0,000 mm 0,0 UV-I 0 W/m 16,0 C 15,3 C 20,9 km/h (4 Bft) 97,44 %
16.08.2017 05:04 18,3 C 22,8 C 87 % 1018,9 hPa 0,0 l/m 12,9 km/h (3 Bft) W-SW 242 0 min 0,000 mm 0,0 UV-I 0 W/m 16,1 C 15,8 C 17,7 km/h (3 Bft) 97,73 %
16.08.2017 05:06 18,3 C 22,8 C 87 % 1019,0 hPa 0,0 l/m 12,0 km/h (2 Bft) W 263 0 min 0,000 mm 0,0 UV-I 0 W/m 16,1 C 16,1 C 19,3 km/h (3 Bft) 98,21 %
16.08.2017 05:08 18,4 C 22,8 C 86 % 1019,0 hPa 0,0 l/m 14,7 km/h (3 Bft) W 259 0 min 0,000 mm 0,0 UV-I 0 W/m 16,0 C 15,4 C 20,9 km/h (4 Bft) 96,15 %
16.08.2017 05:10 18,5 C 22,8 C 86 % 1019,0 hPa 0,0 l/m 12,0 km/h (2 Bft) W 259 0 min 0,000 mm 0,0 UV-I 0 W/m 16,1 C 16,3 C 16,1 km/h (3 Bft) 98,53 %
16.08.2017 05:12 18,6 C 22,8 C 86 % 1019,0 hPa 0,0 l/m 15,9 km/h (3 Bft) W-SW 244 0 min 0,000 mm 0,0 UV-I 0 W/m 16,2 C 15,3 C 22,5 km/h (4 Bft) 98,00 %
16.08.2017 05:14 18,6 C 22,8 C 85 % 1019,0 hPa 0,0 l/m 11,8 km/h (2 Bft) W 274 0 min 0,000 mm 0,0 UV-I 0 W/m 16,0 C 16,5 C 24,1 km/h (4 Bft) 97,87 %
16.08.2017 05:16 18,6 C 22,8 C 85 % 1019,0 hPa 0,0 l/m 13,7 km/h (3 Bft) W-SW 241 0 min 0,000 mm 0,0 UV-I 0 W/m 16,0 C 15,9 C 24,1 km/h (4 Bft) 97,73 %
16.08.2017 05:18 18,7 C 22,8 C 85 % 1019,0 hPa 0,0 l/m 13,9 km/h (3 Bft) W 262 0 min 0,000 mm 0,0 UV-I 0 W/m 16,1 C 16,0 C 19,3 km/h (3 Bft) 97,56 %
16.08.2017 05:20 18,7 C 22,8 C 85 % 1019,0 hPa 0,0 l/m 12,1 km/h (2 Bft) W-SW 251 0 min 0,000 mm 0,0 UV-I 0 W/m 16,1 C 16,5 C 19,3 km/h (3 Bft) 96,00 %
16.08.2017 05:22 18,7 C 22,8 C 85 % 1019,1 hPa 0,0 l/m 13,8 km/h (3 Bft) W-SW 242 0 min 0,000 mm 0,0 UV-I 0 W/m 16,1 C 16,0 C 22,5 km/h (4 Bft) 97,87 %
16.08.2017 05:24 18,7 C 22,8 C 85 % 1019,1 hPa 0,0 l/m 11,8 km/h (2 Bft) W 265 0 min 0,000 mm 0,0 UV-I 0 W/m 16,1 C 16,6 C 14,5 km/h (3 Bft) 98,11 %
16.08.2017 05:26 18,7 C 22,8 C 85 % 1019,2 hPa 0,0 l/m 10,0 km/h (2 Bft) W-SW 248 0 min 0,000 mm 0,0 UV-I 0 W/m 16,1 C 17,2 C 16,1 km/h (3 Bft) 95,12 %
16.08.2017 05:28 18,7 C 22,8 C 85 % 1019,2 hPa 0,0 l/m 9,7 km/h (2 Bft) W-SW 256 0 min 0,000 mm 0,0 UV-I 0 W/m 16,1 C 17,3 C 16,1 km/h (3 Bft) 98,00 %
16.08.2017 05:30 18,7 C 22,8 C 85 % 1019,2 hPa 0,0 l/m 12,5 km/h (3 Bft) SW 236 0 min 0,000 mm 0,0 UV-I 0 W/m 16,1 C 16,4 C 17,7 km/h (3 Bft) 97,56 %
16.08.2017 05:32 18,7 C 22,8 C 85 % 1019,3 hPa 0,0 l/m 9,7 km/h (2 Bft) W-SW 244 0 min 0,000 mm 0,0 UV-I 0 W/m 16,1 C 17,3 C 17,7 km/h (3 Bft) 97,62 %
16.08.2017 05:34 18,7 C 22,8 C 85 % 1019,3 hPa 0,0 l/m 11,7 km/h (2 Bft) W-SW 256 0 min 0,000 mm 0,0 UV-I 0 W/m 16,1 C 16,6 C 17,7 km/h (3 Bft) 98,18 %
16.08.2017 05:36 18,7 C 22,8 C 85 % 1019,3 hPa 0,0 l/m 12,5 km/h (3 Bft) W-SW 244 0 min 0,000 mm 0,0 UV-I 0 W/m 16,1 C 16,4 C 14,5 km/h (3 Bft) 97,73 %
16.08.2017 05:38 18,7 C 22,8 C 85 % 1019,3 hPa 0,0 l/m 11,5 km/h (2 Bft) W 259 0 min 0,000 mm 0,0 UV-I 0 W/m 16,1 C 16,7 C 20,9 km/h (4 Bft) 98,00 %
16.08.2017 05:40 18,6 C 22,8 C 85 % 1019,3 hPa 0,0 l/m 13,4 km/h (3 Bft) W-SW 258 0 min 0,000 mm 0,0 UV-I 0 W/m 16,0 C 16,0 C 19,3 km/h (3 Bft) 97,92 %
16.08.2017 05:42 18,6 C 22,8 C 85 % 1019,4 hPa 0,0 l/m 11,5 km/h (2 Bft) W-SW 246 0 min 0,000 mm 0,0 UV-I 0 W/m 16,0 C 16,6 C 22,5 km/h (4 Bft) 97,14 %
16.08.2017 05:44 18,6 C 22,8 C 85 % 1019,4 hPa 0,0 l/m 12,1 km/h (2 Bft) SW 222 0 min 0,000 mm 0,0 UV-I 3 W/m 16,0 C 16,4 C 17,7 km/h (3 Bft) 100,00 %
16.08.2017 05:46 18,7 C 22,8 C 85 % 1019,4 hPa 0,0 l/m 9,5 km/h (2 Bft) SW 234 0 min 0,000 mm 0,0 UV-I 5 W/m 16,1 C 17,4 C 16,1 km/h (3 Bft) 100,00 %
16.08.2017 05:48 18,6 C 22,8 C 85 % 1019,4 hPa 0,0 l/m 10,3 km/h (2 Bft) W-SW 256 0 min 0,000 mm 0,0 UV-I 6 W/m 16,0 C 17,0 C 16,1 km/h (3 Bft) 100,00 %
16.08.2017 05:50 18,7 C 22,8 C 85 % 1019,5 hPa 0,0 l/m 11,5 km/h (2 Bft) W-SW 241 0 min 0,000 mm 0,0 UV-I 9 W/m 16,1 C 16,7 C 16,1 km/h (3 Bft) 100,00 %
16.08.2017 05:52 18,7 C 22,8 C 85 % 1019,5 hPa 0,0 l/m 9,3 km/h (2 Bft) W-SW 242 0 min 0,000 mm 0,0 UV-I 9 W/m 16,1 C 17,5 C 16,1 km/h (3 Bft) 100,00 %
16.08.2017 05:54 18,7 C 22,8 C 85 % 1019,5 hPa 0,0 l/m 7,8 km/h (2 Bft) W-SW 244 0 min 0,000 mm 0,0 UV-I 11 W/m 16,1 C 18,1 C 11,3 km/h (2 Bft) 100,00 %
16.08.2017 05:56 18,7 C 22,8 C 85 % 1019,5 hPa 0,0 l/m 10,3 km/h (2 Bft) W-SW 255 0 min 0,000 mm 0,0 UV-I 11 W/m 16,1 C 17,1 C 16,1 km/h (3 Bft) 100,00 %
16.08.2017 05:58 18,6 C 22,8 C 85 % 1019,5 hPa 0,0 l/m 9,3 km/h (2 Bft) W 261 0 min 0,000 mm 0,0 UV-I 11 W/m 16,0 C 17,4 C 14,5 km/h (3 Bft) 97,87 %
16.08.2017 06:00 18,6 C 22,8 C 85 % 1019,6 hPa 0,0 l/m 8,2 km/h (2 Bft) W-SW 256 0 min 0,026 mm 0,0 UV-I 9 W/m 16,0 C 17,8 C 14,5 km/h (3 Bft) 95,74 %
16.08.2017 06:02 18,6 C 22,8 C 85 % 1019,5 hPa 0,0 l/m 9,1 km/h (2 Bft) W 262 0 min 0,000 mm 0,0 UV-I 9 W/m 16,0 C 17,4 C 12,9 km/h (3 Bft) 98,00 %
16.08.2017 06:04 18,6 C 22,8 C 85 % 1019,5 hPa 0,0 l/m 6,9 km/h (2 Bft) W-SW 242 0 min 0,000 mm 0,0 UV-I 10 W/m 16,0 C 18,4 C 11,3 km/h (2 Bft) 93,18 %
16.08.2017 06:06 18,6 C 22,8 C 85 % 1019,4 hPa 0,0 l/m 7,2 km/h (2 Bft) W 265 0 min 0,000 mm 0,0 UV-I 12 W/m 16,0 C 18,2 C 12,9 km/h (3 Bft) 97,37 %
16.08.2017 06:08 18,6 C 22,8 C 85 % 1019,4 hPa 0,0 l/m 10,5 km/h (2 Bft) W 269 0 min 0,000 mm 0,0 UV-I 12 W/m 16,0 C 16,9 C 16,1 km/h (3 Bft) 96,43 %
16.08.2017 06:10 18,6 C 22,8 C 85 % 1019,4 hPa 0,0 l/m 7,4 km/h (2 Bft) W-SW 237 0 min 0,000 mm 0,0 UV-I 14 W/m 16,0 C 18,1 C 11,3 km/h (2 Bft) 95,12 %
16.08.2017 06:12 18,6 C 22,8 C 85 % 1019,5 hPa 0,0 l/m 7,1 km/h (2 Bft) W-SW 246 2 min 0,000 mm 0,0 UV-I 16 W/m 16,0 C 18,3 C 12,9 km/h (3 Bft) 97,87 %
16.08.2017 06:14 18,5 C 22,8 C 85 % 1019,5 hPa 0,0 l/m 8,2 km/h (2 Bft) SW 232 2 min 0,000 mm 0,0 UV-I 19 W/m 15,9 C 17,7 C 14,5 km/h (3 Bft) 97,78 %
16.08.2017 06:16 18,5 C 22,8 C 85 % 1019,5 hPa 0,0 l/m 5,2 km/h (1 Bft) SW 221 2 min 0,000 mm 0,0 UV-I 21 W/m 15,9 C 18,5 C 8,0 km/h (2 Bft) 98,08 %
16.08.2017 06:18 18,5 C 22,8 C 85 % 1019,5 hPa 0,0 l/m 5,5 km/h (1 Bft) W 273 2 min 0,000 mm 0,0 UV-I 23 W/m 15,9 C 18,5 C 8,0 km/h (2 Bft) 98,11 %
16.08.2017 06:20 18,4 C 22,8 C 85 % 1019,4 hPa 0,0 l/m 5,9 km/h (2 Bft) SW 222 2 min 0,000 mm 0,0 UV-I 26 W/m 15,8 C 18,4 C 9,7 km/h (2 Bft) 97,62 %
16.08.2017 06:22 18,4 C 22,8 C 85 % 1019,4 hPa 0,0 l/m 4,6 km/h (1 Bft) W 279 2 min 0,000 mm 0,0 UV-I 27 W/m 15,8 C 18,4 C 6,4 km/h (2 Bft) 98,00 %
16.08.2017 06:24 18,4 C 22,8 C 85 % 1019,5 hPa 0,0 l/m 5,8 km/h (2 Bft) W-SW 252 0 min 0,000 mm 0,0 UV-I 27 W/m 15,8 C 18,4 C 6,4 km/h (2 Bft) 95,74 %
16.08.2017 06:26 18,4 C 22,8 C 85 % 1019,4 hPa 0,0 l/m 6,0 km/h (2 Bft) SW 232 0 min 0,000 mm 0,0 UV-I 28 W/m 15,8 C 18,4 C 9,7 km/h (2 Bft) 97,87 %
16.08.2017 06:28 18,4 C 22,8 C 85 % 1019,4 hPa 0,0 l/m 5,9 km/h (2 Bft) SW 225 0 min 0,000 mm 0,0 UV-I 31 W/m 15,8 C 18,4 C 8,0 km/h (2 Bft) 97,37 %
16.08.2017 06:30 18,3 C 22,8 C 85 % 1019,4 hPa 0,0 l/m 9,4 km/h (2 Bft) W-SW 239 0 min 0,000 mm 0,0 UV-I 34 W/m 15,7 C 17,0 C 14,5 km/h (3 Bft) 96,43 %
16.08.2017 06:32 18,3 C 22,8 C 85 % 1019,4 hPa 0,0 l/m 8,2 km/h (2 Bft) W-SW 252 0 min 0,000 mm 0,0 UV-I 37 W/m 15,7 C 17,5 C 12,9 km/h (3 Bft) 100,00 %
16.08.2017 06:34 18,3 C 22,8 C 85 % 1019,5 hPa 0,0 l/m 7,3 km/h (2 Bft) W-SW 257 0 min 0,000 mm 0,0 UV-I 41 W/m 15,7 C 17,9 C 11,3 km/h (2 Bft) 100,00 %
16.08.2017 06:36 18,4 C 22,8 C 85 % 1019,4 hPa 0,0 l/m 8,5 km/h (2 Bft) W-SW 254 0 min 0,000 mm 0,0 UV-I 46 W/m 15,8 C 17,5 C 12,9 km/h (3 Bft) 97,87 %
16.08.2017 06:38 18,4 C 22,8 C 85 % 1019,5 hPa 0,0 l/m 7,1 km/h (2 Bft) W-SW 250 2 min 0,000 mm 0,0 UV-I 51 W/m 15,8 C 18,1 C 11,3 km/h (2 Bft) 98,00 %
16.08.2017 06:40 18,4 C 22,8 C 85 % 1019,5 hPa 0,0 l/m 9,0 km/h (2 Bft) W-SW 249 2 min 0,000 mm 0,0 UV-I 55 W/m 15,8 C 17,3 C 12,9 km/h (3 Bft) 98,00 %
16.08.2017 06:42 18,4 C 22,8 C 85 % 1019,5 hPa 0,0 l/m 9,5 km/h (2 Bft) W-SW 251 2 min 0,000 mm 0,0 UV-I 61 W/m 15,8 C 17,1 C 14,5 km/h (3 Bft) 100,00 %
16.08.2017 06:44 18,5 C 22,8 C 85 % 1019,4 hPa 0,0 l/m 9,6 km/h (2 Bft) W-SW 238 2 min 0,000 mm 0,0 UV-I 65 W/m 15,9 C 17,1 C 16,1 km/h (3 Bft) 100,00 %
16.08.2017 06:46 18,5 C 22,8 C 85 % 1019,5 hPa 0,0 l/m 9,5 km/h (2 Bft) W 260 2 min 0,000 mm 0,0 UV-I 72 W/m 15,9 C 17,2 C 14,5 km/h (3 Bft) 100,00 %
16.08.2017 06:48 18,6 C 22,8 C 85 % 1019,5 hPa 0,0 l/m 9,0 km/h (2 Bft) W-SW 248 2 min 0,000 mm 0,0 UV-I 74 W/m 16,0 C 17,5 C 14,5 km/h (3 Bft) 100,00 %
16.08.2017 06:50 18,6 C 22,8 C 84 % 1019,4 hPa 0,0 l/m 10,7 km/h (2 Bft) W-SW 242 2 min 0,000 mm 0,0 UV-I 70 W/m 15,8 C 16,8 C 16,1 km/h (3 Bft) 100,00 %
16.08.2017 06:52 18,6 C 22,8 C 85 % 1019,4 hPa 0,0 l/m 13,0 km/h (3 Bft) SW 223 0 min 0,000 mm 0,0 UV-I 70 W/m 16,0 C 16,1 C 16,1 km/h (3 Bft) 95,83 %
16.08.2017 06:54 18,6 C 22,8 C 84 % 1019,5 hPa 0,0 l/m 8,5 km/h (2 Bft) W-SW 247 0 min 0,000 mm 0,0 UV-I 73 W/m 15,8 C 17,7 C 12,9 km/h (3 Bft) 97,01 %
16.08.2017 06:56 18,6 C 22,8 C 84 % 1019,5 hPa 0,0 l/m 9,3 km/h (2 Bft) W-SW 245 2 min 0,000 mm 0,0 UV-I 82 W/m 15,8 C 17,4 C 12,9 km/h (3 Bft) 100,00 %
16.08.2017 06:58 18,6 C 22,8 C 84 % 1019,5 hPa 0,0 l/m 7,6 km/h (2 Bft) SW 236 2 min 0,000 mm 0,0 UV-I 89 W/m 15,8 C 18,1 C 16,1 km/h (3 Bft) 100,00 %
16.08.2017 07:00 18,7 C 22,8 C 84 % 1019,5 hPa 0,0 l/m 8,4 km/h (2 Bft) SW 225 2 min 0,051 mm 0,0 UV-I 84 W/m 15,9 C 17,8 C 12,9 km/h (3 Bft) 100,00 %
16.08.2017 07:02 18,7 C 22,8 C 85 % 1019,5 hPa 0,0 l/m 7,5 km/h (2 Bft) W-SW 243 0 min 0,000 mm 0,0 UV-I 86 W/m 16,1 C 18,2 C 12,9 km/h (3 Bft) 100,00 %
16.08.2017 07:04 18,7 C 22,8 C 85 % 1019,6 hPa 0,0 l/m 8,0 km/h (2 Bft) SW 231 0 min 0,000 mm 0,0 UV-I 85 W/m 16,1 C 18,0 C 12,9 km/h (3 Bft) 98,11 %
16.08.2017 07:06 18,7 C 22,8 C 85 % 1019,6 hPa 0,0 l/m 8,4 km/h (2 Bft) W-SW 238 0 min 0,000 mm 0,0 UV-I 88 W/m 16,1 C 17,8 C 12,9 km/h (3 Bft) 100,00 %
16.08.2017 07:08 18,7 C 22,8 C 85 % 1019,6 hPa 0,0 l/m 7,5 km/h (2 Bft) SW 233 0 min 0,000 mm 0,0 UV-I 91 W/m 16,1 C 18,2 C 11,3 km/h (2 Bft) 100,00 %
16.08.2017 07:10 18,7 C 22,8 C 84 % 1019,6 hPa 0,0 l/m 7,6 km/h (2 Bft) SW 232 0 min 0,000 mm 0,0 UV-I 96 W/m 15,9 C 18,2 C 11,3 km/h (2 Bft) 100,00 %
16.08.2017 07:12 18,7 C 22,8 C 84 % 1019,7 hPa 0,0 l/m 8,6 km/h (2 Bft) SW 214 0 min 0,000 mm 0,0 UV-I 100 W/m 15,9 C 17,7 C 12,9 km/h (3 Bft) 100,00 %
16.08.2017 07:14 18,7 C 22,8 C 84 % 1019,7 hPa 0,0 l/m 10,9 km/h (2 Bft) SW 225 2 min 0,000 mm 0,0 UV-I 112 W/m 15,9 C 16,9 C 16,1 km/h (3 Bft) 100,00 %
16.08.2017 07:16 18,7 C 22,8 C 84 % 1019,8 hPa 0,0 l/m 7,6 km/h (2 Bft) W-SW 253 2 min 0,000 mm 0,0 UV-I 117 W/m 15,9 C 18,2 C 11,3 km/h (2 Bft) 100,00 %
16.08.2017 07:18 18,8 C 22,8 C 84 % 1019,8 hPa 0,0 l/m 8,3 km/h (2 Bft) SW 234 0 min 0,000 mm 0,0 UV-I 111 W/m 16,0 C 18,0 C 14,5 km/h (3 Bft) 100,00 %
16.08.2017 07:20 18,8 C 22,8 C 85 % 1019,8 hPa 0,0 l/m 7,0 km/h (2 Bft) SW 232 0 min 0,000 mm 0,0 UV-I 113 W/m 16,2 C 18,5 C 9,7 km/h (2 Bft) 100,00 %
16.08.2017 07:22 18,8 C 22,8 C 84 % 1019,8 hPa 0,0 l/m 7,4 km/h (2 Bft) W-SW 243 0 min 0,000 mm 0,0 UV-I 114 W/m 16,0 C 18,4 C 12,9 km/h (3 Bft) 100,00 %
16.08.2017 07:24 18,8 C 22,8 C 84 % 1019,9 hPa 0,0 l/m 8,1 km/h (2 Bft) W-SW 254 0 min 0,000 mm 0,0 UV-I 117 W/m 16,0 C 18,0 C 12,9 km/h (3 Bft) 100,00 %
16.08.2017 07:26 18,8 C 22,8 C 84 % 1019,9 hPa 0,0 l/m 9,6 km/h (2 Bft) W 262 0 min 0,000 mm 0,0 UV-I 120 W/m 16,0 C 17,5 C 14,5 km/h (3 Bft) 100,00 %
16.08.2017 07:28 18,9 C 22,8 C 84 % 1020,0 hPa 0,0 l/m 11,3 km/h (2 Bft) SW 234 0 min 0,000 mm 0,0 UV-I 126 W/m 16,1 C 17,0 C 16,1 km/h (3 Bft) 100,00 %
16.08.2017 07:30 18,9 C 22,8 C 84 % 1019,9 hPa 0,0 l/m 9,3 km/h (2 Bft) SW 225 2 min 0,000 mm 0,0 UV-I 138 W/m 16,1 C 17,7 C 16,1 km/h (3 Bft) 100,00 %
16.08.2017 07:32 19,0 C 22,8 C 83 % 1019,9 hPa 0,0 l/m 8,3 km/h (2 Bft) SW 234 2 min 0,000 mm 0,0 UV-I 149 W/m 16,0 C 18,2 C 12,9 km/h (3 Bft) 100,00 %
16.08.2017 07:34 19,1 C 22,8 C 83 % 1019,9 hPa 0,0 l/m 9,4 km/h (2 Bft) W-SW 253 2 min 0,000 mm 0,0 UV-I 158 W/m 16,1 C 17,9 C 14,5 km/h (3 Bft) 100,00 %
16.08.2017 07:36 19,1 C 22,8 C 83 % 1020,0 hPa 0,0 l/m 9,2 km/h (2 Bft) W-SW 253 2 min 0,000 mm 0,0 UV-I 155 W/m 16,1 C 17,9 C 14,5 km/h (3 Bft) 100,00 %
16.08.2017 07:38 19,1 C 22,8 C 83 % 1020,0 hPa 0,0 l/m 8,3 km/h (2 Bft) W 261 0 min 0,000 mm 0,0 UV-I 138 W/m 16,1 C 18,3 C 12,9 km/h (3 Bft) 100,00 %
16.08.2017 07:40 19,2 C 22,8 C 83 % 1020,0 hPa 0,0 l/m 9,8 km/h (2 Bft) W-SW 246 0 min 0,000 mm 0,0 UV-I 116 W/m 16,2 C 17,8 C 14,5 km/h (3 Bft) 100,00 %
16.08.2017 07:42 19,2 C 22,8 C 83 % 1020,0 hPa 0,0 l/m 9,5 km/h (2 Bft) W-SW 240 0 min 0,000 mm 0,0 UV-I 107 W/m 16,2 C 17,9 C 14,5 km/h (3 Bft) 100,00 %
16.08.2017 07:44 19,2 C 22,8 C 83 % 1020,0 hPa 0,0 l/m 9,9 km/h (2 Bft) W 266 0 min 0,000 mm 0,0 UV-I 112 W/m 16,2 C 17,8 C 14,5 km/h (3 Bft) 100,00 %
16.08.2017 07:46 19,1 C 22,8 C 83 % 1020,0 hPa 0,0 l/m 9,2 km/h (2 Bft) W-SW 254 0 min 0,000 mm 0,0 UV-I 116 W/m 16,1 C 17,9 C 16,1 km/h (3 Bft) 100,00 %
16.08.2017 07:48 19,2 C 22,8 C 83 % 1020,0 hPa 0,0 l/m 7,0 km/h (2 Bft) W-SW 246 0 min 0,000 mm 0,0 UV-I 112 W/m 16,2 C 18,9 C 11,3 km/h (2 Bft) 100,00 %
16.08.2017 07:50 19,2 C 22,8 C 83 % 1020,2 hPa 0,0 l/m 8,1 km/h (2 Bft) W 262 0 min 0,000 mm 0,0 UV-I 101 W/m 16,2 C 18,5 C 12,9 km/h (3 Bft) 100,00 %
16.08.2017 07:52 19,2 C 22,8 C 83 % 1020,3 hPa 0,0 l/m 7,1 km/h (2 Bft) W-SW 244 0 min 0,000 mm 0,0 UV-I 91 W/m 16,2 C 18,9 C 12,9 km/h (3 Bft) 100,00 %
16.08.2017 07:54 19,2 C 22,8 C 83 % 1020,3 hPa 0,0 l/m 5,4 km/h (1 Bft) W-SW 241 0 min 0,000 mm 0,0 UV-I 88 W/m 16,2 C 19,2 C 9,7 km/h (2 Bft) 100,00 %
16.08.2017 07:56 19,2 C 22,8 C 83 % 1020,3 hPa 0,0 l/m 6,7 km/h (2 Bft) W-SW 244 0 min 0,000 mm 0,0 UV-I 90 W/m 16,2 C 19,1 C 11,3 km/h (2 Bft) 97,87 %
16.08.2017 07:58 19,2 C 22,8 C 82 % 1020,3 hPa 0,0 l/m 11,5 km/h (2 Bft) W 267 0 min 0,000 mm 0,0 UV-I 95 W/m 16,0 C 17,3 C 16,1 km/h (3 Bft) 97,37 %
16.08.2017 08:00 19,2 C 22,8 C 82 % 1020,3 hPa 0,0 l/m 10,9 km/h (2 Bft) W 263 0 min 0,000 mm 0,0 UV-I 97 W/m 16,0 C 17,5 C 14,5 km/h (3 Bft) 98,11 %
16.08.2017 08:03 19,2 C 22,8 C 82 % 1020,3 hPa 0,0 l/m 10,8 km/h (2 Bft) W-SW 250 0 min 0,076 mm 0,0 UV-I 101 W/m 16,0 C 17,5 C 17,7 km/h (3 Bft) 97,18 %
16.08.2017 08:04 19,2 C 22,8 C 82 % 1020,3 hPa 0,0 l/m 9,5 km/h (2 Bft) W-SW 248 0 min 0,000 mm 0,0 UV-I 108 W/m 16,0 C 17,9 C 12,9 km/h (3 Bft) 100,00 %
16.08.2017 08:06 19,2 C 22,8 C 82 % 1020,3 hPa 0,0 l/m 6,4 km/h (2 Bft) W-SW 254 0 min 0,000 mm 0,0 UV-I 112 W/m 16,0 C 19,2 C 11,3 km/h (2 Bft) 97,37 %
16.08.2017 08:08 19,2 C 22,8 C 82 % 1020,3 hPa 0,0 l/m 11,7 km/h (2 Bft) W 261 0 min 0,000 mm 0,0 UV-I 114 W/m 16,0 C 17,2 C 19,3 km/h (3 Bft) 98,11 %
16.08.2017 08:10 19,2 C 22,8 C 81 % 1020,3 hPa 0,0 l/m 9,0 km/h (2 Bft) W-NW 297 0 min 0,000 mm 0,0 UV-I 114 W/m 15,9 C 18,1 C 16,1 km/h (3 Bft) 96,23 %
16.08.2017 08:12 19,2 C 22,8 C 81 % 1020,3 hPa 0,0 l/m 10,2 km/h (2 Bft) W-SW 256 0 min 0,000 mm 0,0 UV-I 115 W/m 15,9 C 17,7 C 20,9 km/h (4 Bft) 100,00 %
16.08.2017 08:14 19,2 C 22,8 C 81 % 1020,3 hPa 0,0 l/m 10,2 km/h (2 Bft) W-SW 240 0 min 0,000 mm 0,0 UV-I 119 W/m 15,9 C 17,7 C 14,5 km/h (3 Bft) 96,23 %
16.08.2017 08:16 19,2 C 22,8 C 81 % 1020,3 hPa 0,0 l/m 8,9 km/h (2 Bft) W-SW 240 0 min 0,000 mm 0,0 UV-I 120 W/m 15,9 C 18,2 C 16,1 km/h (3 Bft) 98,21 %
16.08.2017 08:18 19,2 C 22,8 C 81 % 1020,3 hPa 0,0 l/m 11,0 km/h (2 Bft) S-SW 213 0 min 0,000 mm 0,0 UV-I 115 W/m 15,9 C 17,4 C 20,9 km/h (4 Bft) 98,00 %
16.08.2017 08:20 19,2 C 22,8 C 81 % 1020,3 hPa 0,0 l/m 6,9 km/h (2 Bft) W-SW 239 0 min 0,000 mm 0,0 UV-I 104 W/m 15,9 C 19,0 C 14,5 km/h (3 Bft) 97,56 %
16.08.2017 08:22 19,2 C 22,8 C 81 % 1020,3 hPa 0,0 l/m 9,0 km/h (2 Bft) W-SW 252 0 min 0,000 mm 0,0 UV-I 89 W/m 15,9 C 18,1 C 16,1 km/h (3 Bft) 95,45 %
16.08.2017 08:24 19,2 C 22,8 C 82 % 1020,4 hPa 0,0 l/m 5,9 km/h (2 Bft) W-NW 288 0 min 0,000 mm 0,0 UV-I 74 W/m 16,0 C 19,2 C 12,9 km/h (3 Bft) 98,11 %
16.08.2017 08:26 19,2 C 22,8 C 82 % 1020,4 hPa 0,0 l/m 7,7 km/h (2 Bft) W-SW 255 0 min 0,000 mm 0,0 UV-I 65 W/m 16,0 C 18,6 C 12,9 km/h (3 Bft) 96,00 %
16.08.2017 08:28 19,1 C 22,8 C 83 % 1020,4 hPa 0,0 l/m 4,6 km/h (1 Bft) S-SW 212 0 min 0,000 mm 0,0 UV-I 57 W/m 16,1 C 19,1 C 9,7 km/h (2 Bft) 100,00 %
16.08.2017 08:30 19,0 C 22,8 C 84 % 1020,5 hPa 0,0 l/m 6,6 km/h (2 Bft) W-SW 257 0 min 0,000 mm 0,0 UV-I 51 W/m 16,2 C 18,9 C 12,9 km/h (3 Bft) 97,56 %
16.08.2017 08:32 18,9 C 22,8 C 84 % 1020,5 hPa 0,2 l/m 6,2 km/h (2 Bft) W 270 0 min 0,000 mm 0,0 UV-I 48 W/m 16,1 C 18,9 C 11,3 km/h (2 Bft) 96,77 %
16.08.2017 08:34 18,8 C 22,8 C 85 % 1020,4 hPa 0,2 l/m 3,2 km/h (1 Bft) W 269 0 min 0,000 mm 0,0 UV-I 48 W/m 16,2 C 18,8 C 6,4 km/h (2 Bft) 100,00 %
16.08.2017 08:36 18,7 C 22,8 C 86 % 1020,5 hPa 0,2 l/m 2,7 km/h (1 Bft) W 262 0 min 0,000 mm 0,0 UV-I 51 W/m 16,3 C 18,7 C 4,8 km/h (1 Bft) 97,87 %
16.08.2017 08:38 18,5 C 22,8 C 86 % 1020,4 hPa 0,0 l/m 2,2 km/h (1 Bft) W-SW 239 0 min 0,000 mm 0,0 UV-I 53 W/m 16,1 C 18,5 C 6,4 km/h (2 Bft) 97,87 %
16.08.2017 08:40 18,4 C 22,8 C 87 % 1020,4 hPa 0,0 l/m 0,4 km/h (0 Bft) W-SW 239 0 min 0,000 mm 0,0 UV-I 54 W/m 16,2 C 18,4 C 1,6 km/h (1 Bft) 94,00 %
16.08.2017 08:43 18,2 C 22,8 C 88 % 1020,5 hPa 0,2 l/m 5,0 km/h (1 Bft) SW 219 0 min 0,000 mm 0,0 UV-I 56 W/m 16,2 C 18,2 C 12,9 km/h (3 Bft) 97,30 %
16.08.2017 08:44 18,2 C 22,8 C 89 % 1020,5 hPa 0,2 l/m 4,7 km/h (1 Bft) W-SW 242 0 min 0,000 mm 0,0 UV-I 59 W/m 16,4 C 18,2 C 8,0 km/h (2 Bft) 100,00 %
16.08.2017 08:46 18,1 C 22,8 C 89 % 1020,5 hPa 0,0 l/m 4,2 km/h (1 Bft) W-SW 254 0 min 0,000 mm 0,0 UV-I 62 W/m 16,3 C 18,1 C 6,4 km/h (2 Bft) 96,00 %
16.08.2017 08:48 17,9 C 22,8 C 89 % 1020,5 hPa 0,2 l/m 5,8 km/h (2 Bft) W-SW 246 0 min 0,000 mm 0,0 UV-I 64 W/m 16,1 C 17,9 C 11,3 km/h (2 Bft) 97,22 %
16.08.2017 08:50 17,8 C 22,8 C 90 % 1020,6 hPa 0,2 l/m 6,2 km/h (2 Bft) W 268 0 min 0,000 mm 0,0 UV-I 66 W/m 16,1 C 17,8 C 8,0 km/h (2 Bft) 98,36 %
16.08.2017 08:52 17,8 C 22,8 C 90 % 1020,6 hPa 0,0 l/m 4,2 km/h (1 Bft) W-SW 257 0 min 0,000 mm 0,0 UV-I 72 W/m 16,1 C 17,8 C 8,0 km/h (2 Bft) 97,22 %
16.08.2017 08:54 17,7 C 22,8 C 90 % 1020,5 hPa 0,0 l/m 4,7 km/h (1 Bft) SW 218 0 min 0,000 mm 0,0 UV-I 77 W/m 16,0 C 17,7 C 6,4 km/h (2 Bft) 96,23 %
16.08.2017 08:56 17,7 C 22,8 C 91 % 1020,5 hPa 0,0 l/m 4,0 km/h (1 Bft) W-SW 242 0 min 0,000 mm 0,0 UV-I 82 W/m 16,2 C 17,7 C 8,0 km/h (2 Bft) 97,87 %
16.08.2017 08:58 17,6 C 22,8 C 92 % 1020,6 hPa 0,0 l/m 3,5 km/h (1 Bft) W-SW 241 0 min 0,000 mm 0,0 UV-I 78 W/m 16,3 C 17,6 C 4,8 km/h (1 Bft) 96,23 %
16.08.2017 09:00 17,6 C 22,8 C 92 % 1020,6 hPa 0,2 l/m 2,5 km/h (1 Bft) W-SW 241 0 min 0,051 mm 0,0 UV-I 70 W/m 16,3 C 17,6 C 4,8 km/h (1 Bft) 97,56 %
16.08.2017 09:02 17,6 C 22,8 C 92 % 1020,6 hPa 0,0 l/m 3,4 km/h (1 Bft) W-SW 241 0 min 0,000 mm 0,0 UV-I 67 W/m 16,3 C 17,6 C 4,8 km/h (1 Bft) 98,04 %
16.08.2017 09:04 17,6 C 22,8 C 92 % 1020,6 hPa 0,0 l/m 2,4 km/h (1 Bft) W-SW 241 0 min 0,000 mm 0,0 UV-I 67 W/m 16,3 C 17,6 C 4,8 km/h (1 Bft) 95,74 %
16.08.2017 09:06 17,6 C 22,8 C 92 % 1020,6 hPa 0,0 l/m 2,9 km/h (1 Bft) W-SW 241 0 min 0,000 mm 0,0 UV-I 68 W/m 16,3 C 17,6 C 4,8 km/h (1 Bft) 95,45 %
16.08.2017 09:08 17,6 C 22,8 C 92 % 1020,6 hPa 0,0 l/m 1,2 km/h (1 Bft) W-SW 241 0 min 0,000 mm 0,0 UV-I 69 W/m 16,3 C 17,6 C 4,8 km/h (1 Bft) 97,87 %
16.08.2017 09:10 17,6 C 22,8 C 92 % 1020,5 hPa 0,0 l/m 0,0 km/h (0 Bft) W-SW 241 0 min 0,000 mm 0,0 UV-I 69 W/m 16,3 C 17,6 C 1,6 km/h (1 Bft) 97,87 %
16.08.2017 09:12 17,6 C 22,8 C 92 % 1020,6 hPa 0,0 l/m 0,0 km/h (0 Bft) W-SW 241 0 min 0,000 mm 0,0 UV-I 70 W/m 16,3 C 17,6 C 0,0 km/h (0 Bft) 98,04 %
16.08.2017 09:14 17,5 C 22,8 C 93 % 1020,7 hPa 0,0 l/m 0,0 km/h (0 Bft) W-SW 241 0 min 0,000 mm 0,0 UV-I 73 W/m 16,4 C 17,5 C 0,0 km/h (0 Bft) 95,74 %
16.08.2017 09:16 17,6 C 22,8 C 93 % 1020,6 hPa 0,0 l/m 0,4 km/h (0 Bft) W-SW 241 0 min 0,000 mm 0,0 UV-I 75 W/m 16,5 C 17,6 C 3,2 km/h (1 Bft) 100,00 %
16.08.2017 09:18 17,5 C 22,8 C 93 % 1020,7 hPa 0,0 l/m 1,5 km/h (1 Bft) W-SW 241 0 min 0,000 mm 0,0 UV-I 78 W/m 16,4 C 17,5 C 3,2 km/h (1 Bft) 95,74 %
16.08.2017 09:20 17,6 C 22,8 C 93 % 1020,8 hPa 0,0 l/m 1,6 km/h (1 Bft) W-SW 241 0 min 0,000 mm 0,0 UV-I 85 W/m 16,5 C 17,6 C 3,2 km/h (1 Bft) 98,00 %
16.08.2017 09:22 17,6 C 22,8 C 93 % 1020,8 hPa 0,0 l/m 1,5 km/h (1 Bft) W-SW 241 0 min 0,000 mm 0,5 UV-I 92 W/m 16,5 C 17,6 C 3,2 km/h (1 Bft) 98,04 %
16.08.2017 09:24 17,7 C 22,8 C 93 % 1020,7 hPa 0,0 l/m 1,5 km/h (1 Bft) W-SW 241 0 min 0,000 mm 0,5 UV-I 110 W/m 16,6 C 17,7 C 3,2 km/h (1 Bft) 97,87 %
16.08.2017 09:26 17,7 C 22,8 C 93 % 1020,8 hPa 0,0 l/m 2,2 km/h (1 Bft) W-SW 241 0 min 0,000 mm 0,7 UV-I 131 W/m 16,6 C 17,7 C 3,2 km/h (1 Bft) 97,56 %
16.08.2017 09:28 17,7 C 22,8 C 93 % 1020,7 hPa 0,0 l/m 2,8 km/h (1 Bft) W-SW 241 0 min 0,000 mm 0,8 UV-I 146 W/m 16,6 C 17,7 C 6,4 km/h (2 Bft) 98,00 %
16.08.2017 09:30 17,7 C 22,8 C 93 % 1020,7 hPa 0,0 l/m 2,3 km/h (1 Bft) W-SW 241 0 min 0,000 mm 0,9 UV-I 173 W/m 16,6 C 17,7 C 4,8 km/h (1 Bft) 100,00 %
16.08.2017 09:32 17,8 C 22,8 C 93 % 1020,7 hPa 0,0 l/m 0,9 km/h (0 Bft) W-SW 241 0 min 0,000 mm 1,1 UV-I 199 W/m 16,7 C 17,8 C 3,2 km/h (1 Bft) 98,00 %
16.08.2017 09:34 17,8 C 22,8 C 93 % 1020,7 hPa 0,0 l/m 0,8 km/h (0 Bft) W-SW 241 0 min 0,000 mm 1,1 UV-I 214 W/m 16,7 C 17,8 C 1,6 km/h (1 Bft) 98,00 %
16.08.2017 09:36 17,9 C 22,8 C 94 % 1020,7 hPa 0,0 l/m 0,7 km/h (0 Bft) W-SW 241 0 min 0,000 mm 1,1 UV-I 220 W/m 16,9 C 17,9 C 3,2 km/h (1 Bft) 97,56 %
16.08.2017 09:38 17,9 C 22,8 C 93 % 1020,7 hPa 0,0 l/m 1,1 km/h (1 Bft) W-SW 241 0 min 0,000 mm 1,2 UV-I 219 W/m 16,8 C 17,9 C 3,2 km/h (1 Bft) 95,74 %
16.08.2017 09:40 18,0 C 22,8 C 93 % 1020,7 hPa 0,0 l/m 0,6 km/h (0 Bft) W-SW 241 0 min 0,000 mm 1,2 UV-I 222 W/m 16,8 C 18,0 C 3,2 km/h (1 Bft) 94,00 %
16.08.2017 09:42 18,1 C 22,8 C 92 % 1020,7 hPa 0,0 l/m 0,4 km/h (0 Bft) W-SW 241 0 min 0,000 mm 1,3 UV-I 298 W/m 16,8 C 18,1 C 1,6 km/h (1 Bft) 100,00 %
16.08.2017 09:44 18,1 C 22,8 C 92 % 1020,7 hPa 0,0 l/m 0,7 km/h (0 Bft) W-SW 241 0 min 0,000 mm 1,4 UV-I 294 W/m 16,8 C 18,1 C 3,2 km/h (1 Bft) 100,00 %
16.08.2017 09:46 18,2 C 22,8 C 92 % 1020,8 hPa 0,0 l/m 0,8 km/h (0 Bft) W-SW 241 0 min 0,000 mm 1,4 UV-I 251 W/m 16,9 C 18,2 C 3,2 km/h (1 Bft) 97,87 %
16.08.2017 09:48 18,2 C 22,8 C 91 % 1020,8 hPa 0,0 l/m 2,6 km/h (1 Bft) W-NW 290 0 min 0,000 mm 1,4 UV-I 263 W/m 16,7 C 18,2 C 4,8 km/h (1 Bft) 100,00 %
16.08.2017 09:50 18,3 C 22,8 C 91 % 1020,8 hPa 0,0 l/m 0,5 km/h (0 Bft) W-NW 290 0 min 0,000 mm 1,4 UV-I 274 W/m 16,8 C 18,3 C 3,2 km/h (1 Bft) 100,00 %
16.08.2017 09:52 18,4 C 22,8 C 91 % 1020,8 hPa 0,0 l/m 1,0 km/h (0 Bft) W-NW 290 0 min 0,000 mm 1,5 UV-I 310 W/m 16,9 C 18,4 C 3,2 km/h (1 Bft) 100,00 %
16.08.2017 09:54 18,4 C 22,8 C 91 % 1020,8 hPa 0,0 l/m 0,6 km/h (0 Bft) W-NW 290 2 min 0,000 mm 1,7 UV-I 366 W/m 16,9 C 18,4 C 3,2 km/h (1 Bft) 97,87 %
16.08.2017 09:56 18,5 C 22,8 C 90 % 1020,8 hPa 0,0 l/m 0,7 km/h (0 Bft) W-NW 290 2 min 0,000 mm 1,5 UV-I 427 W/m 16,8 C 18,5 C 3,2 km/h (1 Bft) 97,56 %
16.08.2017 09:58 18,6 C 22,8 C 91 % 1020,8 hPa 0,0 l/m 0,6 km/h (0 Bft) W-NW 292 0 min 0,000 mm 1,3 UV-I 231 W/m 17,1 C 18,6 C 3,2 km/h (1 Bft) 100,00 %
16.08.2017 10:00 18,7 C 22,8 C 91 % 1020,8 hPa 0,0 l/m 0,1 km/h (0 Bft) W-NW 292 0 min 0,101 mm 1,3 UV-I 221 W/m 17,2 C 18,7 C 1,6 km/h (1 Bft) 96,77 %
16.08.2017 10:02 18,6 C 22,8 C 90 % 1020,9 hPa 0,0 l/m 1,9 km/h (1 Bft) W-NW 292 0 min 0,000 mm 1,3 UV-I 220 W/m 16,9 C 18,6 C 4,8 km/h (1 Bft) 97,87 %
16.08.2017 10:04 18,6 C 22,8 C 90 % 1020,8 hPa 0,0 l/m 0,0 km/h (0 Bft) W-NW 292 0 min 0,000 mm 1,3 UV-I 224 W/m 16,9 C 18,6 C 0,0 km/h (0 Bft) 95,74 %
16.08.2017 10:06 18,6 C 22,8 C 90 % 1020,8 hPa 0,0 l/m 0,0 km/h (0 Bft) W-NW 292 0 min 0,000 mm 1,3 UV-I 231 W/m 16,9 C 18,6 C 0,0 km/h (0 Bft) 97,87 %
16.08.2017 10:08 18,6 C 22,8 C 90 % 1020,8 hPa 0,0 l/m 0,6 km/h (0 Bft) W-NW 292 0 min 0,000 mm 1,4 UV-I 239 W/m 16,9 C 18,6 C 1,6 km/h (1 Bft) 93,75 %
16.08.2017 10:10 18,7 C 22,8 C 90 % 1020,8 hPa 0,0 l/m 0,2 km/h (0 Bft) W-NW 292 0 min 0,000 mm 1,4 UV-I 251 W/m 17,0 C 18,7 C 1,6 km/h (1 Bft) 97,44 %
16.08.2017 10:12 18,7 C 22,8 C 91 % 1020,8 hPa 0,0 l/m 0,8 km/h (0 Bft) W-NW 292 0 min 0,000 mm 1,5 UV-I 263 W/m 17,2 C 18,7 C 3,2 km/h (1 Bft) 96,36 %
16.08.2017 10:14 18,8 C 22,8 C 90 % 1020,8 hPa 0,0 l/m 0,6 km/h (0 Bft) W-NW 292 0 min 0,000 mm 1,6 UV-I 274 W/m 17,1 C 18,8 C 3,2 km/h (1 Bft) 97,87 %
16.08.2017 10:16 18,9 C 22,8 C 91 % 1020,9 hPa 0,0 l/m 0,5 km/h (0 Bft) W-NW 292 0 min 0,000 mm 1,8 UV-I 281 W/m 17,4 C 18,9 C 3,2 km/h (1 Bft) 97,92 %
16.08.2017 10:18 18,9 C 22,8 C 89 % 1020,9 hPa 0,0 l/m 1,1 km/h (1 Bft) W-NW 292 0 min 0,000 mm 1,8 UV-I 283 W/m 17,0 C 18,9 C 3,2 km/h (1 Bft) 97,37 %
16.08.2017 10:20 18,8 C 22,8 C 88 % 1021,0 hPa 0,0 l/m 0,1 km/h (0 Bft) W-NW 292 0 min 0,000 mm 1,8 UV-I 294 W/m 16,8 C 18,8 C 1,6 km/h (1 Bft) 95,74 %
16.08.2017 10:22 18,8 C 22,8 C 89 % 1021,0 hPa 0,0 l/m 0,9 km/h (0 Bft) W-NW 292 0 min 0,000 mm 1,9 UV-I 316 W/m 16,9 C 18,8 C 3,2 km/h (1 Bft) 97,87 %
16.08.2017 10:24 19,0 C 22,8 C 90 % 1021,0 hPa 0,0 l/m 0,9 km/h (0 Bft) W-NW 292 0 min 0,000 mm 2,0 UV-I 337 W/m 17,3 C 19,0 C 3,2 km/h (1 Bft) 96,23 %
16.08.2017 10:26 19,0 C 22,8 C 88 % 1021,0 hPa 0,0 l/m 1,2 km/h (1 Bft) W-NW 292 0 min 0,000 mm 1,9 UV-I 327 W/m 17,0 C 19,0 C 4,8 km/h (1 Bft) 97,37 %
16.08.2017 10:28 19,1 C 22,8 C 88 % 1021,0 hPa 0,0 l/m 1,7 km/h (1 Bft) W-NW 292 0 min 0,000 mm 1,8 UV-I 299 W/m 17,1 C 19,1 C 4,8 km/h (1 Bft) 98,00 %
16.08.2017 10:30 19,1 C 22,8 C 89 % 1021,0 hPa 0,0 l/m 1,2 km/h (1 Bft) W-NW 292 0 min 0,000 mm 1,7 UV-I 269 W/m 17,2 C 19,1 C 3,2 km/h (1 Bft) 100,00 %
16.08.2017 10:32 19,2 C 22,8 C 89 % 1021,1 hPa 0,0 l/m 1,0 km/h (0 Bft) W-NW 292 0 min 0,000 mm 1,7 UV-I 259 W/m 17,3 C 19,2 C 4,8 km/h (1 Bft) 100,00 %
16.08.2017 10:34 19,1 C 22,8 C 88 % 1021,0 hPa 0,0 l/m 1,5 km/h (1 Bft) W-NW 292 0 min 0,000 mm 1,7 UV-I 252 W/m 17,1 C 19,1 C 4,8 km/h (1 Bft) 100,00 %
16.08.2017 10:36 19,0 C 22,8 C 88 % 1021,0 hPa 0,0 l/m 1,6 km/h (1 Bft) W-NW 292 0 min 0,000 mm 1,7 UV-I 248 W/m 17,0 C 19,0 C 3,2 km/h (1 Bft) 100,00 %
16.08.2017 10:38 18,9 C 22,8 C 88 % 1021,0 hPa 0,0 l/m 1,1 km/h (1 Bft) W-NW 292 0 min 0,000 mm 1,8 UV-I 251 W/m 16,9 C 18,9 C 3,2 km/h (1 Bft) 97,73 %
16.08.2017 10:40 19,0 C 22,8 C 89 % 1021,0 hPa 0,0 l/m 0,4 km/h (0 Bft) W-NW 292 0 min 0,000 mm 1,9 UV-I 254 W/m 17,1 C 19,0 C 3,2 km/h (1 Bft) 98,00 %
16.08.2017 10:42 19,0 C 22,8 C 89 % 1021,0 hPa 0,0 l/m 0,4 km/h (0 Bft) W-NW 292 0 min 0,000 mm 2,0 UV-I 257 W/m 17,1 C 19,0 C 1,6 km/h (1 Bft) 100,00 %
16.08.2017 10:44 19,1 C 22,8 C 89 % 1021,1 hPa 0,0 l/m 0,4 km/h (0 Bft) W-NW 292 0 min 0,000 mm 2,0 UV-I 263 W/m 17,2 C 19,1 C 3,2 km/h (1 Bft) 100,00 %
16.08.2017 10:46 19,2 C 22,8 C 89 % 1021,0 hPa 0,0 l/m 0,5 km/h (0 Bft) W-NW 292 0 min 0,000 mm 2,1 UV-I 279 W/m 17,3 C 19,2 C 1,6 km/h (1 Bft) 100,00 %
16.08.2017 10:48 19,2 C 22,8 C 88 % 1021,0 hPa 0,0 l/m 0,7 km/h (0 Bft) W-NW 292 0 min 0,000 mm 2,2 UV-I 296 W/m 17,2 C 19,2 C 3,2 km/h (1 Bft) 98,00 %
16.08.2017 10:50 19,2 C 22,8 C 88 % 1021,1 hPa 0,0 l/m 0,2 km/h (0 Bft) W-NW 292 0 min 0,000 mm 2,2 UV-I 306 W/m 17,2 C 19,2 C 1,6 km/h (1 Bft) 100,00 %
16.08.2017 10:52 19,3 C 22,8 C 87 % 1021,1 hPa 0,0 l/m 0,5 km/h (0 Bft) W-NW 292 0 min 0,000 mm 2,3 UV-I 325 W/m 17,1 C 19,3 C 1,6 km/h (1 Bft) 100,00 %
16.08.2017 10:54 19,4 C 22,8 C 88 % 1021,0 hPa 0,0 l/m 1,2 km/h (1 Bft) W-NW 292 0 min 0,000 mm 2,4 UV-I 338 W/m 17,4 C 19,4 C 3,2 km/h (1 Bft) 100,00 %
16.08.2017 10:56 19,4 C 22,8 C 87 % 1021,0 hPa 0,0 l/m 0,1 km/h (0 Bft) W-NW 292 0 min 0,000 mm 2,3 UV-I 330 W/m 17,2 C 19,4 C 1,6 km/h (1 Bft) 95,74 %
16.08.2017 10:58 19,5 C 22,8 C 86 % 1021,1 hPa 0,0 l/m 2,5 km/h (1 Bft) W-NW 292 0 min 0,000 mm 2,3 UV-I 334 W/m 17,1 C 19,5 C 4,8 km/h (1 Bft) 100,00 %
16.08.2017 11:00 19,5 C 22,8 C 86 % 1021,1 hPa 0,0 l/m 1,2 km/h (1 Bft) W-NW 292 0 min 0,153 mm 2,4 UV-I 334 W/m 17,1 C 19,5 C 3,2 km/h (1 Bft) 97,87 %
16.08.2017 11:02 19,6 C 22,8 C 88 % 1021,0 hPa 0,0 l/m 0,3 km/h (0 Bft) W-NW 292 0 min 0,000 mm 2,6 UV-I 394 W/m 17,6 C 19,6 C 1,6 km/h (1 Bft) 100,00 %
16.08.2017 11:04 19,8 C 22,8 C 86 % 1021,0 hPa 0,0 l/m 0,9 km/h (0 Bft) W-NW 292 2 min 0,000 mm 3,2 UV-I 531 W/m 17,4 C 19,8 C 3,2 km/h (1 Bft) 98,11 %
16.08.2017 11:06 19,8 C 22,8 C 87 % 1021,0 hPa 0,0 l/m 1,6 km/h (1 Bft) W-NW 292 2 min 0,000 mm 2,9 UV-I 514 W/m 17,6 C 19,8 C 3,2 km/h (1 Bft) 100,00 %
16.08.2017 11:08 20,1 C 22,8 C 87 % 1021,0 hPa 0,0 l/m 1,2 km/h (1 Bft) W-NW 292 2 min 0,000 mm 3,3 UV-I 565 W/m 17,9 C 20,1 C 3,2 km/h (1 Bft) 100,00 %
16.08.2017 11:10 20,3 C 22,8 C 86 % 1020,9 hPa 0,0 l/m 2,1 km/h (1 Bft) W-NW 294 2 min 0,000 mm 3,6 UV-I 821 W/m 17,9 C 20,3 C 6,4 km/h (2 Bft) 98,11 %
16.08.2017 11:12 20,3 C 22,8 C 85 % 1020,9 hPa 0,0 l/m 3,9 km/h (1 Bft) W 267 2 min 0,000 mm 2,7 UV-I 615 W/m 17,7 C 20,3 C 6,4 km/h (2 Bft) 100,00 %
16.08.2017 11:14 20,3 C 22,8 C 84 % 1021,0 hPa 0,0 l/m 4,3 km/h (1 Bft) W 278 2 min 0,000 mm 2,8 UV-I 452 W/m 17,5 C 20,3 C 9,7 km/h (2 Bft) 100,00 %
16.08.2017 11:16 20,2 C 22,8 C 84 % 1020,9 hPa 0,0 l/m 1,0 km/h (0 Bft) W 277 0 min 0,000 mm 2,5 UV-I 399 W/m 17,4 C 20,2 C 3,2 km/h (1 Bft) 100,00 %
16.08.2017 11:18 20,3 C 22,8 C 85 % 1020,9 hPa 0,0 l/m 0,1 km/h (0 Bft) W 277 0 min 0,000 mm 2,4 UV-I 377 W/m 17,7 C 20,3 C 1,6 km/h (1 Bft) 100,00 %
16.08.2017 11:20 20,4 C 22,8 C 86 % 1020,9 hPa 0,0 l/m 3,0 km/h (1 Bft) W-SW 244 0 min 0,000 mm 2,4 UV-I 380 W/m 18,0 C 20,4 C 6,4 km/h (2 Bft) 100,00 %
16.08.2017 11:22 20,4 C 22,8 C 84 % 1020,9 hPa 0,0 l/m 2,0 km/h (1 Bft) W-SW 244 0 min 0,000 mm 2,4 UV-I 403 W/m 17,6 C 20,4 C 3,2 km/h (1 Bft) 100,00 %
16.08.2017 11:24 20,6 C 22,8 C 86 % 1020,9 hPa 0,0 l/m 1,4 km/h (1 Bft) W-SW 244 2 min 0,000 mm 2,6 UV-I 460 W/m 18,2 C 20,6 C 4,8 km/h (1 Bft) 97,56 %
16.08.2017 11:26 20,5 C 22,8 C 82 % 1020,8 hPa 0,0 l/m 1,9 km/h (1 Bft) W-SW 245 2 min 0,000 mm 3,1 UV-I 555 W/m 17,3 C 20,5 C 6,4 km/h (2 Bft) 100,00 %
16.08.2017 11:28 20,6 C 22,8 C 84 % 1020,8 hPa 0,0 l/m 1,1 km/h (1 Bft) NW 317 2 min 0,000 mm 3,1 UV-I 635 W/m 17,8 C 20,6 C 6,4 km/h (2 Bft) 100,00 %
16.08.2017 11:30 20,7 C 22,8 C 83 % 1020,8 hPa 0,0 l/m 3,0 km/h (1 Bft) W-NW 294 2 min 0,000 mm 2,9 UV-I 730 W/m 17,7 C 20,7 C 6,4 km/h (2 Bft) 97,44 %
16.08.2017 11:32 20,7 C 22,8 C 83 % 1020,8 hPa 0,0 l/m 3,1 km/h (1 Bft) W 271 2 min 0,000 mm 2,1 UV-I 528 W/m 17,7 C 20,7 C 6,4 km/h (2 Bft) 100,00 %
16.08.2017 11:34 20,7 C 22,8 C 83 % 1020,8 hPa 0,0 l/m 1,7 km/h (1 Bft) W 271 0 min 0,000 mm 2,5 UV-I 411 W/m 17,7 C 20,7 C 4,8 km/h (1 Bft) 97,87 %
16.08.2017 11:36 20,7 C 22,8 C 84 % 1020,8 hPa 0,0 l/m 2,7 km/h (1 Bft) W 269 2 min 0,000 mm 3,1 UV-I 474 W/m 17,9 C 20,7 C 6,4 km/h (2 Bft) 100,00 %
16.08.2017 11:38 20,7 C 22,8 C 85 % 1020,7 hPa 0,0 l/m 0,0 km/h (0 Bft) W 269 2 min 0,000 mm 3,7 UV-I 572 W/m 18,1 C 20,7 C 0,0 km/h (0 Bft) 100,00 %
16.08.2017 11:40 20,8 C 22,8 C 84 % 1020,6 hPa 0,0 l/m 1,5 km/h (1 Bft) W 275 2 min 0,000 mm 4,1 UV-I 696 W/m 18,0 C 20,8 C 4,8 km/h (1 Bft) 97,87 %
16.08.2017 11:42 20,8 C 22,8 C 84 % 1020,6 hPa 0,0 l/m 1,5 km/h (1 Bft) W 279 2 min 0,000 mm 4,3 UV-I 755 W/m 18,0 C 20,8 C 4,8 km/h (1 Bft) 100,00 %
16.08.2017 11:44 20,9 C 22,8 C 84 % 1020,6 hPa 0,0 l/m 1,1 km/h (1 Bft) N-NO 14 2 min 0,000 mm 4,4 UV-I 776 W/m 18,1 C 20,9 C 4,8 km/h (1 Bft) 100,00 %
16.08.2017 11:46 21,0 C 22,8 C 82 % 1020,6 hPa 0,0 l/m 2,8 km/h (1 Bft) O-NO 71 2 min 0,000 mm 4,3 UV-I 795 W/m 17,8 C 21,0 C 6,4 km/h (2 Bft) 95,74 %
16.08.2017 11:48 20,9 C 22,8 C 82 % 1020,6 hPa 0,0 l/m 3,3 km/h (1 Bft) O 82 2 min 0,000 mm 4,3 UV-I 730 W/m 17,7 C 20,9 C 6,4 km/h (2 Bft) 100,00 %
16.08.2017 11:50 20,9 C 22,8 C 83 % 1020,6 hPa 0,0 l/m 1,8 km/h (1 Bft) O-NO 69 2 min 0,000 mm 4,5 UV-I 754 W/m 17,9 C 20,9 C 4,8 km/h (1 Bft) 97,56 %
16.08.2017 11:52 21,3 C 22,8 C 84 % 1020,5 hPa 0,0 l/m 2,3 km/h (1 Bft) SW 217 2 min 0,000 mm 4,6 UV-I 838 W/m 18,5 C 21,3 C 6,4 km/h (2 Bft) 100,00 %
16.08.2017 11:54 21,4 C 22,8 C 83 % 1020,5 hPa 0,0 l/m 3,3 km/h (1 Bft) SW 229 2 min 0,000 mm 4,5 UV-I 805 W/m 18,4 C 21,4 C 9,7 km/h (2 Bft) 97,56 %
16.08.2017 11:56 21,7 C 22,8 C 82 % 1020,5 hPa 0,0 l/m 3,4 km/h (1 Bft) NW 324 2 min 0,000 mm 4,7 UV-I 687 W/m 18,5 C 21,7 C 8,0 km/h (2 Bft) 96,23 %
16.08.2017 11:58 21,8 C 22,8 C 81 % 1020,4 hPa 0,0 l/m 1,9 km/h (1 Bft) NW 314 2 min 0,000 mm 3,5 UV-I 507 W/m 18,4 C 21,8 C 4,8 km/h (1 Bft) 98,00 %
16.08.2017 12:00 21,9 C 22,8 C 83 % 1020,4 hPa 0,0 l/m 3,0 km/h (1 Bft) W-SW 246 0 min 0,330 mm 3,8 UV-I 419 W/m 18,9 C 21,9 C 9,7 km/h (2 Bft) 97,87 %
16.08.2017 12:02 21,9 C 22,8 C 78 % 1020,4 hPa 0,0 l/m 5,7 km/h (1 Bft) S-SW 213 0 min 0,000 mm 4,5 UV-I 433 W/m 17,9 C 21,9 C 14,5 km/h (3 Bft) 94,74 %
16.08.2017 12:04 21,9 C 22,8 C 76 % 1020,4 hPa 0,0 l/m 12,7 km/h (3 Bft) SW 229 2 min 0,000 mm 3,9 UV-I 698 W/m 17,5 C 20,1 C 17,7 km/h (3 Bft) 98,11 %
16.08.2017 12:06 21,9 C 22,8 C 77 % 1020,4 hPa 0,0 l/m 15,4 km/h (3 Bft) W-SW 251 2 min 0,000 mm 3,2 UV-I 440 W/m 17,7 C 19,5 C 20,9 km/h (4 Bft) 95,24 %
16.08.2017 12:08 21,8 C 22,8 C 77 % 1020,3 hPa 0,0 l/m 14,2 km/h (3 Bft) SW 236 0 min 0,000 mm 3,1 UV-I 352 W/m 17,6 C 19,6 C 20,9 km/h (4 Bft) 97,73 %
16.08.2017 12:10 21,8 C 22,8 C 76 % 1020,3 hPa 0,0 l/m 14,5 km/h (3 Bft) W 277 0 min 0,000 mm 2,9 UV-I 331 W/m 17,4 C 19,5 C 19,3 km/h (3 Bft) 95,12 %
16.08.2017 12:12 21,7 C 22,8 C 76 % 1020,4 hPa 0,0 l/m 10,2 km/h (2 Bft) SW 227 0 min 0,000 mm 3,5 UV-I 374 W/m 17,3 C 20,5 C 17,7 km/h (3 Bft) 98,11 %
16.08.2017 12:14 21,8 C 22,8 C 75 % 1020,4 hPa 0,0 l/m 12,3 km/h (3 Bft) S-SW 206 0 min 0,000 mm 3,3 UV-I 409 W/m 17,2 C 20,0 C 19,3 km/h (3 Bft) 95,74 %
16.08.2017 12:16 21,8 C 22,8 C 75 % 1020,4 hPa 0,0 l/m 15,1 km/h (3 Bft) W-SW 244 0 min 0,000 mm 3,2 UV-I 415 W/m 17,2 C 19,4 C 25,7 km/h (4 Bft) 97,87 %
16.08.2017 12:18 21,9 C 22,8 C 77 % 1020,3 hPa 0,0 l/m 8,0 km/h (2 Bft) W-SW 248 0 min 0,000 mm 3,2 UV-I 431 W/m 17,7 C 21,3 C 12,9 km/h (3 Bft) 97,73 %
16.08.2017 12:20 21,9 C 22,8 C 75 % 1020,4 hPa 0,0 l/m 11,5 km/h (2 Bft) W-SW 240 0 min 0,000 mm 3,1 UV-I 436 W/m 17,3 C 20,3 C 19,3 km/h (3 Bft) 98,31 %
16.08.2017 12:22 22,0 C 22,8 C 76 % 1020,4 hPa 0,0 l/m 12,5 km/h (3 Bft) W-SW 247 2 min 0,000 mm 3,3 UV-I 620 W/m 17,6 C 20,2 C 19,3 km/h (3 Bft) 95,12 %
16.08.2017 12:24 22,1 C 22,8 C 74 % 1020,5 hPa 0,0 l/m 12,3 km/h (3 Bft) SW 223 0 min 0,000 mm 2,2 UV-I 404 W/m 17,2 C 20,4 C 22,5 km/h (4 Bft) 96,00 %
16.08.2017 12:26 22,0 C 22,8 C 73 % 1020,3 hPa 0,0 l/m 13,5 km/h (3 Bft) W-SW 251 0 min 0,000 mm 2,2 UV-I 266 W/m 16,9 C 20,0 C 22,5 km/h (4 Bft) 97,87 %
16.08.2017 12:28 21,9 C 22,8 C 74 % 1020,4 hPa 0,0 l/m 14,3 km/h (3 Bft) W-SW 250 0 min 0,000 mm 3,2 UV-I 324 W/m 17,0 C 19,7 C 20,9 km/h (4 Bft) 100,00 %
16.08.2017 12:30 22,1 C 22,8 C 76 % 1020,5 hPa 0,0 l/m 13,2 km/h (3 Bft) W-SW 250 2 min 0,000 mm 4,7 UV-I 824 W/m 17,7 C 20,2 C 20,9 km/h (4 Bft) 100,00 %
16.08.2017 12:32 22,1 C 22,8 C 74 % 1020,5 hPa 0,0 l/m 18,7 km/h (3 Bft) W 271 2 min 0,000 mm 3,7 UV-I 650 W/m 17,2 C 19,1 C 29,0 km/h (5 Bft) 96,00 %
16.08.2017 12:34 22,1 C 22,8 C 74 % 1020,5 hPa 0,0 l/m 15,8 km/h (3 Bft) S-SW 209 0 min 0,000 mm 3,6 UV-I 440 W/m 17,2 C 19,6 C 29,0 km/h (5 Bft) 100,00 %
16.08.2017 12:36 22,1 C 22,8 C 73 % 1020,4 hPa 0,0 l/m 18,3 km/h (3 Bft) S-SW 200 0 min 0,000 mm 3,3 UV-I 412 W/m 17,0 C 19,2 C 25,7 km/h (4 Bft) 100,00 %
16.08.2017 12:38 22,1 C 22,8 C 73 % 1020,4 hPa 0,0 l/m 14,5 km/h (3 Bft) SW 231 0 min 0,000 mm 3,0 UV-I 381 W/m 17,0 C 19,9 C 20,9 km/h (4 Bft) 97,56 %
16.08.2017 12:40 22,1 C 22,8 C 73 % 1020,4 hPa 0,0 l/m 15,2 km/h (3 Bft) S-SW 208 0 min 0,000 mm 3,0 UV-I 374 W/m 17,0 C 19,8 C 20,9 km/h (4 Bft) 100,00 %
16.08.2017 12:42 22,0 C 22,8 C 75 % 1020,4 hPa 0,0 l/m 14,2 km/h (3 Bft) W-SW 252 0 min 0,000 mm 2,9 UV-I 376 W/m 17,4 C 19,8 C 25,7 km/h (4 Bft) 100,00 %
16.08.2017 12:44 22,0 C 22,8 C 74 % 1020,3 hPa 0,0 l/m 15,1 km/h (3 Bft) W-SW 248 0 min 0,000 mm 2,9 UV-I 377 W/m 17,1 C 19,7 C 24,1 km/h (4 Bft) 100,00 %
16.08.2017 12:46 22,0 C 22,8 C 75 % 1020,3 hPa 0,0 l/m 11,7 km/h (2 Bft) W-SW 241 0 min 0,000 mm 2,9 UV-I 379 W/m 17,4 C 20,4 C 14,5 km/h (3 Bft) 98,11 %
16.08.2017 12:48 22,1 C 22,8 C 75 % 1020,4 hPa 0,0 l/m 12,1 km/h (2 Bft) W-SW 249 0 min 0,000 mm 2,8 UV-I 368 W/m 17,5 C 20,4 C 19,3 km/h (3 Bft) 97,56 %
16.08.2017 12:50 22,1 C 22,8 C 75 % 1020,4 hPa 0,0 l/m 12,4 km/h (3 Bft) W-SW 248 0 min 0,000 mm 2,5 UV-I 339 W/m 17,5 C 20,4 C 19,3 km/h (3 Bft) 96,43 %
16.08.2017 12:52 22,1 C 22,8 C 74 % 1020,4 hPa 0,0 l/m 14,9 km/h (3 Bft) W-SW 254 0 min 0,000 mm 2,1 UV-I 297 W/m 17,2 C 19,8 C 22,5 km/h (4 Bft) 97,73 %
16.08.2017 12:54 21,9 C 22,8 C 74 % 1020,4 hPa 0,0 l/m 16,7 km/h (3 Bft) W 271 0 min 0,000 mm 1,9 UV-I 270 W/m 17,0 C 19,2 C 24,1 km/h (4 Bft) 98,00 %
16.08.2017 12:56 21,8 C 22,8 C 73 % 1020,4 hPa 0,0 l/m 16,6 km/h (3 Bft) W-SW 244 0 min 0,000 mm 1,9 UV-I 263 W/m 16,7 C 19,1 C 22,5 km/h (4 Bft) 97,73 %
16.08.2017 12:58 21,7 C 22,8 C 74 % 1020,4 hPa 0,0 l/m 15,4 km/h (3 Bft) W-SW 253 0 min 0,000 mm 1,7 UV-I 247 W/m 16,9 C 19,2 C 24,1 km/h (4 Bft) 97,73 %
16.08.2017 13:00 21,7 C 22,8 C 74 % 1020,4 hPa 0,0 l/m 16,1 km/h (3 Bft) W 265 0 min 0,279 mm 1,7 UV-I 240 W/m 16,9 C 19,1 C 22,5 km/h (4 Bft) 98,00 %
16.08.2017 13:02 21,6 C 22,8 C 74 % 1020,4 hPa 0,0 l/m 13,8 km/h (3 Bft) W-SW 248 0 min 0,000 mm 1,9 UV-I 262 W/m 16,8 C 19,4 C 19,3 km/h (3 Bft) 94,00 %
16.08.2017 13:04 21,7 C 22,8 C 75 % 1020,4 hPa 0,0 l/m 11,6 km/h (2 Bft) SW 229 0 min 0,000 mm 2,2 UV-I 289 W/m 17,1 C 20,1 C 16,1 km/h (3 Bft) 94,74 %
16.08.2017 13:06 21,7 C 22,8 C 74 % 1020,4 hPa 0,0 l/m 11,0 km/h (2 Bft) W-SW 250 0 min 0,000 mm 2,5 UV-I 326 W/m 16,9 C 20,2 C 16,1 km/h (3 Bft) 98,00 %
16.08.2017 13:08 21,7 C 22,8 C 74 % 1020,4 hPa 0,0 l/m 8,4 km/h (2 Bft) W-SW 257 0 min 0,000 mm 2,7 UV-I 351 W/m 16,9 C 21,0 C 12,9 km/h (3 Bft) 98,11 %
16.08.2017 13:10 21,8 C 22,8 C 74 % 1020,3 hPa 0,0 l/m 5,6 km/h (1 Bft) SW 229 0 min 0,000 mm 2,8 UV-I 356 W/m 17,0 C 21,8 C 8,0 km/h (2 Bft) 97,37 %
16.08.2017 13:12 21,9 C 22,8 C 75 % 1020,3 hPa 0,0 l/m 5,0 km/h (1 Bft) W 266 0 min 0,000 mm 2,8 UV-I 356 W/m 17,3 C 21,9 C 9,7 km/h (2 Bft) 95,74 %
16.08.2017 13:14 22,0 C 22,8 C 75 % 1020,4 hPa 0,0 l/m 8,0 km/h (2 Bft) S-SW 209 0 min 0,000 mm 2,8 UV-I 355 W/m 17,4 C 21,5 C 16,1 km/h (3 Bft) 96,23 %
16.08.2017 13:16 22,1 C 22,8 C 73 % 1020,4 hPa 0,0 l/m 10,2 km/h (2 Bft) W-SW 247 0 min 0,000 mm 2,8 UV-I 360 W/m 17,0 C 20,9 C 14,5 km/h (3 Bft) 95,45 %
16.08.2017 13:18 22,1 C 22,8 C 73 % 1020,4 hPa 0,0 l/m 9,4 km/h (2 Bft) W 279 0 min 0,000 mm 2,9 UV-I 364 W/m 17,0 C 21,1 C 17,7 km/h (3 Bft) 95,12 %
16.08.2017 13:20 22,1 C 22,8 C 74 % 1020,4 hPa 0,0 l/m 8,5 km/h (2 Bft) W-SW 245 0 min 0,000 mm 2,9 UV-I 372 W/m 17,2 C 21,4 C 14,5 km/h (3 Bft) 96,61 %
16.08.2017 13:22 22,1 C 22,8 C 74 % 1020,3 hPa 0,0 l/m 3,1 km/h (1 Bft) SW 234 0 min 0,000 mm 3,1 UV-I 386 W/m 17,2 C 22,1 C 6,4 km/h (2 Bft) 97,44 %
16.08.2017 13:24 22,2 C 22,8 C 74 % 1020,3 hPa 0,0 l/m 4,2 km/h (1 Bft) W-SW 252 0 min 0,000 mm 3,2 UV-I 399 W/m 17,3 C 22,2 C 8,0 km/h (2 Bft) 95,92 %
16.08.2017 13:26 22,3 C 22,8 C 74 % 1020,4 hPa 0,0 l/m 4,8 km/h (1 Bft) S-SW 202 0 min 0,000 mm 3,5 UV-I 445 W/m 17,4 C 22,3 C 9,7 km/h (2 Bft) 98,00 %
16.08.2017 13:28 22,3 C 22,8 C 73 % 1020,3 hPa 0,0 l/m 5,1 km/h (1 Bft) W-NW 291 2 min 0,000 mm 3,7 UV-I 475 W/m 17,2 C 22,3 C 8,0 km/h (2 Bft) 98,00 %
16.08.2017 13:30 22,4 C 22,8 C 72 % 1020,3 hPa 0,0 l/m 3,4 km/h (1 Bft) NW 307 2 min 0,000 mm 4,2 UV-I 490 W/m 17,1 C 22,4 C 6,4 km/h (2 Bft) 97,22 %
16.08.2017 13:32 22,6 C 22,8 C 73 % 1020,3 hPa 0,0 l/m 5,8 km/h (2 Bft) W-SW 252 2 min 0,000 mm 4,0 UV-I 490 W/m 17,5 C 22,6 C 12,9 km/h (3 Bft) 94,34 %
16.08.2017 13:34 22,6 C 22,8 C 70 % 1020,3 hPa 0,0 l/m 8,2 km/h (2 Bft) W-SW 257 2 min 0,000 mm 4,1 UV-I 493 W/m 16,8 C 22,0 C 14,5 km/h (3 Bft) 97,56 %
16.08.2017 13:36 22,6 C 22,8 C 70 % 1020,3 hPa 0,0 l/m 10,8 km/h (2 Bft) S-SW 202 2 min 0,000 mm 4,4 UV-I 595 W/m 16,8 C 21,3 C 16,1 km/h (3 Bft) 97,87 %
16.08.2017 13:38 22,7 C 23,3 C 71 % 1020,4 hPa 0,0 l/m 3,4 km/h (1 Bft) SW 234 2 min 0,000 mm 4,5 UV-I 691 W/m 17,2 C 22,7 C 11,3 km/h (2 Bft) 96,36 %
16.08.2017 13:40 22,8 C 23,3 C 72 % 1020,3 hPa 0,0 l/m 5,3 km/h (1 Bft) W 273 2 min 0,000 mm 4,6 UV-I 634 W/m 17,5 C 22,8 C 9,7 km/h (2 Bft) 97,37 %
16.08.2017 13:42 23,0 C 23,3 C 69 % 1020,4 hPa 0,0 l/m 8,8 km/h (2 Bft) W 279 2 min 0,000 mm 4,5 UV-I 682 W/m 17,0 C 22,3 C 12,9 km/h (3 Bft) 95,74 %
16.08.2017 13:44 22,9 C 23,3 C 69 % 1020,3 hPa 0,0 l/m 6,1 km/h (2 Bft) W-SW 254 2 min 0,000 mm 4,5 UV-I 793 W/m 16,9 C 22,9 C 12,9 km/h (3 Bft) 98,00 %
16.08.2017 13:46 22,9 C 23,3 C 69 % 1020,3 hPa 0,0 l/m 5,8 km/h (2 Bft) W 262 2 min 0,000 mm 3,5 UV-I 593 W/m 16,9 C 22,9 C 11,3 km/h (2 Bft) 95,74 %
16.08.2017 13:48 22,9 C 23,3 C 70 % 1020,3 hPa 0,0 l/m 2,8 km/h (1 Bft) S-SW 209 2 min 0,000 mm 4,5 UV-I 460 W/m 17,1 C 22,9 C 8,0 km/h (2 Bft) 95,74 %
16.08.2017 13:50 23,0 C 23,3 C 70 % 1020,3 hPa 0,0 l/m 5,1 km/h (1 Bft) SW 225 2 min 0,000 mm 3,9 UV-I 603 W/m 17,2 C 23,0 C 8,0 km/h (2 Bft) 97,87 %
16.08.2017 13:52 23,1 C 23,3 C 72 % 1020,3 hPa 0,0 l/m 4,7 km/h (1 Bft) W-NW 292 2 min 0,000 mm 3,6 UV-I 466 W/m 17,8 C 23,1 C 6,4 km/h (2 Bft) 91,49 %
16.08.2017 13:54 23,1 C 23,3 C 69 % 1020,3 hPa 0,0 l/m 4,2 km/h (1 Bft) W-SW 258 0 min 0,000 mm 3,3 UV-I 403 W/m 17,1 C 23,1 C 11,3 km/h (2 Bft) 94,00 %
16.08.2017 13:56 22,8 C 23,3 C 68 % 1020,3 hPa 0,0 l/m 4,8 km/h (1 Bft) W 276 0 min 0,000 mm 3,1 UV-I 361 W/m 16,6 C 22,8 C 9,7 km/h (2 Bft) 97,37 %
16.08.2017 13:58 22,7 C 23,3 C 69 % 1020,2 hPa 0,0 l/m 2,9 km/h (1 Bft) N 5 0 min 0,000 mm 3,3 UV-I 411 W/m 16,7 C 22,7 C 9,7 km/h (2 Bft) 95,74 %
16.08.2017 14:00 22,7 C 23,3 C 69 % 1020,2 hPa 0,0 l/m 3,3 km/h (1 Bft) W-NW 283 2 min 0,305 mm 3,5 UV-I 457 W/m 16,7 C 22,7 C 6,4 km/h (2 Bft) 91,67 %
16.08.2017 14:02 22,8 C 23,3 C 70 % 1020,2 hPa 0,0 l/m 3,2 km/h (1 Bft) W 268 2 min 0,000 mm 3,7 UV-I 503 W/m 17,0 C 22,8 C 4,8 km/h (1 Bft) 95,74 %
16.08.2017 14:04 23,0 C 23,3 C 72 % 1020,3 hPa 0,0 l/m 7,2 km/h (2 Bft) W 259 2 min 0,000 mm 3,6 UV-I 489 W/m 17,7 C 22,7 C 11,3 km/h (2 Bft) 97,87 %
16.08.2017 14:06 23,1 C 23,3 C 69 % 1020,3 hPa 0,0 l/m 5,3 km/h (1 Bft) W 270 0 min 0,000 mm 3,4 UV-I 425 W/m 17,1 C 23,1 C 11,3 km/h (2 Bft) 95,74 %
16.08.2017 14:08 23,0 C 23,3 C 69 % 1020,2 hPa 0,0 l/m 4,6 km/h (1 Bft) W-SW 240 0 min 0,000 mm 3,4 UV-I 425 W/m 17,0 C 23,0 C 14,5 km/h (3 Bft) 98,08 %
16.08.2017 14:10 23,0 C 23,3 C 69 % 1020,3 hPa 0,0 l/m 10,0 km/h (2 Bft) W-SW 251 2 min 0,000 mm 3,5 UV-I 462 W/m 17,0 C 22,0 C 16,1 km/h (3 Bft) 97,87 %
16.08.2017 14:12 23,0 C 23,3 C 69 % 1020,3 hPa 0,0 l/m 8,0 km/h (2 Bft) SW 236 2 min 0,000 mm 3,6 UV-I 467 W/m 17,0 C 22,5 C 16,1 km/h (3 Bft) 95,74 %
16.08.2017 14:14 23,1 C 23,3 C 70 % 1020,3 hPa 0,0 l/m 11,1 km/h (2 Bft) SW 234 2 min 0,000 mm 3,8 UV-I 524 W/m 17,3 C 21,8 C 19,3 km/h (3 Bft) 97,56 %
16.08.2017 14:16 23,0 C 23,3 C 69 % 1020,3 hPa 0,0 l/m 13,0 km/h (3 Bft) W-SW 241 2 min 0,000 mm 4,5 UV-I 508 W/m 17,0 C 21,3 C 19,3 km/h (3 Bft) 96,00 %
16.08.2017 14:18 23,1 C 23,3 C 69 % 1020,3 hPa 0,0 l/m 5,7 km/h (1 Bft) NW 318 2 min 0,000 mm 5,0 UV-I 908 W/m 17,1 C 23,1 C 14,5 km/h (3 Bft) 97,87 %
16.08.2017 14:20 23,1 C 23,3 C 67 % 1020,2 hPa 0,0 l/m 8,3 km/h (2 Bft) W-SW 257 2 min 0,000 mm 3,8 UV-I 607 W/m 16,6 C 22,5 C 17,7 km/h (3 Bft) 95,74 %
16.08.2017 14:22 23,1 C 23,3 C 70 % 1020,1 hPa 0,0 l/m 5,5 km/h (1 Bft) W-SW 248 2 min 0,000 mm 3,7 UV-I 450 W/m 17,3 C 23,1 C 11,3 km/h (2 Bft) 97,87 %
16.08.2017 14:24 23,2 C 23,3 C 69 % 1020,1 hPa 0,0 l/m 5,0 km/h (1 Bft) W-NW 299 2 min 0,000 mm 4,2 UV-I 619 W/m 17,2 C 23,2 C 11,3 km/h (2 Bft) 100,00 %
16.08.2017 14:26 23,2 C 23,3 C 68 % 1020,1 hPa 0,0 l/m 5,2 km/h (1 Bft) W 265 2 min 0,000 mm 3,6 UV-I 438 W/m 17,0 C 23,2 C 9,7 km/h (2 Bft) 97,87 %
16.08.2017 14:28 23,1 C 23,3 C 67 % 1020,1 hPa 0,0 l/m 5,2 km/h (1 Bft) NW 325 2 min 0,000 mm 3,8 UV-I 477 W/m 16,6 C 23,1 C 11,3 km/h (2 Bft) 97,87 %
16.08.2017 14:30 23,1 C 23,3 C 69 % 1020,1 hPa 0,0 l/m 2,5 km/h (1 Bft) SW 231 2 min 0,000 mm 4,2 UV-I 514 W/m 17,1 C 23,1 C 8,0 km/h (2 Bft) 96,00 %
16.08.2017 14:32 23,2 C 23,3 C 70 % 1020,0 hPa 0,0 l/m 5,5 km/h (1 Bft) SW 221 2 min 0,000 mm 3,9 UV-I 536 W/m 17,4 C 23,2 C 11,3 km/h (2 Bft) 100,00 %
16.08.2017 14:34 23,3 C 23,3 C 69 % 1020,0 hPa 0,0 l/m 9,5 km/h (2 Bft) W 276 2 min 0,000 mm 3,5 UV-I 454 W/m 17,3 C 22,4 C 16,1 km/h (3 Bft) 100,00 %
16.08.2017 14:36 23,4 C 23,3 C 70 % 1020,0 hPa 0,0 l/m 6,3 km/h (2 Bft) S-SW 192 2 min 0,000 mm 3,4 UV-I 447 W/m 17,6 C 23,4 C 14,5 km/h (3 Bft) 97,87 %
16.08.2017 14:38 23,3 C 23,3 C 67 % 1020,0 hPa 0,0 l/m 5,4 km/h (1 Bft) W-NW 286 2 min 0,000 mm 3,4 UV-I 475 W/m 16,8 C 23,3 C 11,3 km/h (2 Bft) 100,00 %
16.08.2017 14:40 23,3 C 23,3 C 67 % 1019,9 hPa 0,0 l/m 6,8 km/h (2 Bft) W-NW 285 0 min 0,000 mm 3,2 UV-I 413 W/m 16,8 C 23,2 C 11,3 km/h (2 Bft) 100,00 %
16.08.2017 14:42 23,2 C 23,3 C 65 % 1019,9 hPa 0,0 l/m 5,7 km/h (1 Bft) W 263 2 min 0,000 mm 3,5 UV-I 516 W/m 16,2 C 23,2 C 11,3 km/h (2 Bft) 98,00 %
16.08.2017 14:44 23,2 C 23,3 C 67 % 1019,9 hPa 0,0 l/m 4,0 km/h (1 Bft) SW 234 2 min 0,000 mm 3,4 UV-I 464 W/m 16,7 C 23,2 C 11,3 km/h (2 Bft) 100,00 %
16.08.2017 14:46 23,2 C 23,3 C 67 % 1019,8 hPa 0,0 l/m 3,8 km/h (1 Bft) NW 319 2 min 0,000 mm 3,7 UV-I 492 W/m 16,7 C 23,2 C 6,4 km/h (2 Bft) 97,92 %
16.08.2017 14:48 23,3 C 23,3 C 68 % 1019,8 hPa 0,0 l/m 7,9 km/h (2 Bft) W 259 2 min 0,000 mm 4,4 UV-I 604 W/m 17,1 C 22,8 C 12,9 km/h (3 Bft) 100,00 %
16.08.2017 14:50 23,5 C 23,3 C 68 % 1019,7 hPa 0,0 l/m 5,7 km/h (1 Bft) SW 221 2 min 0,000 mm 4,6 UV-I 605 W/m 17,2 C 23,5 C 9,7 km/h (2 Bft) 100,00 %
16.08.2017 14:52 23,7 C 23,3 C 65 % 1019,8 hPa 0,0 l/m 4,0 km/h (1 Bft) W 269 2 min 0,000 mm 4,9 UV-I 858 W/m 16,7 C 23,7 C 8,0 km/h (2 Bft) 100,00 %
16.08.2017 14:54 23,9 C 23,3 C 67 % 1019,7 hPa 0,0 l/m 0,7 km/h (0 Bft) W 276 2 min 0,000 mm 4,6 UV-I 825 W/m 17,4 C 23,9 C 3,2 km/h (1 Bft) 97,87 %
16.08.2017 14:56 24,3 C 23,3 C 67 % 1019,7 hPa 0,0 l/m 4,3 km/h (1 Bft) W 279 2 min 0,000 mm 4,5 UV-I 819 W/m 17,8 C 24,3 C 11,3 km/h (2 Bft) 97,14 %
16.08.2017 14:58 24,4 C 23,3 C 64 % 1019,7 hPa 0,0 l/m 8,0 km/h (2 Bft) SW 231 2 min 0,000 mm 4,5 UV-I 821 W/m 17,1 C 24,0 C 12,9 km/h (3 Bft) 100,00 %
16.08.2017 15:00 24,3 C 23,3 C 61 % 1019,7 hPa 0,0 l/m 11,4 km/h (2 Bft) W-SW 246 2 min 0,000 mm 3,9 UV-I 790 W/m 16,3 C 23,1 C 17,7 km/h (3 Bft) 100,00 %
16.08.2017 15:02 24,2 C 23,3 C 62 % 1019,7 hPa 0,0 l/m 6,8 km/h (2 Bft) W 259 2 min 0,381 mm 3,2 UV-I 786 W/m 16,4 C 24,1 C 11,3 km/h (2 Bft) 98,00 %
16.08.2017 15:04 23,9 C 23,3 C 63 % 1019,7 hPa 0,0 l/m 9,6 km/h (2 Bft) W 260 0 min 0,000 mm 2,8 UV-I 336 W/m 16,4 C 23,0 C 12,9 km/h (3 Bft) 100,00 %
16.08.2017 15:06 23,8 C 23,3 C 62 % 1019,6 hPa 0,0 l/m 5,4 km/h (1 Bft) W-NW 283 0 min 0,000 mm 3,5 UV-I 285 W/m 16,1 C 23,8 C 12,9 km/h (3 Bft) 100,00 %
16.08.2017 15:08 23,8 C 23,3 C 64 % 1019,7 hPa 0,0 l/m 5,5 km/h (1 Bft) SW 223 0 min 0,000 mm 3,1 UV-I 285 W/m 16,6 C 23,8 C 8,0 km/h (2 Bft) 97,87 %
16.08.2017 15:10 23,9 C 23,3 C 64 % 1019,6 hPa 0,0 l/m 5,6 km/h (1 Bft) W-SW 238 0 min 0,000 mm 3,3 UV-I 285 W/m 16,7 C 23,9 C 8,0 km/h (2 Bft) 100,00 %
16.08.2017 15:12 23,8 C 23,3 C 63 % 1019,6 hPa 0,0 l/m 5,2 km/h (1 Bft) S 189 0 min 0,000 mm 2,9 UV-I 353 W/m 16,3 C 23,8 C 11,3 km/h (2 Bft) 100,00 %
16.08.2017 15:14 23,7 C 23,3 C 66 % 1019,6 hPa 0,0 l/m 2,6 km/h (1 Bft) W 276 0 min 0,000 mm 2,4 UV-I 339 W/m 17,0 C 23,7 C 8,0 km/h (2 Bft) 100,00 %
16.08.2017 15:16 23,7 C 23,3 C 66 % 1019,6 hPa 0,0 l/m 2,1 km/h (1 Bft) W 271 0 min 0,000 mm 2,4 UV-I 269 W/m 17,0 C 23,7 C 6,4 km/h (2 Bft) 100,00 %
16.08.2017 15:18 23,6 C 23,3 C 67 % 1019,6 hPa 0,0 l/m 4,1 km/h (1 Bft) W-SW 254 0 min 0,000 mm 2,4 UV-I 310 W/m 17,1 C 23,6 C 8,0 km/h (2 Bft) 100,00 %
16.08.2017 15:20 23,4 C 23,3 C 66 % 1019,6 hPa 0,0 l/m 2,1 km/h (1 Bft) W-SW 254 0 min 0,000 mm 2,7 UV-I 330 W/m 16,7 C 23,4 C 4,8 km/h (1 Bft) 100,00 %
16.08.2017 15:22 23,6 C 23,3 C 68 % 1019,6 hPa 0,0 l/m 1,6 km/h (1 Bft) NW 309 2 min 0,000 mm 3,3 UV-I 577 W/m 17,3 C 23,6 C 3,2 km/h (1 Bft) 100,00 %
16.08.2017 15:24 23,6 C 23,3 C 67 % 1019,6 hPa 0,0 l/m 1,4 km/h (1 Bft) NW 310 2 min 0,000 mm 2,9 UV-I 805 W/m 17,1 C 23,6 C 6,4 km/h (2 Bft) 100,00 %
16.08.2017 15:26 23,6 C 23,3 C 68 % 1019,6 hPa 0,0 l/m 2,0 km/h (1 Bft) N 5 2 min 0,000 mm 2,2 UV-I 401 W/m 17,3 C 23,6 C 6,4 km/h (2 Bft) 97,87 %
16.08.2017 15:28 23,6 C 23,3 C 69 % 1019,6 hPa 0,0 l/m 3,3 km/h (1 Bft) NO 42 0 min 0,000 mm 2,5 UV-I 323 W/m 17,6 C 23,6 C 6,4 km/h (2 Bft) 100,00 %
16.08.2017 15:30 23,5 C 23,3 C 69 % 1019,6 hPa 0,0 l/m 3,0 km/h (1 Bft) N-NW 334 2 min 0,000 mm 3,1 UV-I 442 W/m 17,5 C 23,5 C 6,4 km/h (2 Bft) 95,74 %
16.08.2017 15:32 23,7 C 23,3 C 68 % 1019,6 hPa 0,0 l/m 2,3 km/h (1 Bft) NW 315 2 min 0,000 mm 3,6 UV-I 779 W/m 17,4 C 23,7 C 8,0 km/h (2 Bft) 100,00 %
16.08.2017 15:34 23,8 C 23,3 C 67 % 1019,6 hPa 0,0 l/m 2,5 km/h (1 Bft) N-NW 342 2 min 0,000 mm 3,7 UV-I 761 W/m 17,3 C 23,8 C 6,4 km/h (2 Bft) 100,00 %
16.08.2017 15:36 23,8 C 23,3 C 68 % 1019,6 hPa 0,0 l/m 0,9 km/h (0 Bft) N-NW 347 2 min 0,000 mm 3,6 UV-I 728 W/m 17,5 C 23,8 C 3,2 km/h (1 Bft) 100,00 %
16.08.2017 15:38 24,0 C 23,3 C 67 % 1019,6 hPa 0,0 l/m 2,5 km/h (1 Bft) N 355 2 min 0,000 mm 3,6 UV-I 766 W/m 17,5 C 24,0 C 6,4 km/h (2 Bft) 97,87 %
16.08.2017 15:40 24,2 C 23,3 C 67 % 1019,6 hPa 0,0 l/m 2,9 km/h (1 Bft) S 188 2 min 0,000 mm 3,6 UV-I 746 W/m 17,7 C 24,2 C 9,7 km/h (2 Bft) 100,00 %
16.08.2017 15:42 24,4 C 23,3 C 65 % 1019,5 hPa 0,0 l/m 3,7 km/h (1 Bft) W-SW 254 2 min 0,000 mm 3,5 UV-I 759 W/m 17,4 C 24,4 C 9,7 km/h (2 Bft) 97,87 %
16.08.2017 15:44 24,3 C 23,3 C 61 % 1019,5 hPa 0,0 l/m 6,9 km/h (2 Bft) W-SW 255 2 min 0,000 mm 3,5 UV-I 795 W/m 16,3 C 24,2 C 11,3 km/h (2 Bft) 100,00 %
16.08.2017 15:46 24,3 C 23,3 C 63 % 1019,5 hPa 0,0 l/m 4,7 km/h (1 Bft) W 269 2 min 0,000 mm 3,5 UV-I 796 W/m 16,8 C 24,3 C 9,7 km/h (2 Bft) 97,87 %
16.08.2017 15:48 24,4 C 23,3 C 66 % 1019,5 hPa 0,0 l/m 2,0 km/h (1 Bft) N 5 2 min 0,000 mm 3,5 UV-I 799 W/m 17,6 C 24,4 C 4,8 km/h (1 Bft) 93,62 %
16.08.2017 15:50 24,7 C 23,3 C 66 % 1019,5 hPa 0,0 l/m 5,1 km/h (1 Bft) NO 35 2 min 0,000 mm 3,4 UV-I 771 W/m 17,9 C 24,7 C 11,3 km/h (2 Bft) 97,87 %
16.08.2017 15:52 24,7 C 23,3 C 66 % 1019,5 hPa 0,0 l/m 2,8 km/h (1 Bft) NW 306 2 min 0,000 mm 3,3 UV-I 723 W/m 17,9 C 24,7 C 4,8 km/h (1 Bft) 97,87 %
16.08.2017 15:54 24,5 C 23,3 C 63 % 1019,5 hPa 0,0 l/m 3,5 km/h (1 Bft) N-NO 23 2 min 0,000 mm 2,9 UV-I 582 W/m 17,0 C 24,5 C 8,0 km/h (2 Bft) 97,87 %
16.08.2017 15:56 24,2 C 23,3 C 63 % 1019,5 hPa 0,0 l/m 4,7 km/h (1 Bft) N-NW 339 0 min 0,000 mm 2,2 UV-I 208 W/m 16,7 C 24,2 C 6,4 km/h (2 Bft) 95,74 %
16.08.2017 15:58 23,9 C 23,3 C 65 % 1019,5 hPa 0,0 l/m 2,1 km/h (1 Bft) NW 325 0 min 0,000 mm 2,2 UV-I 220 W/m 16,9 C 23,9 C 4,8 km/h (1 Bft) 95,74 %
16.08.2017 16:00 23,8 C 23,3 C 66 % 1019,4 hPa 0,0 l/m 1,6 km/h (1 Bft) NW 307 2 min 0,000 mm 2,9 UV-I 512 W/m 17,1 C 23,8 C 4,8 km/h (1 Bft) 98,00 %
16.08.2017 16:02 24,0 C 23,3 C 66 % 1019,4 hPa 0,0 l/m 2,4 km/h (1 Bft) N 9 2 min 0,356 mm 2,6 UV-I 622 W/m 17,2 C 24,0 C 6,4 km/h (2 Bft) 97,87 %
16.08.2017 16:04 23,9 C 23,3 C 64 % 1019,4 hPa 0,0 l/m 3,4 km/h (1 Bft) N-NO 12 0 min 0,000 mm 2,1 UV-I 183 W/m 16,7 C 23,9 C 8,0 km/h (2 Bft) 97,87 %
16.08.2017 16:06 23,9 C 23,3 C 63 % 1019,4 hPa 0,0 l/m 3,4 km/h (1 Bft) N-NO 24 2 min 0,000 mm 2,7 UV-I 429 W/m 16,4 C 23,9 C 6,4 km/h (2 Bft) 97,92 %
16.08.2017 16:08 24,0 C 23,3 C 65 % 1019,4 hPa 0,0 l/m 4,4 km/h (1 Bft) W-NW 298 2 min 0,000 mm 2,7 UV-I 644 W/m 17,0 C 24,0 C 9,7 km/h (2 Bft) 94,29 %
16.08.2017 16:10 24,0 C 23,3 C 64 % 1019,4 hPa 0,0 l/m 2,9 km/h (1 Bft) W-NW 301 2 min 0,000 mm 2,3 UV-I 433 W/m 16,8 C 24,0 C 4,8 km/h (1 Bft) 95,74 %
16.08.2017 16:12 24,0 C 23,3 C 62 % 1019,4 hPa 0,0 l/m 3,9 km/h (1 Bft) W 264 2 min 0,000 mm 2,1 UV-I 415 W/m 16,3 C 24,0 C 6,4 km/h (2 Bft) 97,87 %
16.08.2017 16:14 23,9 C 23,3 C 61 % 1019,4 hPa 0,0 l/m 1,2 km/h (1 Bft) W 259 2 min 0,000 mm 1,9 UV-I 497 W/m 15,9 C 23,9 C 4,8 km/h (1 Bft) 97,87 %
16.08.2017 16:16 23,9 C 23,3 C 63 % 1019,4 hPa 0,0 l/m 0,0 km/h (0 Bft) W 259 0 min 0,000 mm 2,0 UV-I 258 W/m 16,4 C 23,9 C 0,0 km/h (0 Bft) 95,74 %
16.08.2017 16:18 23,9 C 23,3 C 64 % 1019,4 hPa 0,0 l/m 1,7 km/h (1 Bft) W-NW 302 0 min 0,000 mm 1,6 UV-I 218 W/m 16,7 C 23,9 C 3,2 km/h (1 Bft) 97,87 %
16.08.2017 16:20 23,8 C 23,3 C 64 % 1019,4 hPa 0,0 l/m 2,4 km/h (1 Bft) W-SW 254 0 min 0,000 mm 1,6 UV-I 220 W/m 16,6 C 23,8 C 6,4 km/h (2 Bft) 100,00 %
16.08.2017 16:22 23,9 C 23,3 C 65 % 1019,4 hPa 0,0 l/m 2,0 km/h (1 Bft) N-NW 336 2 min 0,000 mm 2,3 UV-I 488 W/m 16,9 C 23,9 C 8,0 km/h (2 Bft) 95,74 %
16.08.2017 16:24 24,1 C 23,3 C 66 % 1019,3 hPa 0,0 l/m 1,6 km/h (1 Bft) N-NW 333 2 min 0,000 mm 2,4 UV-I 596 W/m 17,3 C 24,1 C 4,8 km/h (1 Bft) 100,00 %
16.08.2017 16:26 24,3 C 23,9 C 63 % 1019,4 hPa 0,0 l/m 2,2 km/h (1 Bft) N-NW 344 2 min 0,000 mm 2,4 UV-I 597 W/m 16,8 C 24,3 C 6,4 km/h (2 Bft) 100,00 %
16.08.2017 16:28 24,3 C 23,9 C 62 % 1019,4 hPa 0,0 l/m 1,5 km/h (1 Bft) NW 314 2 min 0,000 mm 2,3 UV-I 597 W/m 16,5 C 24,3 C 4,8 km/h (1 Bft) 97,87 %
16.08.2017 16:30 24,4 C 23,9 C 64 % 1019,4 hPa 0,0 l/m 2,2 km/h (1 Bft) NW 325 2 min 0,000 mm 2,3 UV-I 585 W/m 17,1 C 24,4 C 6,4 km/h (2 Bft) 97,87 %
16.08.2017 16:32 24,5 C 23,9 C 64 % 1019,4 hPa 0,0 l/m 2,5 km/h (1 Bft) NW 320 2 min 0,000 mm 2,2 UV-I 589 W/m 17,2 C 24,5 C 6,4 km/h (2 Bft) 100,00 %
16.08.2017 16:34 24,5 C 23,9 C 65 % 1019,4 hPa 0,0 l/m 3,7 km/h (1 Bft) N-NW 344 2 min 0,000 mm 2,1 UV-I 557 W/m 17,5 C 24,5 C 11,3 km/h (2 Bft) 100,00 %
16.08.2017 16:36 24,5 C 23,9 C 63 % 1019,4 hPa 0,0 l/m 5,0 km/h (1 Bft) W-NW 294 2 min 0,000 mm 2,1 UV-I 564 W/m 17,0 C 24,5 C 8,0 km/h (2 Bft) 100,00 %
16.08.2017 16:38 24,4 C 23,9 C 63 % 1019,4 hPa 0,0 l/m 1,6 km/h (1 Bft) N-NW 333 2 min 0,000 mm 2,1 UV-I 557 W/m 16,9 C 24,4 C 4,8 km/h (1 Bft) 100,00 %
16.08.2017 16:40 24,4 C 23,9 C 62 % 1019,4 hPa 0,0 l/m 0,8 km/h (0 Bft) NW 311 2 min 0,000 mm 2,1 UV-I 551 W/m 16,6 C 24,4 C 3,2 km/h (1 Bft) 100,00 %
16.08.2017 16:42 24,4 C 23,9 C 62 % 1019,4 hPa 0,0 l/m 2,0 km/h (1 Bft) N-NW 344 2 min 0,000 mm 2,1 UV-I 561 W/m 16,6 C 24,4 C 4,8 km/h (1 Bft) 100,00 %
16.08.2017 16:44 24,5 C 23,9 C 64 % 1019,4 hPa 0,0 l/m 2,4 km/h (1 Bft) N-NO 28 2 min 0,000 mm 1,8 UV-I 528 W/m 17,2 C 24,5 C 4,8 km/h (1 Bft) 100,00 %
16.08.2017 16:46 24,4 C 23,9 C 64 % 1019,5 hPa 0,0 l/m 0,8 km/h (0 Bft) O 98 0 min 0,000 mm 1,5 UV-I 204 W/m 17,1 C 24,4 C 3,2 km/h (1 Bft) 97,87 %
16.08.2017 16:48 24,3 C 23,9 C 61 % 1019,5 hPa 0,0 l/m 3,0 km/h (1 Bft) W-SW 249 0 min 0,000 mm 1,5 UV-I 234 W/m 16,3 C 24,3 C 8,0 km/h (2 Bft) 98,00 %
16.08.2017 16:50 24,3 C 23,9 C 62 % 1019,5 hPa 0,0 l/m 2,0 km/h (1 Bft) W-NW 282 0 min 0,000 mm 1,4 UV-I 213 W/m 16,5 C 24,3 C 6,4 km/h (2 Bft) 95,74 %
16.08.2017 16:52 24,2 C 23,9 C 62 % 1019,5 hPa 0,0 l/m 3,4 km/h (1 Bft) W 273 2 min 0,000 mm 1,6 UV-I 314 W/m 16,4 C 24,2 C 6,4 km/h (2 Bft) 95,74 %
16.08.2017 16:54 24,2 C 23,9 C 60 % 1019,6 hPa 0,0 l/m 1,8 km/h (1 Bft) W 279 2 min 0,000 mm 1,8 UV-I 588 W/m 15,9 C 24,2 C 3,2 km/h (1 Bft) 95,74 %
16.08.2017 16:56 24,3 C 23,9 C 63 % 1019,6 hPa 0,0 l/m 3,5 km/h (1 Bft) W-SW 253 2 min 0,000 mm 1,8 UV-I 577 W/m 16,8 C 24,3 C 6,4 km/h (2 Bft) 95,74 %
16.08.2017 16:58 24,3 C 23,9 C 62 % 1019,6 hPa 0,0 l/m 2,4 km/h (1 Bft) SW 233 2 min 0,000 mm 1,3 UV-I 339 W/m 16,5 C 24,3 C 8,0 km/h (2 Bft) 97,37 %
16.08.2017 17:00 24,3 C 23,9 C 62 % 1019,5 hPa 0,0 l/m 8,6 km/h (2 Bft) SW 222 0 min 0,000 mm 1,3 UV-I 195 W/m 16,5 C 23,7 C 14,5 km/h (3 Bft) 98,11 %
16.08.2017 17:02 24,3 C 23,9 C 61 % 1019,6 hPa 0,0 l/m 7,3 km/h (2 Bft) SW 223 0 min 0,279 mm 1,4 UV-I 207 W/m 16,3 C 24,1 C 11,3 km/h (2 Bft) 96,00 %
16.08.2017 17:04 24,4 C 23,9 C 62 % 1019,5 hPa 0,0 l/m 5,7 km/h (1 Bft) W 268 2 min 0,000 mm 1,6 UV-I 454 W/m 16,6 C 24,4 C 9,7 km/h (2 Bft) 97,37 %
16.08.2017 17:06 24,6 C 23,9 C 61 % 1019,5 hPa 0,0 l/m 4,9 km/h (1 Bft) W 266 2 min 0,000 mm 1,5 UV-I 505 W/m 16,6 C 24,6 C 9,7 km/h (2 Bft) 98,00 %
16.08.2017 17:08 24,6 C 23,9 C 62 % 1019,6 hPa 0,0 l/m 3,5 km/h (1 Bft) W-NW 283 2 min 0,000 mm 1,5 UV-I 498 W/m 16,8 C 24,6 C 8,0 km/h (2 Bft) 97,87 %
16.08.2017 17:10 24,6 C 23,9 C 63 % 1019,6 hPa 0,0 l/m 2,6 km/h (1 Bft) W-SW 242 2 min 0,000 mm 1,5 UV-I 502 W/m 17,1 C 24,6 C 6,4 km/h (2 Bft) 95,74 %
16.08.2017 17:12 24,7 C 23,9 C 60 % 1019,5 hPa 0,0 l/m 4,1 km/h (1 Bft) W-SW 248 2 min 0,000 mm 1,5 UV-I 503 W/m 16,4 C 24,7 C 8,0 km/h (2 Bft) 97,87 %
16.08.2017 17:14 24,7 C 23,9 C 60 % 1019,5 hPa 0,0 l/m 3,2 km/h (1 Bft) W 279 2 min 0,000 mm 1,4 UV-I 479 W/m 16,4 C 24,7 C 4,8 km/h (1 Bft) 97,87 %
16.08.2017 17:16 24,7 C 23,9 C 61 % 1019,5 hPa 0,0 l/m 2,5 km/h (1 Bft) S-SW 198 2 min 0,000 mm 1,4 UV-I 460 W/m 16,7 C 24,7 C 4,8 km/h (1 Bft) 98,11 %
16.08.2017 17:18 24,7 C 23,9 C 62 % 1019,5 hPa 0,0 l/m 3,3 km/h (1 Bft) W-NW 288 2 min 0,000 mm 1,3 UV-I 445 W/m 16,9 C 24,7 C 8,0 km/h (2 Bft) 97,87 %
16.08.2017 17:20 24,7 C 23,9 C 59 % 1019,4 hPa 0,0 l/m 1,4 km/h (1 Bft) W 279 2 min 0,000 mm 1,3 UV-I 409 W/m 16,1 C 24,7 C 4,8 km/h (1 Bft) 97,87 %
16.08.2017 17:22 24,7 C 23,9 C 60 % 1019,4 hPa 0,0 l/m 2,5 km/h (1 Bft) NW 309 2 min 0,000 mm 1,3 UV-I 413 W/m 16,4 C 24,7 C 4,8 km/h (1 Bft) 97,22 %
16.08.2017 17:24 24,6 C 23,9 C 58 % 1019,4 hPa 0,0 l/m 2,6 km/h (1 Bft) NW 306 2 min 0,000 mm 1,2 UV-I 412 W/m 15,8 C 24,6 C 4,8 km/h (1 Bft) 98,00 %
16.08.2017 17:26 24,6 C 23,9 C 59 % 1019,4 hPa 0,0 l/m 1,7 km/h (1 Bft) NW 304 2 min 0,000 mm 1,2 UV-I 427 W/m 16,0 C 24,6 C 4,8 km/h (1 Bft) 95,74 %
16.08.2017 17:28 24,6 C 23,9 C 58 % 1019,4 hPa 0,0 l/m 2,5 km/h (1 Bft) NW 304 2 min 0,000 mm 1,1 UV-I 409 W/m 15,8 C 24,6 C 3,2 km/h (1 Bft) 97,87 %
16.08.2017 17:30 24,6 C 23,9 C 61 % 1019,3 hPa 0,0 l/m 0,3 km/h (0 Bft) NW 308 2 min 0,000 mm 1,2 UV-I 359 W/m 16,6 C 24,6 C 1,6 km/h (1 Bft) 97,87 %
16.08.2017 17:32 24,6 C 23,9 C 60 % 1019,3 hPa 0,0 l/m 3,6 km/h (1 Bft) W-SW 250 2 min 0,000 mm 1,2 UV-I 390 W/m 16,3 C 24,6 C 4,8 km/h (1 Bft) 95,74 %
16.08.2017 17:34 24,6 C 23,9 C 62 % 1019,3 hPa 0,0 l/m 2,0 km/h (1 Bft) W 263 2 min 0,000 mm 1,1 UV-I 394 W/m 16,8 C 24,6 C 4,8 km/h (1 Bft) 98,00 %
16.08.2017 17:36 24,7 C 23,9 C 59 % 1019,3 hPa 0,0 l/m 1,4 km/h (1 Bft) W-NW 289 2 min 0,000 mm 1,1 UV-I 378 W/m 16,1 C 24,7 C 3,2 km/h (1 Bft) 95,74 %
16.08.2017 17:38 24,7 C 23,9 C 60 % 1019,3 hPa 0,0 l/m 3,1 km/h (1 Bft) N-NO 13 2 min 0,000 mm 1,1 UV-I 365 W/m 16,4 C 24,7 C 6,4 km/h (2 Bft) 95,74 %
16.08.2017 17:40 24,7 C 23,9 C 59 % 1019,3 hPa 0,0 l/m 2,4 km/h (1 Bft) NW 323 2 min 0,000 mm 1,1 UV-I 356 W/m 16,1 C 24,7 C 8,0 km/h (2 Bft) 95,74 %
16.08.2017 17:42 24,7 C 23,9 C 59 % 1019,3 hPa 0,0 l/m 0,1 km/h (0 Bft) NW 323 2 min 0,000 mm 1,0 UV-I 347 W/m 16,1 C 24,7 C 1,6 km/h (1 Bft) 91,49 %
16.08.2017 17:44 24,7 C 23,9 C 61 % 1019,2 hPa 0,0 l/m 1,6 km/h (1 Bft) N-NW 345 2 min 0,000 mm 1,0 UV-I 343 W/m 16,7 C 24,7 C 4,8 km/h (1 Bft) 96,00 %
16.08.2017 17:46 24,6 C 23,9 C 60 % 1019,2 hPa 0,0 l/m 2,6 km/h (1 Bft) NW 322 2 min 0,000 mm 1,0 UV-I 338 W/m 16,3 C 24,6 C 4,8 km/h (1 Bft) 94,74 %
16.08.2017 17:48 24,6 C 23,9 C 61 % 1019,2 hPa 0,0 l/m 1,4 km/h (1 Bft) N-NW 329 2 min 0,000 mm 0,9 UV-I 330 W/m 16,6 C 24,6 C 4,8 km/h (1 Bft) 93,62 %
16.08.2017 17:50 24,6 C 23,9 C 60 % 1019,2 hPa 0,0 l/m 2,1 km/h (1 Bft) NW 319 2 min 0,000 mm 0,9 UV-I 322 W/m 16,3 C 24,6 C 4,8 km/h (1 Bft) 95,74 %
16.08.2017 17:52 24,5 C 23,9 C 59 % 1019,2 hPa 0,0 l/m 1,0 km/h (0 Bft) NW 319 2 min 0,000 mm 0,9 UV-I 312 W/m 15,9 C 24,5 C 3,2 km/h (1 Bft) 91,67 %
16.08.2017 17:54 24,4 C 23,9 C 59 % 1019,1 hPa 0,0 l/m 0,5 km/h (0 Bft) NW 319 2 min 0,000 mm 0,8 UV-I 303 W/m 15,9 C 24,4 C 3,2 km/h (1 Bft) 98,00 %
16.08.2017 17:56 24,4 C 23,9 C 60 % 1019,1 hPa 0,0 l/m 1,1 km/h (1 Bft) NW 320 2 min 0,000 mm 0,8 UV-I 295 W/m 16,1 C 24,4 C 3,2 km/h (1 Bft) 97,87 %
16.08.2017 17:58 24,3 C 23,9 C 62 % 1019,1 hPa 0,0 l/m 1,9 km/h (1 Bft) N-NO 19 2 min 0,000 mm 0,8 UV-I 292 W/m 16,5 C 24,3 C 6,4 km/h (2 Bft) 94,00 %
16.08.2017 18:00 24,4 C 23,9 C 64 % 1019,1 hPa 0,0 l/m 3,8 km/h (1 Bft) N-NW 333 2 min 0,254 mm 0,8 UV-I 289 W/m 17,1 C 24,4 C 6,4 km/h (2 Bft) 95,74 %
16.08.2017 18:02 24,5 C 23,9 C 62 % 1019,1 hPa 0,0 l/m 0,6 km/h (0 Bft) N-NO 17 2 min 0,000 mm 0,7 UV-I 287 W/m 16,7 C 24,5 C 3,2 km/h (1 Bft) 93,75 %
16.08.2017 18:04 24,4 C 23,9 C 63 % 1019,0 hPa 0,0 l/m 1,8 km/h (1 Bft) N-NW 348 2 min 0,000 mm 0,7 UV-I 282 W/m 16,9 C 24,4 C 4,8 km/h (1 Bft) 100,00 %
16.08.2017 18:06 24,4 C 23,9 C 61 % 1019,0 hPa 0,0 l/m 1,7 km/h (1 Bft) NW 324 2 min 0,000 mm 0,7 UV-I 278 W/m 16,4 C 24,4 C 8,0 km/h (2 Bft) 97,87 %
16.08.2017 18:08 24,3 C 23,9 C 61 % 1019,0 hPa 0,0 l/m 1,5 km/h (1 Bft) W-NW 303 2 min 0,000 mm 0,7 UV-I 276 W/m 16,3 C 24,3 C 6,4 km/h (2 Bft) 97,22 %
16.08.2017 18:10 24,3 C 23,9 C 61 % 1019,0 hPa 0,0 l/m 0,9 km/h (0 Bft) NW 317 2 min 0,000 mm 0,6 UV-I 271 W/m 16,3 C 24,3 C 6,4 km/h (2 Bft) 100,00 %
16.08.2017 18:12 24,3 C 23,9 C 60 % 1019,1 hPa 0,0 l/m 0,8 km/h (0 Bft) NW 317 2 min 0,000 mm 0,6 UV-I 266 W/m 16,0 C 24,3 C 3,2 km/h (1 Bft) 97,92 %
16.08.2017 18:14 24,3 C 23,9 C 59 % 1019,0 hPa 0,0 l/m 1,3 km/h (1 Bft) NW 314 2 min 0,000 mm 0,6 UV-I 264 W/m 15,8 C 24,3 C 4,8 km/h (1 Bft) 97,87 %
16.08.2017 18:16 24,3 C 23,9 C 60 % 1019,0 hPa 0,0 l/m 0,7 km/h (0 Bft) NW 314 2 min 0,000 mm 0,6 UV-I 257 W/m 16,0 C 24,3 C 3,2 km/h (1 Bft) 93,62 %
16.08.2017 18:18 24,4 C 23,9 C 61 % 1019,0 hPa 0,0 l/m 1,9 km/h (1 Bft) NW 314 2 min 0,000 mm 0,6 UV-I 251 W/m 16,4 C 24,4 C 4,8 km/h (1 Bft) 100,00 %
16.08.2017 18:20 24,4 C 23,9 C 60 % 1019,0 hPa 0,0 l/m 2,2 km/h (1 Bft) NW 313 2 min 0,000 mm 0,5 UV-I 246 W/m 16,1 C 24,4 C 3,2 km/h (1 Bft) 100,00 %
16.08.2017 18:22 24,4 C 23,9 C 60 % 1019,0 hPa 0,0 l/m 0,4 km/h (0 Bft) NW 313 2 min 0,000 mm 0,5 UV-I 236 W/m 16,1 C 24,4 C 1,6 km/h (1 Bft) 100,00 %
16.08.2017 18:24 24,4 C 23,9 C 59 % 1019,0 hPa 0,0 l/m 0,2 km/h (0 Bft) NW 313 2 min 0,000 mm 0,5 UV-I 224 W/m 15,9 C 24,4 C 1,6 km/h (1 Bft) 100,00 %
16.08.2017 18:26 24,3 C 23,9 C 60 % 1019,0 hPa 0,0 l/m 0,6 km/h (0 Bft) NW 314 2 min 0,000 mm 0,5 UV-I 212 W/m 16,0 C 24,3 C 3,2 km/h (1 Bft) 100,00 %
16.08.2017 18:28 24,3 C 23,9 C 61 % 1018,9 hPa 0,0 l/m 1,3 km/h (1 Bft) NW 319 2 min 0,000 mm 0,3 UV-I 205 W/m 16,3 C 24,3 C 3,2 km/h (1 Bft) 100,00 %
16.08.2017 18:30 24,3 C 23,9 C 61 % 1018,9 hPa 0,0 l/m 1,6 km/h (1 Bft) NW 313 2 min 0,000 mm 0,0 UV-I 200 W/m 16,3 C 24,3 C 4,8 km/h (1 Bft) 100,00 %
16.08.2017 18:32 24,3 C 23,9 C 59 % 1018,9 hPa 0,0 l/m 0,2 km/h (0 Bft) NW 313 2 min 0,000 mm 0,0 UV-I 196 W/m 15,8 C 24,3 C 1,6 km/h (1 Bft) 100,00 %
16.08.2017 18:34 24,2 C 23,9 C 59 % 1019,0 hPa 0,0 l/m 0,3 km/h (0 Bft) NW 313 2 min 0,000 mm 0,0 UV-I 191 W/m 15,7 C 24,2 C 1,6 km/h (1 Bft) 100,00 %
16.08.2017 18:36 24,2 C 23,9 C 61 % 1018,9 hPa 0,0 l/m 1,4 km/h (1 Bft) NW 313 2 min 0,000 mm 0,0 UV-I 185 W/m 16,2 C 24,2 C 3,2 km/h (1 Bft) 100,00 %
16.08.2017 18:38 24,2 C 23,9 C 63 % 1018,9 hPa 0,0 l/m 0,7 km/h (0 Bft) NW 318 2 min 0,000 mm 0,0 UV-I 180 W/m 16,7 C 24,2 C 3,2 km/h (1 Bft) 100,00 %
16.08.2017 18:40 24,1 C 23,9 C 59 % 1018,9 hPa 0,0 l/m 0,6 km/h (0 Bft) NW 318 2 min 0,000 mm 0,0 UV-I 175 W/m 15,6 C 24,1 C 3,2 km/h (1 Bft) 100,00 %
16.08.2017 18:42 24,1 C 23,9 C 62 % 1019,0 hPa 0,0 l/m 0,8 km/h (0 Bft) NW 320 2 min 0,000 mm 0,0 UV-I 169 W/m 16,4 C 24,1 C 3,2 km/h (1 Bft) 100,00 %
16.08.2017 18:44 24,1 C 23,9 C 62 % 1019,0 hPa 0,0 l/m 0,4 km/h (0 Bft) NW 320 2 min 0,000 mm 0,0 UV-I 163 W/m 16,4 C 24,1 C 1,6 km/h (1 Bft) 100,00 %
16.08.2017 18:46 24,0 C 23,9 C 61 % 1019,0 hPa 0,0 l/m 0,1 km/h (0 Bft) NW 320 2 min 0,000 mm 0,0 UV-I 157 W/m 16,0 C 24,0 C 1,6 km/h (1 Bft) 100,00 %
16.08.2017 18:48 24,0 C 23,9 C 62 % 1019,0 hPa 0,0 l/m 0,1 km/h (0 Bft) NW 320 2 min 0,000 mm 0,0 UV-I 152 W/m 16,3 C 24,0 C 1,6 km/h (1 Bft) 100,00 %
16.08.2017 18:50 24,0 C 23,9 C 59 % 1019,0 hPa 0,0 l/m 0,0 km/h (0 Bft) NW 320 2 min 0,000 mm 0,0 UV-I 148 W/m 15,5 C 24,0 C 0,0 km/h (0 Bft) 100,00 %
16.08.2017 18:52 24,0 C 23,9 C 62 % 1019,0 hPa 0,0 l/m 0,0 km/h (0 Bft) NW 320 2 min 0,000 mm 0,0 UV-I 143 W/m 16,3 C 24,0 C 0,0 km/h (0 Bft) 100,00 %
16.08.2017 18:54 24,1 C 23,9 C 61 % 1019,0 hPa 0,0 l/m 0,0 km/h (0 Bft) NW 320 2 min 0,000 mm 0,0 UV-I 140 W/m 16,1 C 24,1 C 0,0 km/h (0 Bft) 97,87 %
16.08.2017 18:56 24,2 C 23,9 C 61 % 1019,0 hPa 0,0 l/m 0,0 km/h (0 Bft) NW 320 2 min 0,000 mm 0,0 UV-I 134 W/m 16,2 C 24,2 C 1,6 km/h (1 Bft) 100,00 %
16.08.2017 18:58 24,2 C 23,9 C 61 % 1019,0 hPa 0,0 l/m 0,0 km/h (0 Bft) NW 320 2 min 0,000 mm 0,0 UV-I 129 W/m 16,2 C 24,2 C 0,0 km/h (0 Bft) 100,00 %
16.08.2017 19:00 24,2 C 23,9 C 61 % 1019,0 hPa 0,0 l/m 0,1 km/h (0 Bft) NW 320 2 min 0,000 mm 0,0 UV-I 123 W/m 16,2 C 24,2 C 1,6 km/h (1 Bft) 100,00 %
16.08.2017 19:02 24,2 C 23,9 C 61 % 1019,0 hPa 0,0 l/m 1,8 km/h (1 Bft) W-SW 252 2 min 0,127 mm 0,0 UV-I 120 W/m 16,2 C 24,2 C 4,8 km/h (1 Bft) 97,96 %
16.08.2017 19:04 24,2 C 23,9 C 61 % 1019,0 hPa 0,0 l/m 0,7 km/h (0 Bft) W-SW 252 2 min 0,000 mm 0,0 UV-I 114 W/m 16,2 C 24,2 C 3,2 km/h (1 Bft) 97,87 %
16.08.2017 19:06 24,2 C 23,9 C 61 % 1019,1 hPa 0,0 l/m 0,5 km/h (0 Bft) W-SW 252 2 min 0,000 mm 0,0 UV-I 111 W/m 16,2 C 24,2 C 3,2 km/h (1 Bft) 100,00 %
16.08.2017 19:08 24,2 C 23,9 C 62 % 1019,1 hPa 0,0 l/m 2,5 km/h (1 Bft) W-SW 252 2 min 0,000 mm 0,0 UV-I 106 W/m 16,4 C 24,2 C 4,8 km/h (1 Bft) 100,00 %
16.08.2017 19:10 24,2 C 23,9 C 62 % 1019,1 hPa 0,0 l/m 1,8 km/h (1 Bft) W-SW 252 2 min 0,000 mm 0,0 UV-I 98 W/m 16,4 C 24,2 C 4,8 km/h (1 Bft) 100,00 %
16.08.2017 19:12 24,2 C 23,9 C 62 % 1019,1 hPa 0,0 l/m 2,0 km/h (1 Bft) W-SW 252 2 min 0,000 mm 0,0 UV-I 97 W/m 16,4 C 24,2 C 3,2 km/h (1 Bft) 97,87 %
16.08.2017 19:14 24,2 C 23,9 C 60 % 1019,1 hPa 0,0 l/m 1,7 km/h (1 Bft) W-SW 252 2 min 0,000 mm 0,0 UV-I 93 W/m 15,9 C 24,2 C 3,2 km/h (1 Bft) 100,00 %
16.08.2017 19:16 24,1 C 23,9 C 62 % 1019,1 hPa 0,0 l/m 1,3 km/h (1 Bft) W-SW 252 2 min 0,000 mm 0,0 UV-I 87 W/m 16,4 C 24,1 C 3,2 km/h (1 Bft) 100,00 %
16.08.2017 19:18 24,1 C 23,9 C 62 % 1019,1 hPa 0,0 l/m 1,3 km/h (1 Bft) W-SW 252 2 min 0,000 mm 0,0 UV-I 81 W/m 16,4 C 24,1 C 3,2 km/h (1 Bft) 95,83 %
16.08.2017 19:20 24,1 C 23,9 C 60 % 1019,1 hPa 0,0 l/m 0,4 km/h (0 Bft) W-SW 252 0 min 0,000 mm 0,0 UV-I 75 W/m 15,8 C 24,1 C 1,6 km/h (1 Bft) 95,74 %
16.08.2017 19:22 23,9 C 23,9 C 61 % 1019,1 hPa 0,0 l/m 0,0 km/h (0 Bft) W-SW 252 2 min 0,000 mm 0,0 UV-I 76 W/m 15,9 C 23,9 C 0,0 km/h (0 Bft) 95,74 %
16.08.2017 19:24 23,8 C 23,9 C 69 % 1019,1 hPa 0,0 l/m 0,0 km/h (0 Bft) W-SW 252 2 min 0,000 mm 0,0 UV-I 71 W/m 17,8 C 23,8 C 0,0 km/h (0 Bft) 95,74 %
16.08.2017 19:26 23,7 C 23,9 C 67 % 1019,1 hPa 0,0 l/m 0,0 km/h (0 Bft) W-SW 252 0 min 0,000 mm 0,0 UV-I 65 W/m 17,2 C 23,7 C 0,0 km/h (0 Bft) 97,87 %
16.08.2017 19:28 23,6 C 23,9 C 68 % 1019,1 hPa 0,0 l/m 0,0 km/h (0 Bft) W-SW 252 0 min 0,000 mm 0,0 UV-I 63 W/m 17,3 C 23,6 C 0,0 km/h (0 Bft) 97,14 %
16.08.2017 19:30 23,4 C 23,9 C 71 % 1019,1 hPa 0,0 l/m 0,1 km/h (0 Bft) W-SW 252 0 min 0,000 mm 0,0 UV-I 60 W/m 17,8 C 23,4 C 1,6 km/h (1 Bft) 94,00 %
16.08.2017 19:32 23,3 C 23,9 C 72 % 1019,1 hPa 0,0 l/m 0,0 km/h (0 Bft) W-SW 252 0 min 0,000 mm 0,0 UV-I 57 W/m 18,0 C 23,3 C 0,0 km/h (0 Bft) 96,00 %
16.08.2017 19:34 23,2 C 23,9 C 71 % 1019,2 hPa 0,0 l/m 0,0 km/h (0 Bft) W-SW 252 0 min 0,000 mm 0,0 UV-I 51 W/m 17,6 C 23,2 C 0,0 km/h (0 Bft) 98,00 %
16.08.2017 19:36 23,1 C 23,9 C 73 % 1019,2 hPa 0,0 l/m 0,0 km/h (0 Bft) W-SW 252 0 min 0,000 mm 0,0 UV-I 40 W/m 18,0 C 23,1 C 0,0 km/h (0 Bft) 97,87 %
16.08.2017 19:38 22,8 C 23,9 C 72 % 1019,2 hPa 0,0 l/m 0,0 km/h (0 Bft) W-SW 252 0 min 0,000 mm 0,0 UV-I 31 W/m 17,5 C 22,8 C 0,0 km/h (0 Bft) 96,00 %
16.08.2017 19:40 22,7 C 23,9 C 74 % 1019,2 hPa 0,0 l/m 0,0 km/h (0 Bft) W-SW 252 0 min 0,000 mm 0,0 UV-I 27 W/m 17,8 C 22,7 C 0,0 km/h (0 Bft) 97,30 %
16.08.2017 19:42 22,5 C 23,9 C 75 % 1019,2 hPa 0,0 l/m 0,0 km/h (0 Bft) W-SW 252 0 min 0,000 mm 0,0 UV-I 26 W/m 17,8 C 22,5 C 0,0 km/h (0 Bft) 97,87 %
16.08.2017 19:44 22,3 C 23,9 C 75 % 1019,2 hPa 0,0 l/m 0,1 km/h (0 Bft) W-SW 252 0 min 0,000 mm 0,0 UV-I 24 W/m 17,6 C 22,3 C 1,6 km/h (1 Bft) 97,87 %
16.08.2017 19:46 22,2 C 23,9 C 75 % 1019,2 hPa 0,0 l/m 0,0 km/h (0 Bft) W-SW 252 0 min 0,000 mm 0,0 UV-I 20 W/m 17,5 C 22,2 C 0,0 km/h (0 Bft) 95,74 %
16.08.2017 19:48 22,0 C 23,9 C 76 % 1019,2 hPa 0,0 l/m 0,0 km/h (0 Bft) W-SW 252 0 min 0,000 mm 0,0 UV-I 19 W/m 17,6 C 22,0 C 0,0 km/h (0 Bft) 100,00 %
16.08.2017 19:50 21,8 C 23,9 C 77 % 1019,2 hPa 0,0 l/m 0,5 km/h (0 Bft) W-SW 252 0 min 0,000 mm 0,0 UV-I 19 W/m 17,6 C 21,8 C 1,6 km/h (1 Bft) 100,00 %
16.08.2017 19:52 21,6 C 23,9 C 78 % 1019,2 hPa 0,0 l/m 0,1 km/h (0 Bft) W-SW 252 0 min 0,000 mm 0,0 UV-I 18 W/m 17,6 C 21,6 C 1,6 km/h (1 Bft) 95,74 %
16.08.2017 19:54 21,4 C 23,9 C 79 % 1019,2 hPa 0,0 l/m 0,0 km/h (0 Bft) W-SW 252 0 min 0,000 mm 0,0 UV-I 16 W/m 17,6 C 21,4 C 0,0 km/h (0 Bft) 97,87 %
16.08.2017 19:56 21,2 C 23,9 C 79 % 1019,2 hPa 0,0 l/m 0,0 km/h (0 Bft) W-SW 252 0 min 0,000 mm 0,0 UV-I 14 W/m 17,4 C 21,2 C 0,0 km/h (0 Bft) 100,00 %
16.08.2017 19:58 21,1 C 23,9 C 79 % 1019,2 hPa 0,0 l/m 0,0 km/h (0 Bft) W-SW 252 0 min 0,000 mm 0,0 UV-I 12 W/m 17,3 C 21,1 C 0,0 km/h (0 Bft) 100,00 %
16.08.2017 20:00 21,0 C 23,9 C 80 % 1019,2 hPa 0,0 l/m 0,0 km/h (0 Bft) W-SW 252 0 min 0,051 mm 0,0 UV-I 12 W/m 17,4 C 21,0 C 0,0 km/h (0 Bft) 97,87 %
16.08.2017 20:02 20,9 C 23,9 C 80 % 1019,2 hPa 0,0 l/m 0,0 km/h (0 Bft) W-SW 252 0 min 0,000 mm 0,0 UV-I 11 W/m 17,3 C 20,9 C 0,0 km/h (0 Bft) 93,62 %
16.08.2017 20:04 20,8 C 23,9 C 80 % 1019,2 hPa 0,0 l/m 0,0 km/h (0 Bft) W-SW 252 2 min 0,000 mm 0,0 UV-I 11 W/m 17,2 C 20,8 C 0,0 km/h (0 Bft) 97,87 %
16.08.2017 20:06 20,7 C 23,9 C 80 % 1019,2 hPa 0,0 l/m 0,0 km/h (0 Bft) W-SW 252 0 min 0,000 mm 0,0 UV-I 9 W/m 17,1 C 20,7 C 0,0 km/h (0 Bft) 95,74 %
16.08.2017 20:08 20,6 C 23,9 C 81 % 1019,2 hPa 0,0 l/m 0,0 km/h (0 Bft) W-SW 252 0 min 0,000 mm 0,0 UV-I 9 W/m 17,2 C 20,6 C 0,0 km/h (0 Bft) 97,87 %
16.08.2017 20:10 20,5 C 23,9 C 81 % 1019,3 hPa 0,0 l/m 0,0 km/h (0 Bft) W-SW 252 0 min 0,000 mm 0,0 UV-I 7 W/m 17,1 C 20,5 C 0,0 km/h (0 Bft) 100,00 %
16.08.2017 20:12 20,4 C 23,9 C 80 % 1019,3 hPa 0,0 l/m 0,0 km/h (0 Bft) W-SW 252 0 min 0,000 mm 0,0 UV-I 7 W/m 16,8 C 20,4 C 0,0 km/h (0 Bft) 100,00 %
16.08.2017 20:14 20,4 C 23,9 C 80 % 1019,2 hPa 0,0 l/m 0,0 km/h (0 Bft) W-SW 252 0 min 0,000 mm 0,0 UV-I 7 W/m 16,8 C 20,4 C 0,0 km/h (0 Bft) 100,00 %
16.08.2017 20:16 20,4 C 23,9 C 80 % 1019,3 hPa 0,0 l/m 0,0 km/h (0 Bft) W-SW 252 0 min 0,000 mm 0,0 UV-I 6 W/m 16,8 C 20,4 C 0,0 km/h (0 Bft) 100,00 %
16.08.2017 20:18 20,3 C 23,9 C 81 % 1019,4 hPa 0,0 l/m 0,0 km/h (0 Bft) W-SW 252 0 min 0,000 mm 0,0 UV-I 5 W/m 16,9 C 20,3 C 0,0 km/h (0 Bft) 100,00 %
16.08.2017 20:20 20,2 C 23,9 C 81 % 1019,4 hPa 0,0 l/m 0,0 km/h (0 Bft) W-SW 252 0 min 0,000 mm 0,0 UV-I 5 W/m 16,8 C 20,2 C 0,0 km/h (0 Bft) 100,00 %
16.08.2017 20:22 20,1 C 23,9 C 81 % 1019,4 hPa 0,0 l/m 0,0 km/h (0 Bft) W-SW 252 0 min 0,000 mm 0,0 UV-I 5 W/m 16,7 C 20,1 C 0,0 km/h (0 Bft) 100,00 %
16.08.2017 20:24 19,9 C 23,9 C 81 % 1019,4 hPa 0,0 l/m 0,0 km/h (0 Bft) W-SW 252 0 min 0,000 mm 0,0 UV-I 5 W/m 16,5 C 19,9 C 0,0 km/h (0 Bft) 100,00 %
16.08.2017 20:26 19,8 C 23,9 C 82 % 1019,4 hPa 0,0 l/m 0,0 km/h (0 Bft) W-SW 252 0 min 0,000 mm 0,0 UV-I 5 W/m 16,6 C 19,8 C 0,0 km/h (0 Bft) 100,00 %
16.08.2017 20:28 19,8 C 23,9 C 81 % 1019,4 hPa 0,0 l/m 0,0 km/h (0 Bft) W-SW 252 0 min 0,000 mm 0,0 UV-I 0 W/m 16,4 C 19,8 C 0,0 km/h (0 Bft) 100,00 %
16.08.2017 20:30 19,8 C 23,9 C 82 % 1019,4 hPa 0,0 l/m 0,0 km/h (0 Bft) W-SW 252 0 min 0,000 mm 0,0 UV-I 0 W/m 16,6 C 19,8 C 0,0 km/h (0 Bft) 97,92 %
16.08.2017 20:32 19,8 C 23,9 C 81 % 1019,4 hPa 0,0 l/m 0,0 km/h (0 Bft) W-SW 252 0 min 0,000 mm 0,0 UV-I 0 W/m 16,4 C 19,8 C 0,0 km/h (0 Bft) 100,00 %
16.08.2017 20:34 19,9 C 23,9 C 81 % 1019,4 hPa 0,0 l/m 0,0 km/h (0 Bft) W-SW 252 0 min 0,000 mm 0,0 UV-I 0 W/m 16,5 C 19,9 C 0,0 km/h (0 Bft) 100,00 %
16.08.2017 20:36 19,9 C 23,9 C 82 % 1019,4 hPa 0,0 l/m 0,0 km/h (0 Bft) W-SW 252 0 min 0,000 mm 0,0 UV-I 0 W/m 16,7 C 19,9 C 0,0 km/h (0 Bft) 97,87 %
16.08.2017 20:38 19,9 C 23,9 C 83 % 1019,5 hPa 0,0 l/m 0,0 km/h (0 Bft) W-SW 252 0 min 0,000 mm 0,0 UV-I 0 W/m 16,9 C 19,9 C 0,0 km/h (0 Bft) 100,00 %
16.08.2017 20:40 19,9 C 23,9 C 83 % 1019,5 hPa 0,0 l/m 0,0 km/h (0 Bft) W-SW 252 0 min 0,000 mm 0,0 UV-I 0 W/m 16,9 C 19,9 C 0,0 km/h (0 Bft) 100,00 %
16.08.2017 20:42 19,8 C 23,9 C 83 % 1019,5 hPa 0,0 l/m 0,0 km/h (0 Bft) W-SW 252 0 min 0,000 mm 0,0 UV-I 0 W/m 16,8 C 19,8 C 0,0 km/h (0 Bft) 97,87 %
16.08.2017 20:44 19,8 C 23,9 C 83 % 1019,5 hPa 0,0 l/m 0,0 km/h (0 Bft) W-SW 252 0 min 0,000 mm 0,0 UV-I 0 W/m 16,8 C 19,8 C 0,0 km/h (0 Bft) 100,00 %
16.08.2017 20:46 19,8 C 23,9 C 83 % 1019,5 hPa 0,0 l/m 0,0 km/h (0 Bft) W-SW 252 0 min 0,000 mm 0,0 UV-I 0 W/m 16,8 C 19,8 C 0,0 km/h (0 Bft) 100,00 %
16.08.2017 20:48 19,7 C 23,9 C 83 % 1019,5 hPa 0,0 l/m 0,0 km/h (0 Bft) W-SW 252 0 min 0,000 mm 0,0 UV-I 0 W/m 16,7 C 19,7 C 0,0 km/h (0 Bft) 97,37 %
16.08.2017 20:50 19,7 C 23,9 C 83 % 1019,5 hPa 0,0 l/m 0,0 km/h (0 Bft) W-SW 252 0 min 0,000 mm 0,0 UV-I 0 W/m 16,7 C 19,7 C 0,0 km/h (0 Bft) 97,87 %
16.08.2017 20:52 19,6 C 23,9 C 83 % 1019,5 hPa 0,0 l/m 0,0 km/h (0 Bft) W-SW 252 0 min 0,000 mm 0,0 UV-I 0 W/m 16,6 C 19,6 C 0,0 km/h (0 Bft) 97,87 %
16.08.2017 20:54 19,5 C 23,9 C 83 % 1019,5 hPa 0,0 l/m 0,0 km/h (0 Bft) W-SW 252 0 min 0,000 mm 0,0 UV-I 0 W/m 16,5 C 19,5 C 0,0 km/h (0 Bft) 97,87 %
16.08.2017 20:56 19,4 C 23,9 C 84 % 1019,5 hPa 0,0 l/m 0,0 km/h (0 Bft) W-SW 252 0 min 0,000 mm 0,0 UV-I 0 W/m 16,6 C 19,4 C 0,0 km/h (0 Bft) 95,74 %
16.08.2017 20:58 19,3 C 23,9 C 84 % 1019,5 hPa 0,0 l/m 0,0 km/h (0 Bft) W-SW 252 0 min 0,000 mm 0,0 UV-I 0 W/m 16,5 C 19,3 C 0,0 km/h (0 Bft) 95,74 %
16.08.2017 21:00 19,3 C 23,9 C 85 % 1019,5 hPa 0,0 l/m 0,0 km/h (0 Bft) W-SW 252 0 min 0,000 mm 0,0 UV-I 0 W/m 16,7 C 19,3 C 0,0 km/h (0 Bft) 97,87 %
16.08.2017 21:02 19,3 C 23,9 C 85 % 1019,5 hPa 0,0 l/m 0,0 km/h (0 Bft) W-SW 252 0 min 0,000 mm 0,0 UV-I 0 W/m 16,7 C 19,3 C 0,0 km/h (0 Bft) 97,87 %
16.08.2017 21:04 19,3 C 23,9 C 85 % 1019,5 hPa 0,0 l/m 0,0 km/h (0 Bft) W-SW 252 0 min 0,000 mm 0,0 UV-I 0 W/m 16,7 C 19,3 C 0,0 km/h (0 Bft) 97,87 %
16.08.2017 21:06 19,2 C 23,9 C 85 % 1019,5 hPa 0,0 l/m 0,0 km/h (0 Bft) W-SW 252 0 min 0,000 mm 0,0 UV-I 0 W/m 16,6 C 19,2 C 0,0 km/h (0 Bft) 95,74 %
16.08.2017 21:08 19,2 C 23,9 C 85 % 1019,5 hPa 0,0 l/m 0,0 km/h (0 Bft) W-SW 252 0 min 0,000 mm 0,0 UV-I 0 W/m 16,6 C 19,2 C 0,0 km/h (0 Bft) 97,87 %
16.08.2017 21:10 19,2 C 23,9 C 86 % 1019,5 hPa 0,0 l/m 0,0 km/h (0 Bft) W-SW 252 0 min 0,000 mm 0,0 UV-I 0 W/m 16,8 C 19,2 C 0,0 km/h (0 Bft) 97,87 %
16.08.2017 21:12 19,1 C 23,9 C 86 % 1019,5 hPa 0,0 l/m 0,0 km/h (0 Bft) W-SW 252 0 min 0,000 mm 0,0 UV-I 0 W/m 16,7 C 19,1 C 0,0 km/h (0 Bft) 97,92 %
16.08.2017 21:14 19,1 C 23,9 C 86 % 1019,5 hPa 0,0 l/m 0,0 km/h (0 Bft) W-SW 252 0 min 0,000 mm 0,0 UV-I 0 W/m 16,7 C 19,1 C 0,0 km/h (0 Bft) 97,87 %
16.08.2017 21:16 19,0 C 23,9 C 86 % 1019,5 hPa 0,0 l/m 0,0 km/h (0 Bft) W-SW 252 0 min 0,000 mm 0,0 UV-I 0 W/m 16,6 C 19,0 C 0,0 km/h (0 Bft) 97,87 %
16.08.2017 21:18 18,9 C 23,9 C 86 % 1019,5 hPa 0,0 l/m 0,0 km/h (0 Bft) W-SW 252 0 min 0,000 mm 0,0 UV-I 0 W/m 16,5 C 18,9 C 0,0 km/h (0 Bft) 97,87 %
16.08.2017 21:20 18,9 C 23,9 C 87 % 1019,6 hPa 0,0 l/m 0,0 km/h (0 Bft) W-SW 252 0 min 0,000 mm 0,0 UV-I 0 W/m 16,7 C 18,9 C 0,0 km/h (0 Bft) 95,74 %
16.08.2017 21:22 18,8 C 23,9 C 87 % 1019,6 hPa 0,0 l/m 0,0 km/h (0 Bft) W-SW 252 0 min 0,000 mm 0,0 UV-I 0 W/m 16,6 C 18,8 C 0,0 km/h (0 Bft) 95,74 %
16.08.2017 21:24 18,8 C 23,9 C 87 % 1019,6 hPa 0,0 l/m 0,0 km/h (0 Bft) W-SW 252 0 min 0,000 mm 0,0 UV-I 0 W/m 16,6 C 18,8 C 0,0 km/h (0 Bft) 91,49 %
16.08.2017 21:26 18,7 C 23,9 C 87 % 1019,6 hPa 0,0 l/m 0,0 km/h (0 Bft) W-SW 252 0 min 0,000 mm 0,0 UV-I 0 W/m 16,5 C 18,7 C 0,0 km/h (0 Bft) 89,36 %
16.08.2017 21:28 18,7 C 23,9 C 87 % 1019,6 hPa 0,0 l/m 0,0 km/h (0 Bft) W-SW 252 0 min 0,000 mm 0,0 UV-I 0 W/m 16,5 C 18,7 C 0,0 km/h (0 Bft) 97,87 %
16.08.2017 21:30 18,6 C 23,9 C 87 % 1019,6 hPa 0,0 l/m 0,0 km/h (0 Bft) W-SW 252 0 min 0,000 mm 0,0 UV-I 0 W/m 16,4 C 18,6 C 0,0 km/h (0 Bft) 96,00 %
16.08.2017 21:32 18,4 C 23,9 C 88 % 1019,6 hPa 0,0 l/m 0,0 km/h (0 Bft) W-SW 252 0 min 0,000 mm 0,0 UV-I 0 W/m 16,4 C 18,4 C 0,0 km/h (0 Bft) 93,62 %
16.08.2017 21:34 18,4 C 23,9 C 88 % 1019,6 hPa 0,0 l/m 0,0 km/h (0 Bft) W-SW 252 0 min 0,000 mm 0,0 UV-I 0 W/m 16,4 C 18,4 C 0,0 km/h (0 Bft) 95,74 %
16.08.2017 21:36 18,3 C 23,9 C 88 % 1019,6 hPa 0,0 l/m 0,0 km/h (0 Bft) W-SW 252 0 min 0,000 mm 0,0 UV-I 0 W/m 16,3 C 18,3 C 0,0 km/h (0 Bft) 95,74 %
16.08.2017 21:38 18,3 C 23,9 C 88 % 1019,6 hPa 0,0 l/m 0,0 km/h (0 Bft) W-SW 252 0 min 0,000 mm 0,0 UV-I 0 W/m 16,3 C 18,3 C 0,0 km/h (0 Bft) 93,62 %
16.08.2017 21:40 18,4 C 23,9 C 88 % 1019,6 hPa 0,0 l/m 0,0 km/h (0 Bft) W-SW 252 0 min 0,000 mm 0,0 UV-I 0 W/m 16,4 C 18,4 C 0,0 km/h (0 Bft) 91,43 %
16.08.2017 21:42 18,4 C 23,9 C 88 % 1019,6 hPa 0,0 l/m 0,0 km/h (0 Bft) W-SW 252 0 min 0,000 mm 0,0 UV-I 0 W/m 16,4 C 18,4 C 0,0 km/h (0 Bft) 96,00 %
16.08.2017 21:44 18,4 C 23,3 C 87 % 1019,5 hPa 0,0 l/m 0,0 km/h (0 Bft) W-SW 252 0 min 0,000 mm 0,0 UV-I 0 W/m 16,2 C 18,4 C 0,0 km/h (0 Bft) 95,74 %
16.08.2017 21:46 18,4 C 23,3 C 87 % 1019,6 hPa 0,0 l/m 0,0 km/h (0 Bft) W-SW 252 0 min 0,000 mm 0,0 UV-I 0 W/m 16,2 C 18,4 C 0,0 km/h (0 Bft) 93,62 %
16.08.2017 21:48 18,3 C 23,3 C 87 % 1019,6 hPa 0,0 l/m 0,0 km/h (0 Bft) W-SW 252 0 min 0,000 mm 0,0 UV-I 0 W/m 16,1 C 18,3 C 0,0 km/h (0 Bft) 95,74 %
16.08.2017 21:50 18,3 C 23,3 C 87 % 1019,6 hPa 0,0 l/m 0,0 km/h (0 Bft) W-SW 252 0 min 0,000 mm 0,0 UV-I 0 W/m 16,1 C 18,3 C 0,0 km/h (0 Bft) 95,83 %
16.08.2017 21:52 18,3 C 23,3 C 87 % 1019,6 hPa 0,0 l/m 0,0 km/h (0 Bft) W-SW 252 0 min 0,000 mm 0,0 UV-I 0 W/m 16,1 C 18,3 C 0,0 km/h (0 Bft) 95,74 %
16.08.2017 21:54 18,2 C 23,3 C 87 % 1019,6 hPa 0,0 l/m 0,0 km/h (0 Bft) W-SW 252 0 min 0,000 mm 0,0 UV-I 0 W/m 16,0 C 18,2 C 0,0 km/h (0 Bft) 100,00 %
16.08.2017 21:56 18,2 C 23,3 C 87 % 1019,6 hPa 0,0 l/m 0,0 km/h (0 Bft) W-SW 252 0 min 0,000 mm 0,0 UV-I 0 W/m 16,0 C 18,2 C 0,0 km/h (0 Bft) 100,00 %
16.08.2017 21:58 18,1 C 23,3 C 88 % 1019,6 hPa 0,0 l/m 0,0 km/h (0 Bft) W-SW 252 0 min 0,000 mm 0,0 UV-I 0 W/m 16,1 C 18,1 C 0,0 km/h (0 Bft) 100,00 %
16.08.2017 22:00 18,1 C 23,3 C 88 % 1019,6 hPa 0,0 l/m 0,0 km/h (0 Bft) W-SW 252 0 min 0,000 mm 0,0 UV-I 0 W/m 16,1 C 18,1 C 0,0 km/h (0 Bft) 97,87 %
16.08.2017 22:02 18,0 C 23,3 C 88 % 1019,6 hPa 0,0 l/m 0,0 km/h (0 Bft) W-SW 252 0 min 0,000 mm 0,0 UV-I 0 W/m 16,0 C 18,0 C 0,0 km/h (0 Bft) 100,00 %
16.08.2017 22:04 17,9 C 23,3 C 88 % 1019,6 hPa 0,0 l/m 0,0 km/h (0 Bft) W-SW 252 0 min 0,000 mm 0,0 UV-I 0 W/m 15,9 C 17,9 C 0,0 km/h (0 Bft) 100,00 %
16.08.2017 22:06 17,9 C 23,3 C 88 % 1019,6 hPa 0,0 l/m 0,0 km/h (0 Bft) W-SW 252 0 min 0,000 mm 0,0 UV-I 0 W/m 15,9 C 17,9 C 0,0 km/h (0 Bft) 100,00 %
16.08.2017 22:08 17,9 C 23,3 C 88 % 1019,6 hPa 0,0 l/m 0,0 km/h (0 Bft) W-SW 252 0 min 0,000 mm 0,0 UV-I 0 W/m 15,9 C 17,9 C 0,0 km/h (0 Bft) 100,00 %
16.08.2017 22:10 17,9 C 23,3 C 88 % 1019,6 hPa 0,0 l/m 0,0 km/h (0 Bft) W-SW 252 0 min 0,000 mm 0,0 UV-I 0 W/m 15,9 C 17,9 C 0,0 km/h (0 Bft) 100,00 %
16.08.2017 22:12 17,9 C 23,3 C 88 % 1019,7 hPa 0,0 l/m 0,0 km/h (0 Bft) W-SW 252 0 min 0,000 mm 0,0 UV-I 0 W/m 15,9 C 17,9 C 0,0 km/h (0 Bft) 100,00 %
16.08.2017 22:14 17,9 C 23,3 C 88 % 1019,7 hPa 0,0 l/m 0,0 km/h (0 Bft) W-SW 252 0 min 0,000 mm 0,0 UV-I 0 W/m 15,9 C 17,9 C 0,0 km/h (0 Bft) 100,00 %
16.08.2017 22:16 17,9 C 23,3 C 88 % 1019,7 hPa 0,0 l/m 0,0 km/h (0 Bft) W-SW 252 0 min 0,000 mm 0,0 UV-I 0 W/m 15,9 C 17,9 C 0,0 km/h (0 Bft) 100,00 %
16.08.2017 22:18 17,9 C 23,3 C 88 % 1019,7 hPa 0,0 l/m 0,0 km/h (0 Bft) W-SW 252 0 min 0,000 mm 0,0 UV-I 0 W/m 15,9 C 17,9 C 0,0 km/h (0 Bft) 100,00 %
16.08.2017 22:20 17,8 C 23,3 C 88 % 1019,7 hPa 0,0 l/m 0,0 km/h (0 Bft) W-SW 252 0 min 0,000 mm 0,0 UV-I 0 W/m 15,8 C 17,8 C 0,0 km/h (0 Bft) 100,00 %
16.08.2017 22:22 17,8 C 23,3 C 89 % 1019,7 hPa 0,0 l/m 0,0 km/h (0 Bft) W-SW 252 0 min 0,000 mm 0,0 UV-I 0 W/m 16,0 C 17,8 C 0,0 km/h (0 Bft) 100,00 %
16.08.2017 22:24 17,8 C 23,3 C 89 % 1019,7 hPa 0,0 l/m 0,0 km/h (0 Bft) W-SW 252 0 min 0,000 mm 0,0 UV-I 0 W/m 16,0 C 17,8 C 0,0 km/h (0 Bft) 100,00 %
16.08.2017 22:26 17,7 C 23,3 C 89 % 1019,7 hPa 0,0 l/m 0,0 km/h (0 Bft) W-SW 252 0 min 0,000 mm 0,0 UV-I 0 W/m 15,9 C 17,7 C 0,0 km/h (0 Bft) 100,00 %
16.08.2017 22:28 17,6 C 23,3 C 89 % 1019,7 hPa 0,0 l/m 0,0 km/h (0 Bft) W-SW 252 0 min 0,000 mm 0,0 UV-I 0 W/m 15,8 C 17,6 C 0,0 km/h (0 Bft) 100,00 %
16.08.2017 22:30 17,6 C 23,3 C 89 % 1019,7 hPa 0,0 l/m 0,0 km/h (0 Bft) W-SW 252 0 min 0,000 mm 0,0 UV-I 0 W/m 15,8 C 17,6 C 0,0 km/h (0 Bft) 100,00 %
16.08.2017 22:32 17,6 C 23,3 C 89 % 1019,7 hPa 0,0 l/m 0,5 km/h (0 Bft) W-SW 252 0 min 0,000 mm 0,0 UV-I 0 W/m 15,8 C 17,6 C 1,6 km/h (1 Bft) 100,00 %
16.08.2017 22:34 17,6 C 23,3 C 89 % 1019,6 hPa 0,0 l/m 0,2 km/h (0 Bft) W-SW 252 0 min 0,000 mm 0,0 UV-I 0 W/m 15,8 C 17,6 C 1,6 km/h (1 Bft) 100,00 %
16.08.2017 22:36 17,6 C 23,3 C 89 % 1019,6 hPa 0,0 l/m 0,0 km/h (0 Bft) W-SW 252 0 min 0,000 mm 0,0 UV-I 0 W/m 15,8 C 17,6 C 0,0 km/h (0 Bft) 100,00 %
16.08.2017 22:38 17,5 C 23,3 C 90 % 1019,6 hPa 0,0 l/m 0,0 km/h (0 Bft) W-SW 252 0 min 0,000 mm 0,0 UV-I 0 W/m 15,8 C 17,5 C 0,0 km/h (0 Bft) 97,87 %
16.08.2017 22:40 17,5 C 23,3 C 90 % 1019,6 hPa 0,0 l/m 0,0 km/h (0 Bft) W-SW 252 0 min 0,000 mm 0,0 UV-I 0 W/m 15,8 C 17,5 C 0,0 km/h (0 Bft) 100,00 %
16.08.2017 22:42 17,5 C 23,3 C 90 % 1019,6 hPa 0,0 l/m 0,0 km/h (0 Bft) W-SW 252 0 min 0,000 mm 0,0 UV-I 0 W/m 15,8 C 17,5 C 0,0 km/h (0 Bft) 100,00 %
16.08.2017 22:44 17,5 C 23,3 C 90 % 1019,5 hPa 0,0 l/m 0,8 km/h (0 Bft) W-SW 252 0 min 0,000 mm 0,0 UV-I 0 W/m 15,8 C 17,5 C 3,2 km/h (1 Bft) 97,87 %
16.08.2017 22:46 17,5 C 23,3 C 90 % 1019,5 hPa 0,0 l/m 1,1 km/h (1 Bft) W-SW 252 0 min 0,000 mm 0,0 UV-I 0 W/m 15,8 C 17,5 C 3,2 km/h (1 Bft) 100,00 %
16.08.2017 22:48 17,4 C 23,3 C 90 % 1019,5 hPa 0,0 l/m 0,0 km/h (0 Bft) W-SW 252 0 min 0,000 mm 0,0 UV-I 0 W/m 15,7 C 17,4 C 0,0 km/h (0 Bft) 100,00 %
16.08.2017 22:50 17,4 C 23,3 C 90 % 1019,5 hPa 0,0 l/m 0,0 km/h (0 Bft) W-SW 252 0 min 0,000 mm 0,0 UV-I 0 W/m 15,7 C 17,4 C 0,0 km/h (0 Bft) 100,00 %
16.08.2017 22:52 17,4 C 23,3 C 90 % 1019,5 hPa 0,0 l/m 1,0 km/h (0 Bft) W-SW 252 0 min 0,000 mm 0,0 UV-I 0 W/m 15,7 C 17,4 C 3,2 km/h (1 Bft) 97,87 %
16.08.2017 22:54 17,4 C 23,3 C 90 % 1019,4 hPa 0,0 l/m 1,6 km/h (1 Bft) W-SW 252 0 min 0,000 mm 0,0 UV-I 0 W/m 15,7 C 17,4 C 3,2 km/h (1 Bft) 95,74 %
16.08.2017 22:56 17,4 C 23,3 C 90 % 1019,4 hPa 0,0 l/m 1,0 km/h (0 Bft) W-SW 252 0 min 0,000 mm 0,0 UV-I 0 W/m 15,7 C 17,4 C 3,2 km/h (1 Bft) 100,00 %
16.08.2017 22:58 17,4 C 23,3 C 90 % 1019,4 hPa 0,0 l/m 2,4 km/h (1 Bft) W-SW 252 0 min 0,000 mm 0,0 UV-I 0 W/m 15,7 C 17,4 C 3,2 km/h (1 Bft) 97,87 %
16.08.2017 23:00 17,4 C 23,3 C 90 % 1019,4 hPa 0,0 l/m 2,9 km/h (1 Bft) W-SW 252 0 min 0,000 mm 0,0 UV-I 0 W/m 15,7 C 17,4 C 4,8 km/h (1 Bft) 100,00 %
16.08.2017 23:02 17,4 C 23,3 C 90 % 1019,4 hPa 0,0 l/m 2,8 km/h (1 Bft) W-SW 252 0 min 0,000 mm 0,0 UV-I 0 W/m 15,7 C 17,4 C 4,8 km/h (1 Bft) 100,00 %
16.08.2017 23:04 17,4 C 23,3 C 90 % 1019,4 hPa 0,0 l/m 2,8 km/h (1 Bft) W-SW 252 0 min 0,000 mm 0,0 UV-I 0 W/m 15,7 C 17,4 C 4,8 km/h (1 Bft) 97,22 %
16.08.2017 23:06 17,3 C 23,3 C 90 % 1019,4 hPa 0,0 l/m 2,1 km/h (1 Bft) W-SW 252 0 min 0,000 mm 0,0 UV-I 0 W/m 15,6 C 17,3 C 4,8 km/h (1 Bft) 100,00 %
16.08.2017 23:08 17,3 C 23,3 C 90 % 1019,4 hPa 0,0 l/m 0,8 km/h (0 Bft) W-SW 252 0 min 0,000 mm 0,0 UV-I 0 W/m 15,6 C 17,3 C 3,2 km/h (1 Bft) 100,00 %
16.08.2017 23:10 17,3 C 23,3 C 90 % 1019,4 hPa 0,0 l/m 2,1 km/h (1 Bft) W-SW 252 0 min 0,000 mm 0,0 UV-I 0 W/m 15,6 C 17,3 C 4,8 km/h (1 Bft) 100,00 %
16.08.2017 23:12 17,2 C 23,3 C 90 % 1019,4 hPa 0,0 l/m 1,4 km/h (1 Bft) W-SW 252 0 min 0,000 mm 0,0 UV-I 0 W/m 15,5 C 17,2 C 3,2 km/h (1 Bft) 97,87 %
16.08.2017 23:14 17,2 C 23,3 C 90 % 1019,3 hPa 0,0 l/m 1,6 km/h (1 Bft) S-SW 200 0 min 0,000 mm 0,0 UV-I 0 W/m 15,5 C 17,2 C 4,8 km/h (1 Bft) 100,00 %
16.08.2017 23:16 17,2 C 23,3 C 91 % 1019,3 hPa 0,0 l/m 2,0 km/h (1 Bft) S-SW 200 0 min 0,000 mm 0,0 UV-I 0 W/m 15,7 C 17,2 C 3,2 km/h (1 Bft) 97,87 %
16.08.2017 23:18 17,2 C 23,3 C 91 % 1019,3 hPa 0,0 l/m 1,7 km/h (1 Bft) S-SW 200 0 min 0,000 mm 0,0 UV-I 0 W/m 15,7 C 17,2 C 4,8 km/h (1 Bft) 100,00 %
16.08.2017 23:20 17,3 C 23,3 C 91 % 1019,3 hPa 0,0 l/m 1,2 km/h (1 Bft) S-SW 200 0 min 0,000 mm 0,0 UV-I 0 W/m 15,8 C 17,3 C 3,2 km/h (1 Bft) 98,00 %
16.08.2017 23:22 17,3 C 23,3 C 91 % 1019,3 hPa 0,0 l/m 0,9 km/h (0 Bft) S-SW 200 0 min 0,000 mm 0,0 UV-I 0 W/m 15,8 C 17,3 C 3,2 km/h (1 Bft) 97,87 %
16.08.2017 23:24 17,3 C 23,3 C 91 % 1019,3 hPa 0,0 l/m 0,1 km/h (0 Bft) S-SW 200 0 min 0,000 mm 0,0 UV-I 0 W/m 15,8 C 17,3 C 1,6 km/h (1 Bft) 97,87 %
16.08.2017 23:26 17,3 C 23,3 C 91 % 1019,2 hPa 0,0 l/m 0,5 km/h (0 Bft) S-SW 200 0 min 0,000 mm 0,0 UV-I 0 W/m 15,8 C 17,3 C 3,2 km/h (1 Bft) 97,87 %
16.08.2017 23:28 17,3 C 23,3 C 91 % 1019,2 hPa 0,0 l/m 1,6 km/h (1 Bft) S-SW 200 0 min 0,000 mm 0,0 UV-I 0 W/m 15,8 C 17,3 C 4,8 km/h (1 Bft) 96,00 %
16.08.2017 23:30 17,3 C 23,3 C 90 % 1019,2 hPa 0,0 l/m 0,1 km/h (0 Bft) S-SW 200 0 min 0,000 mm 0,0 UV-I 0 W/m 15,6 C 17,3 C 1,6 km/h (1 Bft) 97,87 %
16.08.2017 23:32 17,3 C 23,3 C 90 % 1019,2 hPa 0,0 l/m 0,4 km/h (0 Bft) S-SW 200 0 min 0,000 mm 0,0 UV-I 0 W/m 15,6 C 17,3 C 1,6 km/h (1 Bft) 97,87 %
16.08.2017 23:34 17,3 C 23,3 C 91 % 1019,2 hPa 0,0 l/m 1,1 km/h (1 Bft) S-SW 200 0 min 0,000 mm 0,0 UV-I 0 W/m 15,8 C 17,3 C 1,6 km/h (1 Bft) 97,50 %
16.08.2017 23:36 17,3 C 23,3 C 91 % 1019,2 hPa 0,0 l/m 0,7 km/h (0 Bft) S-SW 200 0 min 0,000 mm 0,0 UV-I 0 W/m 15,8 C 17,3 C 1,6 km/h (1 Bft) 97,87 %
16.08.2017 23:38 17,3 C 23,3 C 91 % 1019,2 hPa 0,0 l/m 0,0 km/h (0 Bft) S-SW 200 0 min 0,000 mm 0,0 UV-I 0 W/m 15,8 C 17,3 C 0,0 km/h (0 Bft) 98,00 %
16.08.2017 23:40 17,4 C 23,3 C 91 % 1019,2 hPa 0,0 l/m 0,0 km/h (0 Bft) S-SW 200 0 min 0,000 mm 0,0 UV-I 0 W/m 15,9 C 17,4 C 0,0 km/h (0 Bft) 97,87 %
16.08.2017 23:42 17,4 C 23,3 C 91 % 1019,2 hPa 0,0 l/m 0,0 km/h (0 Bft) S-SW 200 0 min 0,000 mm 0,0 UV-I 0 W/m 15,9 C 17,4 C 0,0 km/h (0 Bft) 97,87 %
16.08.2017 23:44 17,4 C 23,3 C 90 % 1019,2 hPa 0,0 l/m 0,0 km/h (0 Bft) S-SW 200 0 min 0,000 mm 0,0 UV-I 0 W/m 15,7 C 17,4 C 0,0 km/h (0 Bft) 97,87 %
16.08.2017 23:46 17,3 C 23,3 C 90 % 1019,2 hPa 0,0 l/m 0,0 km/h (0 Bft) S-SW 200 0 min 0,000 mm 0,0 UV-I 0 W/m 15,6 C 17,3 C 0,0 km/h (0 Bft) 96,00 %
16.08.2017 23:48 17,2 C 23,3 C 90 % 1019,1 hPa 0,0 l/m 0,0 km/h (0 Bft) S-SW 200 0 min 0,000 mm 0,0 UV-I 0 W/m 15,5 C 17,2 C 0,0 km/h (0 Bft) 97,87 %
16.08.2017 23:50 17,2 C 23,3 C 90 % 1019,2 hPa 0,0 l/m 0,0 km/h (0 Bft) S-SW 200 0 min 0,000 mm 0,0 UV-I 0 W/m 15,5 C 17,2 C 0,0 km/h (0 Bft) 97,87 %
16.08.2017 23:52 17,1 C 23,3 C 91 % 1019,2 hPa 0,0 l/m 0,0 km/h (0 Bft) S-SW 200 0 min 0,000 mm 0,0 UV-I 0 W/m 15,6 C 17,1 C 0,0 km/h (0 Bft) 97,87 %
16.08.2017 23:54 17,0 C 23,3 C 91 % 1019,2 hPa 0,0 l/m 0,0 km/h (0 Bft) S-SW 200 0 min 0,000 mm 0,0 UV-I 0 W/m 15,5 C 17,0 C 0,0 km/h (0 Bft) 95,83 %
16.08.2017 23:56 16,9 C 23,3 C 91 % 1019,2 hPa 0,0 l/m 0,0 km/h (0 Bft) S-SW 200 0 min 0,000 mm 0,0 UV-I 0 W/m 15,4 C 16,9 C 0,0 km/h (0 Bft) 97,87 %
16.08.2017 23:58 16,9 C 23,3 C 91 % 1019,2 hPa 0,0 l/m 0,0 km/h (0 Bft) S-SW 200 0 min 0,000 mm 0,0 UV-I 0 W/m 15,4 C 16,9 C 0,0 km/h (0 Bft) 100,00 %
_ Min-Zeit 03:12 02:36 17:24 00:00 - 00:00 - - - - - - 03:12 04:02 00:00 00:02
Minimum _ 16,7 C 22,8 C 58 % 1015,9 hPa - 0,0 km/h (0 Bft) - - - - - - 15,4 C 12,6 C 0,0 km/h (0 Bft) 89,19 %
_ Max-Zeit 17:18 16:26 09:36 10:32 08:32 12:32 - - 06:12 15:02 14:18 14:18 12:00 15:50 12:32 00:24
Maximum _ 24,8 C 23,9 C 94 % 1021,1 hPa 0,2 l/m 18,7 km/h
W (3 Bft)
- - 2 min 0,381 mm 5,0 UV-I 908 W/m 18,9 C 24,7 C 29,0 km/h
W (5 Bft)
100,00 %
Durchschnitt _ 20,0 C 23,2 C 81 % 1019,2 hPa #1,6 l/m 4,0 km/h (1 Bft) W-SW - #6:48 h #2,845 mm 2,5 UV-I 295 W/m 16,5 C 19,6 C 7,1 km/h (2 Bft) 98,05 %